[[{"header":{"parameterUnit":"m.s-1","parameterCategory":1,"la1":30.6,"la2":29.2853,"lo1":-89.7004,"lo2":-87.6739,"dy":0.0162,"dx":0.0183,"nx":112,"ny":82,"refTime":"2024-09-02T00:00:00:Z","depth":0,"parameterNumber":2,"parameterNumberName":"U-component_of_WINDS"},"data":[0.0,0.0,0.0,0.0,0.0,0.0,0.0,0.0,0.0,0.0,0.0,0.0,0.0,0.0,0.0,0.0,0.0,0.0,0.0,0.0,0.0,0.0,0.0,0.0,0.0,0.0,0.0,0.0,0.0,0.0,0.0,0.0,0.0,0.0,0.0,0.0,0.0,0.0,0.0,0.0,0.0,0.0,0.0,0.0,0.0,0.0,0.0,0.0,0.0,0.0,0.0,0.0,0.0,0.0,0.0,0.0,0.0,0.0,0.0,0.0,0.0,0.0,0.0,0.0,0.0,0.0,0.0,0.0,0.0,0.0,0.0,0.0,0.0,0.0,0.0,0.0,0.0,0.0,0.0,0.0,0.0,0.0,0.0,0.0,0.0,0.0,0.0,0.0,0.0,0.0,2.0417,2.177,2.4043,2.5486,2.5504,2.5601,2.4198,2.0723,0.0,0.0,0.0,0.0,0.0,0.0,0.0,0.0,0.0,0.0,0.0,0.0,0.0,0.0,0.0,0.0,0.0,0.0,0.0,0.0,0.0,0.0,0.0,0.0,0.0,0.0,0.0,0.0,0.0,0.0,0.0,0.0,0.0,0.0,0.0,0.0,0.0,0.0,0.0,0.0,0.0,0.0,0.0,0.0,0.0,0.0,0.0,0.0,0.0,0.0,0.0,0.0,0.0,0.0,0.0,0.0,0.0,0.0,0.0,0.0,0.0,0.0,0.0,0.0,0.0,0.0,0.0,0.0,0.0,0.0,0.0,0.0,0.0,0.0,0.0,0.0,0.0,0.0,0.0,0.0,0.0,0.0,0.0,0.0,0.0,0.0,0.0,0.0,0.0,0.0,0.0,0.0,0.0,0.0,0.0,0.0,0.0,0.0,0.0,0.0,0.0,0.0,0.0,0.0,1.9728,2.4197,2.5081,2.5376,2.5485,2.5517,2.4124,2.0781,0.0,0.0,0.0,0.0,0.0,0.0,0.0,0.0,0.0,0.0,0.0,0.0,0.0,0.0,0.0,0.0,0.0,0.0,0.0,0.0,0.0,0.0,0.0,0.0,0.0,0.0,0.0,0.0,0.0,0.0,0.0,0.0,0.0,0.0,0.0,0.0,0.0,0.0,0.0,0.0,0.0,0.0,0.0,0.0,0.0,0.0,0.0,0.0,0.0,0.0,0.0,0.0,0.0,0.0,0.0,0.0,0.0,0.0,0.0,0.0,0.0,0.0,0.0,0.0,0.0,0.0,0.0,0.0,0.0,0.0,0.0,0.0,0.0,0.0,0.0,0.0,0.0,0.0,0.0,0.0,0.0,0.0,0.0,0.0,0.0,0.0,0.0,0.0,0.0,0.0,0.0,0.0,0.0,0.0,0.0,0.0,0.0,0.0,0.0,0.0,0.0,0.0,0.0,1.8508,2.0545,2.4832,2.5322,2.5398,2.548,2.5523,2.4147,2.0801,1.8897,0.0,0.0,0.0,0.0,0.0,0.0,0.0,0.0,0.0,0.0,0.0,0.0,0.0,0.0,0.0,0.0,0.0,0.0,0.0,0.0,0.0,0.0,0.0,0.0,0.0,0.0,0.0,0.0,0.0,0.0,0.0,0.0,0.0,0.0,0.0,0.0,0.0,0.0,0.0,0.0,0.0,0.0,0.0,0.0,0.0,0.0,0.0,0.0,0.0,0.0,0.0,0.0,0.0,0.0,0.0,0.0,0.0,0.0,0.0,0.0,0.0,0.0,0.0,0.0,0.0,0.0,0.0,0.0,0.0,0.0,0.0,0.0,0.0,0.0,0.0,0.0,0.0,0.0,0.0,0.0,0.0,0.0,0.0,0.0,0.0,0.0,0.0,0.0,0.0,0.0,0.0,0.0,0.0,0.0,0.0,0.0,0.0,0.0,0.0,0.0,0.0,0.0,2.0776,2.2087,2.4995,2.5341,2.5409,2.5466,2.5163,2.3708,2.0738,1.8496,0.0,0.0,0.0,0.0,0.0,0.0,0.0,0.0,0.0,0.0,0.0,0.0,0.0,0.0,0.0,0.0,0.0,0.0,0.0,0.0,0.0,0.0,0.0,0.0,0.0,0.0,0.0,0.0,0.0,0.0,0.0,0.0,0.0,0.0,0.0,0.0,0.0,0.0,0.0,0.0,0.0,0.0,0.0,0.0,0.0,0.0,0.0,0.0,0.0,0.0,0.0,0.0,0.0,0.0,0.0,0.0,0.0,0.0,0.0,0.0,0.0,0.0,0.0,0.0,0.0,0.0,0.0,0.0,0.0,0.0,0.0,0.0,0.0,0.0,0.0,0.0,0.0,0.0,0.0,0.0,0.0,0.0,0.0,0.0,0.0,0.0,0.0,0.0,0.0,0.0,0.0,0.0,0.0,0.0,0.0,0.0,0.0,0.0,0.0,0.0,0.0,0.0,2.13,2.4197,2.5187,2.5303,2.5322,2.5409,2.3985,2.2328,2.0528,1.7319,0.0,0.0,0.0,0.0,0.0,0.0,0.0,0.0,0.0,0.0,0.0,0.0,0.0,0.0,0.0,0.0,0.0,0.0,0.0,0.0,0.0,0.0,0.0,0.0,0.0,0.0,0.0,0.0,0.0,0.0,0.0,0.0,0.0,0.0,0.0,0.0,0.0,0.0,0.0,0.0,0.0,0.0,0.0,0.0,0.0,0.0,0.0,0.0,0.0,0.0,0.0,0.0,0.0,0.0,0.0,0.0,0.0,0.0,0.0,0.0,0.0,0.0,0.0,0.0,0.0,0.0,0.0,0.0,0.0,0.0,0.0,0.0,0.0,0.0,0.0,0.0,0.0,0.0,0.0,0.0,0.0,0.0,0.0,0.0,0.0,0.0,0.0,0.0,0.0,0.0,0.0,0.0,0.0,0.0,0.0,0.0,0.0,0.0,0.0,0.0,0.0,0.0,2.0419,2.3197,0.0,2.5303,2.5322,2.539,2.4356,2.2546,1.9826,0.0,0.0,0.0,0.0,0.0,0.0,0.0,0.0,0.0,0.0,0.0,0.0,0.0,0.0,0.0,0.0,0.0,0.0,0.0,0.0,0.0,0.0,0.0,0.0,0.0,0.0,0.0,0.0,0.0,0.0,0.0,0.0,0.0,0.0,0.0,0.0,0.0,0.0,0.0,0.0,0.0,0.0,0.0,0.0,0.0,0.0,0.0,0.0,0.0,0.0,0.0,0.0,0.0,0.0,0.0,0.0,0.0,0.0,0.0,0.0,0.0,0.0,0.0,0.0,0.0,0.0,0.0,0.0,0.0,0.0,0.0,0.0,0.0,0.0,0.0,0.0,0.0,0.0,0.0,0.0,0.0,0.0,0.0,0.0,0.0,0.0,0.0,0.0,0.0,0.0,0.0,0.0,0.0,0.0,0.0,0.0,0.0,0.0,0.0,0.0,0.0,0.0,1.7269,2.0553,2.337,0.0,2.5303,2.5322,2.537,2.412,2.2142,1.9314,0.0,0.0,0.0,0.0,0.0,0.0,0.0,0.0,0.0,0.0,0.0,0.0,0.0,0.0,0.0,0.0,0.0,0.0,0.0,0.0,0.0,0.0,0.0,0.0,0.0,0.0,0.0,0.0,0.0,0.0,0.0,0.0,0.0,0.0,0.0,0.0,0.0,0.0,0.0,0.0,0.0,0.0,0.0,0.0,0.0,0.0,0.0,0.0,0.0,0.0,0.0,0.0,0.0,0.0,0.0,0.0,0.0,0.0,0.0,0.0,0.0,0.0,0.0,0.0,0.0,0.0,0.0,0.0,0.0,0.0,0.0,0.0,0.0,0.0,0.0,0.0,0.0,0.0,0.0,0.0,0.0,0.0,0.0,0.0,0.0,0.0,0.0,0.0,0.0,0.0,0.0,0.0,0.0,0.0,0.0,0.0,0.0,0.0,0.0,0.0,0.0,0.0,1.7498,2.2067,2.5284,2.5303,2.5303,2.5303,2.5303,2.2966,2.0792,0.0,0.0,0.0,0.0,0.0,0.0,0.0,0.0,0.0,0.0,0.0,0.0,0.0,0.0,0.0,0.0,0.0,0.0,0.0,0.0,0.0,0.0,0.0,0.0,0.0,0.0,0.0,0.0,0.0,0.0,0.0,0.0,0.0,0.0,0.0,0.0,0.0,0.0,0.0,0.0,0.0,0.0,0.0,0.0,0.0,0.0,0.0,0.0,0.0,0.0,0.0,0.0,0.0,0.0,0.0,0.0,0.0,0.0,0.0,0.0,0.0,0.0,0.0,0.0,0.0,0.0,0.0,0.0,0.0,0.0,0.0,0.0,0.0,0.0,0.0,0.0,0.0,0.0,0.0,0.0,0.0,0.0,0.0,0.0,0.0,0.0,0.0,0.0,0.0,0.0,0.0,0.0,0.0,0.0,0.0,0.0,0.0,0.0,0.0,0.0,0.0,0.0,0.0,1.7422,2.1569,2.4678,2.5245,2.5303,2.5303,2.5303,2.3524,2.1177,1.8273,0.0,0.0,0.0,0.0,0.0,0.0,0.0,0.0,0.0,0.0,0.0,0.0,0.0,0.0,0.0,0.0,0.0,0.0,0.0,0.0,0.0,0.0,0.0,0.0,0.0,0.0,0.0,0.0,0.0,0.0,0.0,0.0,0.0,0.0,0.0,0.0,0.0,0.0,0.0,0.0,0.0,0.0,0.0,0.0,0.0,0.0,0.0,0.0,0.0,0.0,0.0,0.0,0.0,0.0,0.0,0.0,0.0,0.0,0.0,0.0,0.0,0.0,0.0,0.0,0.0,0.0,0.0,0.0,0.0,0.0,0.0,0.0,0.0,0.0,0.0,0.0,0.0,0.0,0.0,0.0,0.0,0.0,0.0,0.0,0.0,0.0,0.0,0.0,0.0,0.0,0.0,0.0,0.0,0.0,0.0,0.0,0.0,0.0,0.0,0.0,0.0,0.0,1.7384,2.1367,2.4409,2.5207,2.5303,2.5303,2.5303,2.3755,2.1493,1.8414,0.0,0.0,0.0,0.0,0.0,0.0,0.0,0.0,0.0,0.0,0.0,0.0,0.0,0.0,0.0,0.0,0.0,0.0,0.0,0.0,0.0,0.0,0.0,0.0,0.0,0.0,0.0,0.0,0.0,0.0,0.0,0.0,0.0,0.0,0.0,0.0,0.0,0.0,0.0,0.0,0.0,0.0,0.0,0.0,0.0,0.0,0.0,0.0,0.0,0.0,0.0,0.0,0.0,0.0,0.0,0.0,0.0,0.0,0.0,0.0,0.0,0.0,0.0,0.0,0.0,0.0,0.0,0.0,0.0,0.0,0.0,0.0,0.0,0.0,0.0,0.0,0.0,0.0,0.0,0.0,0.0,0.0,0.0,0.0,0.0,0.0,0.0,0.0,0.0,0.0,0.0,0.0,0.0,0.0,0.0,0.0,0.0,0.0,0.0,0.0,0.0,0.0,1.7479,2.1348,2.4312,2.5207,2.5303,2.5303,2.5303,2.3755,2.1763,1.928,0.0,0.0,0.0,0.0,0.0,0.0,0.0,0.0,0.0,0.0,0.0,0.0,0.0,0.0,0.0,0.0,0.0,0.0,0.0,0.0,0.0,0.0,0.0,0.0,0.0,0.0,0.0,0.0,0.0,0.0,0.0,0.0,0.0,0.0,0.0,0.0,0.0,0.0,0.0,0.0,0.0,0.0,0.0,0.0,0.0,0.0,0.0,0.0,0.0,0.0,0.0,0.0,0.0,0.0,0.0,0.0,0.0,0.0,0.0,0.0,1.791,0.0,0.0,0.0,0.0,0.0,0.0,0.0,0.0,0.0,0.0,0.0,0.0,0.0,0.0,0.0,0.0,0.0,0.0,0.0,0.0,0.0,0.0,0.0,0.0,0.0,0.0,0.0,0.0,0.0,0.0,0.0,0.0,0.0,0.0,0.0,0.0,0.0,0.0,0.0,0.0,0.0,1.8165,2.1157,2.3639,2.513,2.5303,2.5303,2.5303,2.3755,2.2004,2.0139,1.7631,0.0,0.0,0.0,0.0,0.0,0.0,0.0,0.0,0.0,0.0,0.0,0.0,0.0,0.0,0.0,0.0,0.0,0.0,0.0,0.0,0.0,0.0,0.0,0.0,0.0,0.0,0.0,0.0,0.0,0.0,0.0,0.0,0.0,0.0,0.0,0.0,0.0,0.0,0.0,0.0,0.0,0.0,0.0,0.0,0.0,0.0,0.0,0.0,0.0,0.0,0.0,0.0,0.0,0.0,0.0,0.0,0.0,0.0,0.0,0.0,1.996,0.0,0.0,0.0,0.0,0.0,0.0,0.0,0.0,0.0,0.0,0.0,0.0,0.0,0.0,0.0,0.0,0.0,0.0,0.0,0.0,0.0,0.0,0.0,0.0,0.0,0.0,0.0,0.0,0.0,0.0,0.0,0.0,0.0,0.0,0.0,0.0,0.0,0.0,0.0,0.0,1.8422,2.1464,2.3908,2.5168,2.5303,2.5303,2.5303,2.4139,2.2697,2.0985,1.8874,0.0,0.0,0.0,0.0,0.0,0.0,0.0,0.0,0.0,0.0,0.0,0.0,0.0,0.0,0.0,0.0,0.0,0.0,0.0,0.0,0.0,0.0,0.0,0.0,0.0,0.0,0.0,0.0,0.0,0.0,0.0,0.0,0.0,0.0,0.0,0.0,0.0,0.0,0.0,0.0,0.0,0.0,0.0,0.0,0.0,0.0,0.0,0.0,0.0,0.0,0.0,0.0,0.0,2.4881,2.5352,2.6588,2.586,2.6397,2.7793,2.5616,2.4745,2.4727,2.2969,0.0,0.0,0.0,0.0,0.0,0.0,0.0,0.0,0.0,0.0,0.0,0.0,0.0,0.0,0.0,0.0,0.0,0.0,0.0,0.0,0.0,0.0,0.0,0.0,2.1665,2.1502,1.847,0.0,0.0,0.0,0.0,0.0,0.0,0.0,0.0,0.0,0.0,0.0,1.8887,2.2039,2.4409,2.5207,2.5303,2.5303,2.5303,2.4562,2.3417,2.1831,2.0153,1.8186,0.0,0.0,0.0,0.0,0.0,0.0,0.0,0.0,0.0,0.0,0.0,0.0,0.0,0.0,0.0,0.0,0.0,0.0,0.0,0.0,0.0,0.0,0.0,0.0,0.0,0.0,0.0,0.0,0.0,0.0,0.0,0.0,1.668,1.8418,0.0,0.0,0.0,0.0,0.0,0.0,0.0,0.0,0.0,0.0,0.0,0.0,0.0,2.4587,2.6033,2.7727,2.8671,2.8923,3.033,3.0721,3.0213,3.0097,3.0586,3.1504,3.1151,0.0,2.6523,2.4785,0.0,0.0,0.0,0.0,0.0,0.0,0.0,0.0,0.0,0.0,0.0,0.0,0.0,0.0,0.0,0.0,0.0,0.0,0.0,0.0,0.0,0.0,2.4332,2.3735,2.4226,2.4505,0.0,2.0892,1.8567,1.7415,1.6533,0.0,0.0,0.0,0.0,0.0,0.0,0.0,2.0486,2.2718,2.4409,2.5207,2.5303,2.5303,2.5303,2.4562,2.3687,2.2677,2.1054,1.9319,1.7547,1.5855,0.0,0.0,0.0,0.0,0.0,0.0,0.0,0.0,0.0,0.0,0.0,0.0,0.0,0.0,0.0,0.0,0.0,0.0,0.0,0.0,0.0,0.0,0.0,0.0,0.0,0.0,0.0,0.0,0.0,1.6289,1.8809,2.0547,2.043,1.9824,0.0,0.0,0.0,0.0,0.0,0.0,0.0,0.0,0.0,2.5885,2.7312,2.8642,2.9861,3.0679,3.1289,3.1738,3.2519,3.2676,3.2305,3.2305,3.2519,3.2871,3.2871,3.2012,3.043,2.8223,2.6543,2.5117,0.0,0.0,0.0,0.0,2.2712,2.288,2.421,2.3805,2.2631,2.2126,0.0,0.0,0.0,0.0,0.0,0.0,0.0,0.0,0.0,0.0,2.4639,2.4755,2.5043,2.5187,2.4851,2.363,2.2036,0.0,1.9495,1.8356,1.5651,0.0,0.0,0.0,0.0,2.0194,2.1736,2.3591,2.4909,2.5264,2.5303,2.5303,2.5303,2.4986,2.4409,2.359,2.237,2.0957,1.9273,1.7607,1.5741,0.0,0.0,0.0,0.0,0.0,0.0,0.0,0.0,0.0,0.0,0.0,0.0,0.0,0.0,0.0,0.0,0.0,0.0,0.0,0.0,0.0,0.0,0.0,0.0,0.0,0.0,0.0,0.0,1.8516,2.0937,2.2676,2.3066,2.2754,0.0,0.0,0.0,0.0,0.0,0.0,2.4647,2.6961,2.8549,2.9193,3.0728,3.1953,3.2832,3.2832,3.3242,3.4062,3.4062,3.4062,3.4062,3.4062,3.4062,3.4062,3.4062,3.3945,3.3555,3.1211,2.9492,2.8164,2.6406,2.6094,2.6581,2.6325,2.6216,2.6369,2.761,2.7227,2.6073,2.5427,2.4225,2.2771,2.1455,0.0,0.0,0.0,0.0,2.3447,2.4745,2.5072,2.5168,2.5543,2.563,2.5572,2.5341,2.5303,2.4668,0.0,2.2177,2.1227,1.827,0.0,0.0,0.0,0.0,2.2001,2.2812,2.4312,2.5303,2.5303,2.5303,2.5303,2.5303,2.5303,2.4966,2.4149,2.3283,2.2139,2.0677,1.9016,1.7332,1.5638,0.0,0.0,0.0,0.0,0.0,0.0,0.0,0.0,0.0,0.0,0.0,0.0,0.0,0.0,0.0,0.0,0.0,0.0,0.0,0.0,0.0,0.0,0.0,0.0,0.0,0.0,0.0,0.0,0.0,2.5312,2.623,0.0,0.0,0.0,0.0,2.5371,2.6919,2.829,2.9218,3.0957,3.1953,3.1991,3.2832,3.3691,3.457,3.457,3.5019,3.5879,3.5879,3.5879,3.5879,3.5879,3.5879,3.5879,3.5879,3.5391,3.4492,3.2773,3.2012,3.1777,3.0019,2.9355,2.9297,2.8476,2.8126,2.8092,2.8169,2.814,2.8058,2.801,2.7381,2.6592,2.6378,2.631,0.0,0.0,2.6909,2.7601,2.7678,2.7698,2.7505,2.6717,2.6524,2.6313,2.5476,2.5303,2.5043,0.0,2.3975,2.3371,2.1484,0.0,2.1139,2.0888,2.1823,2.2832,2.3651,2.4647,2.5303,2.5303,2.5303,2.5303,2.5303,2.5303,2.4966,2.4149,2.3283,2.2389,2.1485,1.9896,1.8221,1.6474,1.4758,0.0,0.0,0.0,0.0,0.0,0.0,0.0,0.0,0.0,0.0,0.0,0.0,0.0,0.0,0.0,0.0,0.0,0.0,0.0,0.0,0.0,0.0,0.0,0.0,0.0,0.0,0.0,0.0,2.7871,2.8476,0.0,2.8594,2.8848,2.9023,2.9043,3.0126,3.0925,3.1269,3.2891,3.3809,3.3809,3.4629,3.5215,3.5527,3.5547,3.5684,3.5996,3.5996,3.5996,3.5996,3.5996,3.5996,3.5996,3.5996,3.582,3.5488,3.4883,3.3984,3.291,3.2285,3.2051,3.1992,3.1641,3.1152,3.0637,3.0599,2.987,2.8868,2.826,2.7856,2.7585,2.7495,2.7475,2.7465,2.7448,2.7659,2.789,2.789,2.789,2.7813,2.7505,2.7448,2.7198,2.6332,2.614,2.589,2.5043,2.487,2.4322,2.2603,2.3199,2.3525,2.2374,2.3419,2.4437,2.4734,2.5071,2.5303,2.5303,2.5303,2.5303,2.5303,2.5303,2.4966,2.4149,2.3283,2.2408,2.1543,2.0458,1.9047,1.731,1.6176,1.436,0.0,0.0,0.0,0.0,0.0,0.0,0.0,0.0,0.0,0.0,0.0,0.0,0.0,0.0,0.0,0.0,0.0,0.0,0.0,0.0,0.0,0.0,0.0,0.0,0.0,0.0,2.7129,2.9726,3.0547,3.0996,3.1309,3.1582,3.1875,3.2168,3.2715,3.3301,3.3887,3.4961,3.5703,3.6016,3.6582,3.6875,3.6875,3.6875,3.6738,3.6445,3.6445,3.6289,3.5996,3.5996,3.5996,3.5996,3.5996,3.5996,3.5996,3.5996,3.5312,3.4257,3.3949,3.3819,3.3774,3.3453,3.294,3.2393,3.2097,3.1278,3.0197,2.9221,2.8904,2.8898,2.8832,2.8794,2.8775,2.8775,2.8756,2.8736,2.8736,2.8736,2.8679,2.8371,2.8294,2.8063,2.7217,2.6813,2.6428,2.5851,2.5495,2.4937,2.3832,2.4562,2.4918,2.3812,2.4601,2.5303,2.5303,2.5303,2.5303,2.5303,2.5303,2.5303,2.5303,2.5063,2.4678,2.4129,2.3004,2.1985,2.1139,2.0292,1.9042,1.733,1.6221,1.453,1.2271,0.0,0.0,0.0,0.0,0.0,0.0,0.0,0.0,0.0,0.0,0.0,0.0,0.0,0.0,0.0,0.0,0.0,0.0,0.0,0.0,0.0,0.0,0.0,2.4551,2.7519,3.0019,3.0918,3.2441,3.3164,3.2422,3.3066,3.3887,3.4766,3.4824,3.5566,3.7246,3.7344,3.7734,3.8574,3.8594,3.8594,3.8594,3.8594,3.8184,3.7344,3.7344,3.6875,3.6035,3.6035,3.6035,3.5996,3.5996,3.5996,3.5996,3.5996,3.5996,3.5916,3.5059,3.4705,3.4558,3.3766,3.3418,3.3242,3.248,3.2246,3.207,3.1094,3.0769,3.0733,3.0664,3.0575,3.0487,3.0506,3.0448,3.0398,3.0398,3.0398,3.0198,2.9333,2.914,2.8909,2.8102,2.7274,2.6659,2.6621,2.5928,2.5322,2.5303,2.5303,2.5303,2.5303,2.5303,0.0,2.5303,2.5303,2.5303,2.5303,2.5303,2.5303,2.5303,2.4582,2.4129,2.4052,2.2466,2.1177,2.0331,1.9492,1.8241,1.6561,1.4883,1.3207,1.1521,0.0,0.0,0.0,0.0,0.0,0.0,0.0,0.0,0.0,0.0,0.0,0.0,0.0,0.0,0.0,0.0,0.0,0.0,0.0,0.0,0.0,2.6484,2.8164,2.8164,3.0078,3.2031,3.3476,3.4062,3.4746,3.5801,3.6094,3.6582,3.7461,3.7539,3.7734,3.8223,3.8242,3.8359,3.8594,3.8594,3.8594,3.8594,3.8594,3.8476,3.8242,3.8242,3.7793,3.6934,3.6934,3.6601,3.5996,3.5996,3.5996,3.5996,3.5996,3.5996,3.5976,3.574,3.564,3.5578,3.5375,3.4859,3.4199,3.3359,3.3066,3.3027,3.2695,3.216,3.1633,3.1553,3.1045,3.0501,3.0502,3.0448,3.0398,3.0398,3.0398,3.034,3.0102,3.0044,2.9813,2.8948,2.8582,2.8044,2.6832,2.6409,2.6043,2.5399,2.5303,2.5303,2.5303,2.5303,0.0,2.5303,2.5303,2.5303,2.5303,2.5303,2.5303,2.5303,2.5101,2.4447,2.3216,2.2716,2.1793,2.0369,2.0081,1.9138,1.7388,1.5728,1.4626,0.0,0.0,0.0,0.0,0.0,0.0,0.0,0.0,0.0,0.0,0.0,0.0,0.0,0.0,0.0,0.0,0.0,0.0,0.0,0.0,0.0,0.0,2.9492,3.1328,3.1699,3.2617,3.373,3.5098,3.5566,3.6191,3.7207,3.7637,3.8047,3.8555,3.8594,3.8769,3.9121,3.9141,3.9316,3.9687,3.9687,3.9687,3.9687,3.9687,3.9512,3.9141,3.9141,3.8691,3.7832,3.7832,3.7363,3.6543,3.6543,3.6348,3.5996,3.5996,3.5996,0.0,0.0,0.0,0.0,0.0,3.5659,3.5117,3.4258,3.3945,3.3887,3.3476,3.3008,3.2577,3.2533,3.2136,3.1596,3.1234,3.1056,3.0902,3.0544,3.0417,3.0398,3.0398,3.0398,3.0275,2.9756,2.9352,2.8813,2.7832,2.7082,0.0,2.5928,2.5534,2.5303,2.5303,2.5303,2.5303,2.5303,2.5303,2.5303,2.5303,2.5303,2.5303,2.5303,2.4986,0.0,0.0,0.0,2.1504,1.9812,1.9408,0.0,0.0,0.0,0.0,0.0,0.0,0.0,0.0,1.4247,1.471,0.0,0.0,0.0,0.0,0.0,0.0,0.0,0.0,0.0,0.0,0.0,0.0,0.0,0.0,0.0,0.0,3.2148,3.4023,3.5,3.5137,3.5391,3.6074,3.6914,3.748,3.7578,3.8281,3.8789,3.8887,3.8887,3.9238,4.0019,0.0,0.0,0.0,0.0,4.1191,4.1191,4.1191,4.0801,4.0059,4.0059,3.959,3.875,3.875,3.8262,3.7441,3.7441,3.6953,3.6152,3.6152,3.6094,3.5996,3.5996,3.5957,3.5915,3.5911,3.5949,3.5898,3.5117,0.0,0.0,3.3945,3.3633,3.3555,3.3555,3.3437,3.3138,3.2363,3.1987,3.1634,3.0864,3.0544,3.0417,3.0417,3.0417,3.0417,3.0398,2.9794,2.9217,2.9121,2.7832,2.6717,2.6621,2.589,2.5303,2.5303,2.5303,2.5303,2.5303,2.5303,2.5303,2.5303,0.0,0.0,2.5303,2.4639,2.4206,2.411,2.2562,2.0985,1.9492,1.8684,1.8234,1.8119,1.8119,1.8119,1.8119,1.8895,1.9331,1.9362,1.692,1.7023,0.0,0.0,0.0,0.0,0.0,0.0,0.0,0.0,0.0,0.0,0.0,0.0,0.0,0.0,0.0,3.3184,3.4726,3.6055,3.7617,3.7851,3.7656,3.7109,3.7812,3.8613,3.9336,3.9551,3.9941,4.0644,4.0703,4.0762,4.0937,4.0957,4.1035,4.1191,4.1191,4.1191,4.1191,4.1191,4.1113,4.0957,0.0,0.0,3.9648,3.9648,3.918,3.8359,3.8359,3.7851,3.7051,3.7051,3.6621,3.5996,3.5996,3.5996,3.5976,3.5984,3.5989,3.5976,3.5801,3.5742,3.5723,3.5547,3.5019,3.4453,3.4453,3.3906,0.0,3.3094,3.2469,3.1833,3.1675,3.1095,3.0564,3.0564,3.0564,3.0544,3.0487,3.0352,3.0006,2.9236,2.8313,2.7428,2.6717,2.589,2.5303,2.5303,2.5303,2.5303,2.5303,2.5303,2.5303,2.5303,2.5303,2.5303,2.5303,2.5159,2.4793,2.4149,2.3129,2.2389,2.209,2.1889,2.1485,2.0773,2.0773,2.0773,2.0773,2.0927,2.1389,2.2023,2.0177,1.9927,0.0,0.0,0.0,0.0,0.0,0.0,0.0,0.0,0.0,0.0,0.0,2.7948,2.9674,0.0,3.3476,3.5644,3.6738,3.7617,3.8476,3.8984,3.8926,3.8047,3.8711,3.9414,3.9863,4.0293,4.0723,4.1172,4.1191,4.1191,4.1191,4.1191,4.1191,4.1191,4.1191,4.1191,4.1191,4.1191,4.1191,4.1191,4.1191,4.0976,4.0547,4.0547,4.0078,3.9258,3.9258,3.8769,3.7949,3.7949,3.7441,3.6641,3.6641,3.6387,3.5996,3.5996,3.5996,3.5996,3.5996,3.5996,3.5996,3.5996,3.5703,3.5351,3.5351,3.5019,3.4473,3.3594,3.2982,3.2404,3.1524,3.0948,3.0595,3.0595,3.0595,3.0595,3.0557,3.0548,3.041,2.9929,2.9206,2.8494,2.7986,2.6842,2.5842,2.537,2.5303,2.5303,2.5303,2.5303,2.5303,2.5303,2.5303,2.5303,2.5303,2.5303,2.4966,2.4149,2.3687,2.3263,2.2812,2.2793,2.2601,2.2158,2.2158,2.2158,2.2158,2.2158,2.2601,2.3437,2.2581,2.2408,0.0,0.0,0.0,0.0,0.0,0.0,0.0,0.0,2.6053,2.7766,2.991,3.1984,3.3646,3.5131,3.6477,3.7571,3.8358,3.8867,3.9043,3.9687,3.9883,3.9199,3.9726,4.0156,4.0156,4.0781,4.1191,4.1191,4.1191,4.1191,4.1191,4.1191,4.1191,4.1191,4.1191,4.1191,4.1191,4.1191,4.1191,4.1191,4.1191,4.1191,4.1191,4.1191,4.082,4.0137,3.9961,3.9492,3.8848,3.8672,3.8184,3.7539,3.7363,3.6875,3.623,3.6055,3.5996,3.5996,3.5996,3.5996,3.5996,3.5996,3.5996,3.5996,3.5996,3.5996,3.5703,3.4297,3.373,3.3203,3.1621,3.1075,3.0862,3.0706,3.0667,3.0648,3.0628,3.0618,3.0617,3.0606,2.9957,2.9368,2.9264,2.7981,2.6641,2.5697,2.5399,2.5303,2.5303,2.5303,2.5303,2.5303,2.5303,2.5303,2.5303,2.5303,2.5024,2.4379,2.4341,2.4024,2.3312,2.3293,2.3293,2.3293,2.3293,2.3293,2.3293,2.3293,2.3639,2.4341,2.4341,2.4341,2.2543,2.2524,2.3062,2.5332,2.5313,2.5937,0.0,0.0,3.1364,3.3171,3.434,3.5347,3.6376,3.6726,3.7423,3.9071,3.9468,3.9844,4.0625,4.0918,4.1016,4.0918,4.0996,4.1055,4.1055,4.1133,4.1191,4.1191,4.1191,4.1191,4.1191,4.1191,4.1191,4.1191,4.1191,4.1191,4.1191,4.1191,4.1191,4.1191,4.1191,4.1191,4.1191,4.1191,4.1152,4.1016,4.0234,3.9844,3.9687,3.8926,3.8535,3.8379,3.7598,3.7246,3.7051,3.6289,3.5996,3.5996,3.5996,3.5996,3.5996,3.5996,3.5996,3.5996,3.5996,3.5996,3.5957,3.5762,3.5156,3.4316,3.3359,3.2558,3.1835,3.1053,3.0878,3.0839,3.0701,3.0699,3.0665,3.0606,2.9946,2.9396,2.9383,2.8586,2.7593,2.6601,2.5813,2.5303,2.5303,2.5303,2.5303,2.5303,2.5303,2.5303,2.5303,2.5303,2.5264,2.5168,2.5178,2.5111,2.5014,2.5014,2.5014,2.5014,2.5014,2.5014,2.5014,2.5014,2.5072,2.5178,2.5178,2.5178,2.6033,2.6467,2.6967,0.0,2.966,3.041,3.3064,3.3795,3.4257,3.5482,3.681,3.7906,3.8325,3.8807,3.9405,0.0,4.0324,4.0462,4.0833,4.052,4.027,4.027,3.9821,3.9925,4.0982,4.1081,4.1054,4.0974,4.1047,4.1074,4.1074,4.1152,4.1191,4.1191,4.1191,4.1191,4.1191,4.1191,4.1191,4.1191,4.1191,4.1191,4.1191,4.1191,4.1191,4.1172,4.0801,4.0664,4.0625,4.0254,3.9805,3.9316,3.8965,3.8184,3.7187,3.6328,3.5996,3.5996,3.5996,3.5996,3.5996,3.5996,3.5996,3.5996,3.5996,3.5996,3.5898,3.5391,3.498,3.4492,3.3633,3.2793,3.2109,3.1738,3.1269,3.0879,3.082,3.082,3.082,3.0784,3.0506,3.0258,3.0169,2.9464,2.8752,2.8299,2.7015,2.5919,2.537,2.5303,2.5303,2.5303,2.5303,2.5303,2.5303,2.5303,2.5303,2.5303,2.5303,2.5303,2.5303,2.5303,2.5303,2.5303,2.5303,2.5303,2.5303,2.5303,2.5303,2.5303,2.5303,2.5303,2.8222,2.9275,0.0,3.1968,3.3179,3.418,3.5045,3.5911,3.6719,3.7315,3.8604,3.9657,3.9734,4.0235,4.0658,4.0716,4.0754,4.0766,4.077,4.0102,3.9596,3.9604,3.8838,3.8888,4.04,4.0581,4.0679,4.078,4.089,4.0941,4.0945,4.1043,4.1082,4.1082,4.1082,4.1082,4.1082,4.1131,4.1133,4.1152,4.1172,4.1205,4.1202,4.1163,4.1121,4.1082,4.1082,4.1108,4.1133,4.1133,4.0781,4.0234,3.998,3.9121,3.7871,3.6777,3.6211,3.5996,3.5996,3.5996,3.5996,3.5996,3.5996,3.5996,3.5996,3.5996,3.5879,3.5234,3.5059,3.4863,3.3984,3.332,3.2773,3.2305,3.1719,3.1191,3.0957,3.0898,3.0898,3.0898,3.0898,3.0876,3.0771,3.0275,2.9784,2.9465,2.8103,2.6776,2.5823,2.5505,2.537,2.537,2.537,2.537,2.537,2.5341,2.5341,2.5341,2.5322,2.5303,2.5322,2.5303,2.5303,2.5303,2.5303,2.5303,2.5303,2.5303,2.5303,2.5303,2.5303,2.5303,0.0,0.0,3.2025,3.3699,3.5353,3.6815,3.77,3.8565,3.9215,3.9292,3.9927,4.0504,4.0639,4.0581,4.0508,4.0508,4.062,4.0696,4.0693,4.0072,3.9601,3.9585,3.8819,3.8598,3.9364,3.9565,3.9969,4.0731,4.0804,4.0804,4.0821,4.0809,4.0809,4.0809,4.0809,4.0809,4.0809,4.094,4.1016,4.1016,4.1133,4.1198,4.1204,4.1069,4.0938,4.0809,4.0809,4.0881,4.1016,4.1016,4.1074,4.1074,4.0234,3.9863,3.9609,3.7891,3.6738,3.5996,3.5996,3.5996,3.5996,3.5996,3.5996,3.5996,3.5996,3.5996,3.5996,3.5976,3.5957,3.5762,3.4883,3.4648,3.4219,3.2598,3.2187,3.1934,3.1074,3.0898,3.0898,3.0898,3.0898,3.0898,3.0898,3.0879,3.0542,2.9631,2.8734,2.7817,2.6872,2.6025,2.5486,2.5486,2.5486,2.5486,2.5486,2.5428,2.5428,2.5486,2.537,2.5322,2.539,2.5322,2.5303,2.5303,2.5303,2.5303,2.5303,2.5303,2.5303,2.5303,2.5303,2.5303,3.0725,0.0,3.4622,3.6295,3.7584,3.8642,3.9469,3.9892,3.995,3.9446,3.9542,3.9354,3.8257,3.8469,3.8834,3.8834,3.9354,3.9965,4.0504,3.9888,3.9403,3.9398,3.8633,0.0,3.9253,0.0,0.0,4.0543,4.0677,4.0737,4.0733,4.0784,4.0804,4.0804,4.0804,4.0804,4.0804,4.0834,4.0866,4.0866,4.0905,4.0928,4.0925,4.0891,4.0848,4.0804,4.0804,4.0827,4.0869,4.0955,4.1035,4.1055,4.084,4.041,3.9824,3.9238,3.8476,3.7559,3.6406,3.5996,3.5996,3.5996,3.5996,3.5996,3.5996,3.5996,3.5996,3.5996,3.5996,3.5937,3.5644,3.5137,3.4414,3.3262,3.2598,3.1953,3.1094,3.0898,3.0898,3.0898,3.0898,3.0898,3.0898,3.0895,3.0606,2.9692,2.8262,2.6948,2.6042,2.5687,2.5493,2.5493,2.5493,2.5493,2.5493,2.5473,2.5476,2.5495,2.5461,2.5437,2.5476,2.5447,2.5428,2.5428,2.5428,2.5409,2.537,2.537,2.5341,2.5303,2.5303,2.5303,3.2724,3.4622,3.6353,3.8046,3.9104,3.9854,4.0373,4.0277,3.9835,3.9008,3.8354,3.7603,3.6488,3.6219,3.6584,3.7796,3.82,3.8873,4.0296,3.9796,3.9296,3.9296,3.8815,3.8681,0.0,0.0,0.0,4.045,4.0581,4.0773,4.1066,4.1123,4.1312,4.162,4.162,4.162,4.162,4.1351,4.1079,4.0809,4.0809,4.0789,4.0759,4.0761,4.0735,4.0696,4.0696,4.0716,4.0781,4.0863,4.0948,4.0996,4.1043,4.0773,4.0312,3.9961,3.9285,3.8326,3.695,3.6465,3.6406,3.6094,3.5996,3.5996,3.5996,3.5996,3.5996,3.5996,3.5996,3.5996,3.5996,3.5586,3.4941,3.4062,3.3223,3.2402,3.1543,3.1113,3.0898,3.0898,3.0898,3.0898,3.0898,3.0898,3.0605,2.9726,2.8563,2.7365,2.6191,2.5762,2.5567,2.5567,2.5567,2.5567,2.5567,2.5548,2.5559,2.5564,2.5526,2.5512,2.5525,2.5515,2.5495,2.5495,2.5495,2.5476,2.5437,2.5428,2.5409,2.537,2.5341,2.5341,3.3871,3.5641,3.7353,3.895,3.9969,4.0527,4.045,3.9796,3.8935,3.7973,3.6459,3.5306,3.5185,0.0,3.3955,3.7276,3.7219,3.7642,4.0142,3.9873,3.9431,0.0,0.0,0.0,0.0,0.0,0.0,4.0623,0.0,4.095,4.1816,4.1873,4.2258,4.3066,4.3104,4.3104,4.3104,4.2367,4.1597,4.085,4.0812,4.0754,4.0696,4.0696,4.062,4.0489,4.0489,4.0581,4.0696,4.0696,4.0811,4.0973,4.0844,4.0955,4.1053,4.0116,3.9201,3.8349,3.762,3.7284,3.7089,3.6269,3.5996,3.5996,3.5996,3.5996,3.5996,3.5996,3.5996,3.5996,3.5996,3.5996,3.5781,3.4902,3.4023,3.3184,3.2363,3.1523,3.0898,3.0898,3.0898,3.0898,3.0898,3.0898,3.0625,2.9785,2.9629,2.8965,2.7226,2.6289,2.5742,2.5703,2.5703,2.5703,2.5703,2.5644,2.5625,2.5703,2.557,2.5545,2.5605,2.5531,2.5503,2.5503,2.5503,2.5503,2.5503,2.5519,2.5495,2.5505,2.5418,2.539,3.6551,3.8738,4.045,4.0239,4.0835,4.1091,3.9635,3.8661,3.7403,3.5129,3.3838,3.2578,3.0825,3.1694,0.0,3.4897,3.6584,0.0,4.0219,4.0873,0.0,4.1162,0.0,4.2124,4.2124,4.2316,0.0,0.0,4.1835,4.1854,4.272,4.2777,4.2874,4.3085,4.3104,4.3104,4.3104,4.2258,4.1739,4.1546,4.0893,4.0581,4.0562,4.0562,4.0543,4.0489,4.0489,4.0508,4.0562,4.0658,4.0737,4.0784,4.0799,4.0849,4.0873,4.0609,4.0006,3.9168,3.8346,3.7183,3.6094,3.5973,3.5937,3.5937,3.5976,3.5996,3.5996,3.5996,3.5996,3.5996,3.5996,3.5996,3.5781,3.4902,3.4023,3.3184,3.2363,3.1523,3.0898,3.0898,3.0898,3.0898,3.0898,3.0898,3.082,3.0605,3.0019,2.8965,2.7226,2.6816,2.6426,2.5762,2.5703,2.5703,2.5703,2.5684,2.5684,2.5703,2.5662,2.5661,2.5664,2.5662,2.5658,2.5658,2.5658,2.5619,2.556,2.5568,2.5547,2.5492,2.5427,2.5401,3.8708,4.0562,4.1912,4.105,4.0844,4.0272,3.8118,3.6672,3.4943,3.197,3.0705,0.0,2.7548,2.8624,0.0,0.0,0.0,0.0,3.9623,4.1027,4.1797,0.0,4.2874,0.0,4.3124,4.3412,4.3624,0.0,4.2854,4.2739,4.3585,4.3624,4.3797,4.4182,4.4201,4.4008,4.3624,4.3143,4.2527,4.1797,4.1296,4.0873,4.0489,4.0489,4.0489,4.0489,0.0,4.0489,4.0508,4.0581,4.0658,4.0693,4.0687,4.0726,4.0804,4.0764,3.9993,3.8926,3.844,3.7107,3.564,3.5762,3.5848,3.5898,3.5862,3.5899,3.5942,3.588,3.5874,3.5879,3.5937,3.5957,3.584,3.5371,3.4609,3.373,3.291,3.2051,3.1367,3.0976,3.0898,3.0898,3.0898,3.0898,3.0898,3.0898,3.0488,2.9687,2.832,2.7461,2.6816,2.6328,2.5937,2.5703,2.5703,2.5703,2.5703,2.5703,2.5703,2.5703,2.5703,2.5703,2.5703,2.5703,2.5703,2.5684,2.5644,2.5644,2.5621,2.5595,2.5519,2.5485,4.0226,4.1552,4.2402,4.145,4.0501,3.9075,3.6394,3.4394,3.2184,2.8858,0.0,2.6363,2.512,2.5647,2.7453,3.1116,0.0,3.5391,3.8815,4.0739,4.1854,4.197,4.3451,4.4201,4.3508,4.4066,4.447,4.447,4.3835,4.3739,4.4432,4.447,4.4816,4.5566,4.5586,4.524,4.447,4.4239,4.347,4.2143,4.1797,4.1296,4.0662,4.0546,4.0489,4.0489,4.0489,4.0489,4.0489,4.0489,4.0581,4.0658,4.0562,4.062,4.0735,4.0581,3.9523,3.8157,3.8041,3.6906,3.5526,3.5661,3.5771,3.5843,3.5722,3.5776,3.5843,3.5726,3.5706,3.5723,3.5835,3.5896,3.5918,3.5976,3.5332,3.4492,3.373,3.2851,3.1934,3.1074,3.0898,3.0898,3.0898,3.0898,3.0898,3.0898,3.0898,3.0625,2.9863,2.8242,2.7129,2.7012,2.6211,2.5703,2.5703,2.5703,2.5703,2.5703,2.5703,2.5703,2.5703,2.5703,2.5703,2.5703,2.5703,2.5703,2.5703,2.5703,2.5703,2.5703,2.5625,2.5606,4.0507,4.194,4.2799,4.1269,4.0778,3.9614,3.551,3.2847,0.0,0.0,2.4783,2.3758,2.3766,2.5072,2.7361,3.1085,3.3103,3.5391,3.8815,4.0739,4.2066,0.0,0.0,0.0,0.0,0.0,0.0,0.0,4.524,4.522,4.5355,4.5355,4.5432,4.5586,4.5586,4.5528,4.5374,4.3989,4.3508,4.3835,4.172,4.1027,4.1546,4.0835,4.0489,4.0489,4.0489,0.0,4.0489,4.0489,4.0508,4.0543,4.0508,4.0508,4.0485,3.9777,3.8892,3.793,3.7199,3.6315,3.5526,3.5603,3.5624,3.5657,3.5687,3.5718,3.5732,3.5721,3.5695,3.5707,3.5717,3.5825,3.5898,3.5918,3.5293,3.4668,3.4512,3.3281,3.1934,3.1074,3.0898,3.0898,3.0898,3.0898,3.0898,3.0898,3.0898,3.0859,3.0684,2.9141,2.7793,2.707,2.6211,2.5703,2.5703,2.5703,2.5703,2.5703,2.5703,2.5703,2.5703,2.5703,2.5703,2.5703,2.5703,2.5703,2.5703,2.5703,2.5703,2.5703,2.5625,2.5604,4.1098,4.1919,4.2227,4.1413,3.9848,3.7489,3.366,0.0,0.0,0.0,2.2905,2.2216,2.1682,2.3693,0.0,2.8057,3.0544,3.343,3.6834,3.9161,0.0,4.2603,4.4308,4.5263,0.0,4.5096,4.514,4.5322,4.5342,4.5419,4.5586,4.5586,4.5586,4.5586,4.5586,4.5586,4.5586,4.4797,4.4162,4.3662,4.2431,4.1604,4.1104,4.0681,4.0489,4.0489,4.0489,4.0489,4.0489,4.0489,4.0489,4.0489,4.0489,4.0489,4.0392,3.9604,3.8738,3.7873,3.7007,3.618,3.5526,3.5545,3.5584,3.5592,3.5596,3.5616,3.5641,3.5622,3.5603,3.5603,3.5641,3.5697,3.5774,3.5875,3.5293,3.457,3.4121,3.3066,3.1934,3.1074,3.0898,3.0898,3.0898,3.0898,3.0898,3.0898,3.0898,3.0898,3.0898,2.9766,2.8633,2.7773,2.6894,2.6191,2.5742,2.5703,2.5703,2.5703,2.5703,2.5703,2.5703,2.5703,2.5703,2.5703,2.5703,2.5703,2.5703,2.5703,2.5703,2.5703,2.5664,2.5644,4.117,4.1558,4.1471,4.1285,3.8755,3.544,3.2137,2.8778,0.0,0.0,2.1509,2.1055,2.0376,0.0,2.4391,0.0,2.808,3.1179,3.4968,3.7617,3.9996,0.0,4.3983,0.0,4.465,4.458,0.0,4.4966,4.4988,4.5161,4.5586,4.5586,4.5586,4.5586,4.5586,4.5586,4.5586,4.5413,4.4662,4.3355,4.2989,4.2104,4.0758,4.0585,4.0489,4.0489,4.0489,4.0489,4.0489,4.0489,4.0489,4.0489,4.0489,4.0489,4.0392,3.9604,3.8738,3.7873,3.7007,3.618,3.5493,3.5493,3.5545,3.5584,3.5526,3.5545,3.5584,3.5526,3.5493,3.5526,3.5565,3.5603,3.5651,3.5845,3.543,3.4687,3.3633,3.2891,3.2148,3.1094,3.0898,3.0898,3.0898,3.0898,3.0898,3.0898,3.0898,3.0898,3.0898,3.0293,2.9531,2.8672,2.7637,2.6719,2.6035,2.5801,2.5703,2.5703,2.5703,2.5703,2.5703,2.5703,2.5703,2.5703,2.5703,2.5703,2.5703,2.5703,2.5703,2.5703,2.5703,2.5703,3.9878,4.062,4.0974,4.0239,3.815,3.544,3.2137,0.0,0.0,2.2317,2.059,1.9988,2.1511,2.1599,2.2754,2.674,2.7812,2.9852,3.4814,3.7381,3.97,4.2197,0.0,0.0,4.4606,4.458,0.0,4.4631,4.465,4.4919,4.5568,4.5586,4.5586,4.5586,4.5586,4.5586,4.5586,4.4797,4.4335,4.4162,4.2643,4.1835,4.1662,4.0854,4.0489,4.0489,4.0489,4.0489,0.0,4.0489,4.0489,4.0489,4.0489,4.0489,4.0392,3.9604,3.8738,3.7873,3.7007,3.618,3.5493,3.5493,3.5493,3.5526,3.5493,3.5493,3.5526,3.5493,3.5493,3.5493,3.5526,3.5565,3.5651,3.5845,3.5898,3.543,3.3769,3.334,3.2812,3.1211,3.0898,3.0898,3.0898,3.0898,3.0898,3.0898,3.0898,3.0898,3.0898,3.082,3.0449,2.957,2.7988,2.6973,2.6894,2.6152,2.5703,2.5703,2.5703,2.5703,2.5703,2.5703,2.5703,2.5703,2.5703,2.5703,2.5703,2.5703,2.5703,2.5703,2.5703,2.5703,3.8542,3.9423,3.9588,3.9258,3.6964,3.4064,3.1311,0.0,2.4116,2.2207,2.048,1.9715,2.102,2.1078,2.1877,2.4841,2.5375,2.6891,3.1052,3.3153,3.5664,3.9448,4.1174,0.0,0.0,0.0,4.4035,4.4204,4.4474,4.4726,4.4988,4.5201,4.54,4.5586,4.5586,4.5586,4.5586,4.5259,4.4816,4.4297,4.3124,4.2316,4.1777,4.0893,4.0489,4.0489,4.0489,4.0489,0.0,4.0489,4.0489,4.0489,4.0489,4.0489,4.0392,3.9604,3.8738,3.7873,3.7007,3.618,3.5493,3.5493,3.5493,3.5493,3.5493,3.5493,3.5493,3.5493,3.5493,3.5493,3.5493,3.5565,3.563,3.5703,3.5773,3.5498,3.4324,3.368,3.2988,3.1797,3.1191,3.0898,3.0898,3.0898,3.087,3.0801,3.0846,3.0857,3.0726,3.0753,3.0647,3.0292,2.9238,2.8359,2.7832,2.6973,2.6484,2.6484,2.5996,2.5703,2.5703,2.5703,2.5703,2.5703,2.5703,2.5703,2.5703,2.5703,2.5703,2.5703,2.5703,2.5703,3.6853,3.779,3.7961,3.7833,3.5334,3.2409,0.0,2.6739,2.3343,2.2061,2.048,1.9592,2.0541,2.0759,2.1424,2.3341,2.3904,2.5323,2.8823,3.054,3.294,0.0,0.0,4.0293,0.0,4.3075,4.3597,4.3818,4.4106,4.4308,4.4419,4.4638,4.4924,4.5283,4.5303,4.5303,4.5303,4.5303,4.4862,4.4001,4.354,4.2733,4.1639,4.1111,4.0739,4.0489,4.0489,4.0489,0.0,4.0489,4.0489,4.0489,4.0489,4.0489,4.0431,3.9854,3.895,3.7911,3.7296,3.6392,3.5493,3.5493,3.5493,3.5493,3.5493,3.5493,3.5493,3.5493,3.5493,3.5493,3.5493,3.5565,3.5605,3.5596,3.5641,3.5474,3.4669,3.4056,3.3317,3.2194,3.1552,3.1103,3.0868,3.081,3.0774,3.0684,3.0743,3.0763,3.0611,3.0636,3.0675,3.0665,3.0227,2.959,2.8769,2.7656,2.6992,2.6992,2.6172,2.5703,2.5703,2.5703,2.5703,2.5703,2.5703,2.5703,2.5703,2.5703,2.5703,2.5703,2.5703,2.5703,3.4587,3.5679,3.6197,3.576,3.3273,3.0686,2.9728,2.5865,2.2381,2.1916,2.048,1.9546,2.0354,2.0659,2.1347,2.302,2.414,2.597,2.9309,3.0958,0.0,0.0,0.0,3.8168,3.9772,4.2084,4.3479,4.3479,4.3532,0.0,4.3986,4.4016,4.4204,4.458,4.4606,4.4606,4.4606,4.4606,4.4165,4.3316,4.3646,4.2921,4.132,4.1641,4.1316,4.0489,4.0489,4.0489,0.0,4.0489,4.0489,4.0489,4.0489,4.0489,4.0489,4.0489,3.9431,3.8007,3.7988,3.6911,3.5493,3.5493,3.5493,3.5493,3.5493,3.5493,3.5493,3.5493,3.5493,3.5493,3.5493,3.5565,3.5603,3.5603,3.5641,3.5488,3.4672,3.4499,3.3966,3.2234,3.1882,3.1623,3.0742,3.0606,3.0606,3.06,3.0607,3.0597,3.0601,3.0598,3.0602,3.0595,3.0648,3.0391,2.9648,2.8008,2.6992,2.6992,2.6172,2.5703,2.5703,2.5703,2.5703,2.5703,2.5703,2.5703,2.5703,2.5703,2.5703,2.5703,2.5703,2.5703,3.0232,3.1601,3.2282,3.0898,2.9743,2.8533,2.6747,2.4356,2.2198,2.1129,2.0042,1.9546,2.0338,2.0089,2.0917,2.4386,2.475,2.5595,2.8455,0.0,0.0,3.507,3.9036,4.1791,0.0,0.0,4.3497,4.3497,4.3497,4.3548,4.3646,4.3646,4.3943,4.458,4.458,4.458,4.458,4.458,4.4448,4.4183,4.3699,4.2872,4.1836,4.1339,4.068,3.9884,4.012,4.0213,4.0232,4.0422,4.0489,4.0489,4.0489,4.0489,4.0489,4.0489,3.9815,3.8781,3.7986,3.6999,3.5933,3.5188,3.5088,3.5223,3.5223,3.5354,3.5493,3.5493,3.5493,3.5493,3.5493,3.5526,3.5545,3.5545,3.5565,3.5474,3.5243,3.4749,3.4186,3.3643,3.3128,3.2501,3.1642,3.1487,3.1274,3.0617,3.0563,3.0579,3.0472,3.0505,3.0525,3.0525,3.055,3.0508,3.0351,2.9375,2.8516,2.793,2.707,2.6328,2.5723,2.5703,2.5703,2.5703,2.5703,2.5703,2.5703,2.5703,2.5703,2.5703,2.5703,2.6016,2.7053,2.8576,2.9286,2.817,2.7242,2.6269,2.4926,2.2994,2.1251,2.0619,1.9858,1.9436,1.995,2.0052,2.0964,2.3766,2.421,2.5116,0.0,0.0,0.0,3.5715,0.0,0.0,0.0,4.313,4.3497,4.3497,4.3497,4.3497,4.3497,4.3497,4.3712,4.4184,4.4165,4.4165,4.4165,4.4165,4.4165,4.4165,4.3765,4.3144,4.2355,4.1638,4.0839,4.0052,3.9951,3.9901,0.0,4.0101,4.023,4.0339,4.0212,4.023,4.0319,4.0212,3.9641,3.8802,3.8118,3.711,3.6046,3.5358,3.5058,3.4944,3.4944,3.5207,3.5493,3.5493,3.5493,3.5493,3.5493,3.5493,3.5493,3.5493,3.5493,3.5493,3.5493,3.5109,3.4653,3.4326,3.3878,3.3192,3.203,3.1819,3.1499,3.0602,3.0506,3.0487,3.0398,3.0448,3.0467,3.0467,3.0487,3.053,3.0624,2.997,2.9336,2.8789,2.7939,2.721,2.666,2.6624,2.6601,2.6601,2.6601,2.6612,2.6641,2.668,2.668,2.668,2.668,2.6973,0.0,2.6201,2.6835,2.6807,2.5303,2.3807,2.3831,2.1673,0.0,2.0294,1.979,1.9295,1.9405,2.039,2.1385,2.199,2.3133,0.0,0.0,2.9549,0.0,0.0,3.9203,0.0,4.1203,4.2616,4.3497,4.3497,4.3497,4.3497,4.3497,4.3497,4.3497,4.3497,4.3497,4.3497,4.3497,4.3497,4.3497,4.3479,4.3836,4.3546,4.2753,4.2254,4.1556,0.0,3.991,3.9576,3.9576,3.9599,3.9775,4.0022,3.9731,3.9797,4.0022,3.9712,3.9086,3.8365,3.8286,3.7288,3.6029,3.5991,3.5445,3.4843,3.4807,3.5108,3.546,3.546,3.5493,3.5493,3.5493,3.5493,3.5493,3.5493,3.5493,3.5493,3.5493,3.5493,3.5257,3.4449,3.4295,3.3776,3.216,3.1833,3.1487,3.0609,3.0436,3.0398,3.0398,3.0398,3.0398,3.0398,3.0467,3.0487,3.0487,2.9932,2.9549,2.9491,2.8733,2.8249,2.8195,2.8128,2.8094,2.8094,2.8094,2.813,2.8183,2.8261,2.8281,2.8281,2.8281,2.832,2.0565,0.0,2.2167,2.1145,2.0935,2.0866,0.0,1.9886,1.9395,1.9345,0.0,1.9165,2.0516,2.0382,2.1161,2.4472,0.0,0.0,2.9337,0.0,0.0,4.0744,4.2047,4.2727,4.291,4.3277,4.3497,4.3497,4.3497,4.3497,4.3497,4.3497,4.3497,4.3497,4.3497,4.3497,4.3497,4.3497,4.3497,4.3497,4.3563,4.3207,4.2382,4.1649,4.088,4.0096,3.9471,3.9212,3.9238,3.9486,3.9645,3.9709,3.9622,3.9645,3.9709,3.9622,3.9467,3.9157,3.8297,3.7754,3.7318,3.6721,3.6379,3.6147,3.5741,3.542,3.519,3.519,3.5354,3.5493,3.5493,3.5493,3.5493,3.5493,3.5493,3.5493,3.5493,3.5493,3.5449,3.5238,3.5199,3.4853,3.3795,3.3064,3.2333,3.1525,3.0833,3.0398,3.0398,3.0398,3.0398,3.0398,3.0398,3.0417,3.0417,3.0375,3.0064,2.9392,2.9156,2.8769,2.8149,2.811,2.8095,2.8095,2.8095,2.8111,2.8126,2.8145,2.8145,2.8145,2.8145,2.8525,1.8521,1.9871,2.1063,2.0577,2.0517,2.051,2.0343,0.0,0.0,0.0,0.0,1.9442,2.053,2.1052,0.0,0.0,2.6471,0.0,0.0,0.0,3.9643,4.2506,4.303,4.3124,0.0,4.3124,4.3124,4.3124,4.3124,4.325,4.3497,4.325,4.325,4.3479,4.3497,4.3497,4.3497,4.3497,4.3497,4.3497,4.3497,4.3259,4.28,4.1644,4.0873,4.0377,3.9372,3.8923,3.8923,3.9127,3.9249,3.9358,3.9242,3.9249,3.9358,3.9223,3.9208,3.9107,3.8479,3.8035,3.7572,3.6767,3.6527,3.6443,3.6186,3.5702,3.5225,3.4984,3.5105,3.5304,3.5304,3.5417,3.5493,3.5493,3.5493,3.5493,3.5493,3.5493,3.5493,3.5493,3.5493,3.5218,3.4353,3.3814,3.3199,3.2372,3.1525,3.1006,3.1006,3.066,3.0398,3.0398,3.0398,3.0398,3.0398,3.0467,3.0312,2.989,2.9859,2.9661,2.9221,2.9171,2.9152,2.9152,2.919,2.9203,2.9212,2.9231,2.9251,2.9251,2.9251,2.9509,1.7859,1.9757,2.1661,2.1756,2.1481,2.1206,2.1267,0.0,0.0,0.0,0.0,0.0,0.0,2.2118,0.0,0.0,0.0,0.0,3.5948,3.8515,4.0726,4.31,4.2902,0.0,4.2559,4.2559,4.2559,4.2559,4.2559,4.277,4.3232,4.2808,4.277,4.3232,4.3232,4.3232,4.3232,4.341,4.3497,4.3497,4.3497,4.3424,4.3259,4.1791,4.1038,4.0836,0.0,0.0,3.8707,3.8707,3.8844,3.9027,3.8773,3.8844,3.9008,3.8773,3.8707,3.8707,3.8707,3.8248,3.7551,3.689,3.667,3.6633,3.6523,3.6177,3.5665,3.4952,3.4888,3.5053,3.5053,3.5207,3.5369,3.5369,3.5417,3.5432,3.5383,3.5446,3.5493,3.5446,3.546,3.5276,3.4526,3.4276,3.3949,3.3218,3.2391,3.1833,3.1718,3.1064,3.0552,3.0398,3.0398,3.0398,3.0398,3.0398,3.0417,3.0487,3.0487,3.0487,3.0487,3.0417,3.0398,3.0398,3.0467,3.0487,3.0487,3.0544,3.0564,3.0564,3.0564,3.0564,1.8375,2.0408,2.1739,1.9875,2.0314,2.1034,2.0382,0.0,0.0,0.0,0.0,0.0,0.0,2.332,2.4477,0.0,0.0,3.4438,0.0,0.0,4.031,4.2571,0.0,4.1937,4.1937,4.1937,4.1937,4.1937,4.1937,4.1979,4.2062,4.1979,4.1979,4.2062,4.2062,4.2062,4.2062,4.3032,4.3497,4.3497,4.3497,4.313,4.2451,4.1534,4.0744,4.0029,0.0,3.8707,3.8707,3.8707,3.8719,3.8762,3.8738,3.8719,3.8762,3.8738,3.8707,3.8707,3.8707,3.8615,3.8505,3.8377,3.834,3.8193,3.7514,3.7261,3.6895,3.5376,3.4848,3.4754,3.4754,3.4793,3.4813,3.4813,3.4999,3.5105,3.487,3.519,3.5432,3.5207,3.5335,3.5468,3.5334,3.468,3.4141,3.4007,3.3276,3.2468,3.1795,3.1583,3.1218,3.0475,3.0398,3.0398,3.0398,3.0398,3.0398,3.0398,3.0417,3.0417,3.0417,3.0398,3.0398,3.0398,3.0398,3.0417,3.0417,3.0417,3.0417,3.0417,3.0417,3.0467,1.7304,1.935,2.0923,2.0297,2.1576,2.2767,2.2023,0.0,0.0,0.0,0.0,0.0,0.0,0.0,2.74,3.1417,0.0,3.6284,3.8895,3.9696,4.0595,0.0,0.0,4.1313,4.1313,4.1313,4.1313,4.1313,4.1313,4.1446,4.1793,4.149,4.1446,4.181,4.181,4.181,4.181,4.2306,4.26,4.26,4.2168,4.1809,4.1412,4.0436,3.9829,3.9428,0.0,3.8707,3.8707,3.8707,3.8707,3.8707,3.8707,3.8707,3.8707,3.8707,3.8707,3.8707,3.8707,3.8707,3.8707,3.8707,3.8707,3.8634,3.8267,3.7826,3.7331,3.656,3.5762,3.5023,3.4555,3.4551,3.4694,3.4694,3.4793,3.4851,3.4733,3.4908,3.5016,3.4908,3.4981,3.507,3.507,3.4727,3.453,3.4661,3.3949,3.3322,3.3071,3.2256,3.1545,3.116,3.0679,3.0398,3.0398,3.0398,3.0398,3.0398,3.0398,3.0398,3.0398,3.0398,3.0398,3.0398,3.0398,3.0398,3.0398,3.0398,3.0398,3.0398,3.0398,3.0417,1.6783,1.8589,2.0221,2.1211,0.0,2.4222,2.4171,0.0,0.0,0.0,0.0,0.0,0.0,2.7883,0.0,3.4007,3.5891,3.753,3.9234,4.0052,4.0771,4.1507,4.1041,4.0685,4.0685,4.0685,4.0685,4.0685,4.0685,4.092,4.1375,4.0967,4.092,4.1375,4.142,4.142,4.142,4.142,4.1464,4.1527,4.0967,4.0488,4.0139,3.9315,3.8816,3.8654,3.8422,3.8401,3.8496,3.8496,3.8596,3.8707,3.8707,3.8707,3.8707,3.8707,3.8707,3.8707,3.8707,3.8707,3.8707,3.8707,3.8707,3.8707,3.8707,3.8267,3.7734,3.7562,3.6611,3.5491,3.4618,3.4456,3.4505,3.4505,3.4548,3.4569,3.4486,3.4612,3.4674,3.4612,3.4653,3.4694,3.4694,3.4694,3.4754,3.4981,3.4447,3.402,3.4006,3.2718,3.1755,3.1623,3.0829,3.0323,3.0379,3.0398,3.0398,3.0398,3.0398,3.0398,3.0398,3.0398,3.0398,3.0398,3.0398,3.0398,3.0398,3.0398,3.0398,3.0398,3.0398,3.0398,1.8149,1.9367,2.0356,2.1854,2.2868,0.0,2.5998,2.5896,0.0,2.8061,0.0,0.0,0.0,3.0952,3.3152,3.4329,3.6715,3.8772,3.9648,0.0,4.0349,4.0903,4.0497,4.0171,4.0171,4.0171,4.0171,4.0171,4.0171,4.0171,4.0204,4.0154,4.0171,4.0204,4.0204,4.0204,4.0204,4.0204,4.0422,4.079,4.0737,3.9957,3.8557,3.849,3.8028,3.7337,3.7321,3.7542,3.7946,3.7946,3.8267,3.8707,3.8707,3.8707,3.8707,3.8707,3.8707,3.8707,3.8707,3.8707,3.8707,3.8707,3.8707,3.8707,3.8707,3.867,3.8469,3.7698,3.6883,3.6019,3.5174,3.4412,3.3868,3.3868,3.4043,3.4171,3.3928,3.4284,3.4612,3.4311,3.4486,3.4694,3.4694,3.4694,3.4713,3.4733,3.4676,3.4337,3.3563,3.2694,3.1953,3.1394,3.0547,3.0136,3.0367,3.0398,3.0398,3.0398,3.0398,3.0398,3.0398,3.0398,3.0398,3.0398,3.0398,3.0398,3.0398,3.0398,3.0398,3.0398,3.0398,3.0398,1.6373,1.8403,2.0373,2.1921,2.3545,0.0,0.0,2.7215,2.8213,2.9989,3.0362,0.0,0.0,0.0,3.4389,3.5718,3.7177,3.8576,3.9819,4.0034,4.0171,4.0368,4.0204,4.007,4.007,4.007,4.007,4.007,4.007,4.007,4.007,4.007,4.007,4.007,4.007,4.007,4.007,4.007,3.9708,3.8946,3.8946,3.8422,3.7404,3.7224,3.7003,3.6724,3.7076,3.7285,3.747,3.747,3.7596,3.7756,3.7756,3.8135,3.8627,3.7982,3.8168,3.8658,3.83,3.8415,3.8707,3.8707,3.8707,3.8707,3.8707,3.8707,3.8634,3.8322,3.7312,3.6101,3.521,3.4412,3.3807,3.3807,3.3876,3.391,3.3815,3.3979,3.4111,3.3961,3.4062,3.4136,3.4136,3.4136,3.4208,3.4357,3.4379,3.4352,3.422,3.3467,3.2864,3.2637,3.1386,3.0606,3.0706,3.0247,2.9958,2.9958,3.0228,3.0398,3.0398,3.0398,3.0398,3.0398,3.0398,3.0398,3.0398,3.0398,3.0398,3.0398,3.0398,3.0398,1.591,1.8023,2.0277,2.2181,0.0,0.0,2.7791,2.8755,3.0023,3.2459,3.2577,0.0,0.0,0.0,0.0,0.0,3.7601,3.8684,3.9901,4.007,4.002,3.9782,3.9731,3.961,3.9401,3.9385,3.9454,3.9714,3.9731,3.9833,4.007,4.007,4.007,4.007,4.007,3.9969,3.9732,3.9732,3.9005,3.755,3.755,3.7161,3.64,3.6224,3.6139,3.6182,3.6522,3.6786,3.696,3.696,3.7076,3.719,3.719,3.7632,3.8135,3.7451,3.765,3.8168,3.7808,3.8032,3.8465,3.8465,3.8546,3.8707,3.8707,3.8707,3.8707,3.8707,3.7716,3.6468,3.5642,3.4614,3.3807,3.3807,3.3807,3.3807,3.3807,3.3807,3.3807,3.3807,3.3807,3.3807,3.3807,3.3807,3.385,3.4043,3.4074,3.4165,3.4394,3.3687,3.309,3.2912,3.1939,3.128,3.128,3.0544,3.0073,3.0073,3.0125,3.0215,3.0267,3.0355,3.0398,3.0398,3.0398,3.0398,3.0398,3.0398,3.0355,3.0286,3.0355,3.0355,1.7479,1.8585,2.0069,0.0,0.0,0.0,3.0514,3.0649,3.141,3.5859,0.0,3.4742,3.5459,0.0,0.0,3.6535,3.8024,3.9242,3.9969,4.007,3.9782,3.8962,3.8908,3.858,3.7863,3.7822,3.8092,3.8854,3.8908,3.9262,4.002,4.007,4.007,4.007,4.007,3.9715,3.8988,3.8988,3.8244,3.6772,3.6772,3.6366,3.5622,3.5622,3.5622,3.5622,3.5622,3.5898,3.6374,3.6374,3.6724,3.7173,3.719,3.7173,3.719,3.7173,3.7173,3.719,3.7173,3.7506,3.7893,3.7893,3.8267,3.8707,3.8707,3.8707,3.8707,3.8707,3.812,3.7294,3.6505,3.5055,3.3807,3.3807,3.3807,3.3807,3.3807,3.3807,3.3807,3.3807,3.3807,3.3807,3.3807,3.3807,3.3807,3.3807,3.3807,3.3807,3.3807,3.3109,3.2403,3.1879,3.1989,3.2109,3.2109,3.1374,3.0903,3.0884,3.0149,2.9799,2.9999,3.0254,3.0398,3.0398,3.0398,3.0398,3.0398,3.0398,3.0254,2.9999,3.0267,3.0254,1.6927,1.9192,0.0,2.3189,0.0,0.0,0.0,3.1884,0.0,0.0,3.6008,3.5975,3.5644,0.0,0.0,3.7499,3.792,3.8396,3.9163,3.8816,3.8374,3.8149,3.8149,3.8035,3.7822,3.7822,3.7863,3.8092,3.8149,3.8206,3.8486,3.8978,3.903,3.8531,3.9026,3.8954,3.8227,3.8227,3.7736,3.6772,3.6772,3.6366,3.5622,3.5622,3.5622,3.5622,3.5622,3.5694,3.5827,3.5827,3.6139,3.6603,3.6207,3.6522,3.7097,3.6357,3.6563,3.7152,3.6764,3.6981,3.7396,3.7396,3.7738,3.815,3.815,3.8382,3.8707,3.8707,3.812,3.7294,3.6505,3.5477,3.4504,3.3935,3.3807,3.3807,3.3807,3.3807,3.3807,3.3807,3.3807,3.3807,3.3807,3.3807,3.3807,3.3807,3.3807,3.3807,3.3807,3.3587,3.3374,3.322,3.2742,3.244,3.244,3.1705,3.1001,3.0428,3.0362,3.0171,2.9799,2.9864,2.9896,2.9896,2.9896,2.9896,2.9896,2.9896,2.9864,2.978,2.9864,2.9943,1.8194,2.0666,0.0,2.4919,2.7421,2.9976,3.1854,0.0,0.0,0.0,0.0,3.6198,3.6052,3.6547,0.0,3.7349,3.7609,3.7942,3.8404,3.8092,3.769,3.7381,3.7338,3.7219,3.689,3.689,3.6886,3.6943,3.6927,3.6975,3.6974,3.7442,3.7465,3.7004,3.7477,3.7519,3.7015,3.7015,3.6807,3.6315,3.6315,3.6079,3.5622,3.5622,3.5622,3.5622,3.5622,3.5622,3.5622,3.5622,3.5783,3.6054,3.5739,3.6011,3.6481,3.5854,3.6011,3.6522,3.6165,3.6457,3.6882,3.6882,3.721,3.7614,3.7614,3.7861,3.8083,3.8083,3.7889,3.7471,3.6687,3.6003,3.5238,3.4082,3.3807,3.3807,3.3807,3.3807,3.3807,3.3807,3.3807,3.3807,3.3807,3.3807,3.3807,3.3807,3.3807,3.3807,3.3807,3.3807,3.3807,3.3807,3.3366,3.3091,3.3091,3.2339,3.1678,3.1182,3.0706,3.0275,2.9902,2.9776,2.9696,2.9696,2.9696,2.9696,2.9696,2.9696,2.9661,2.9589,2.9661,2.9731,2.0406,0.0,0.0,2.7147,2.9065,0.0,3.299,3.504,3.6394,3.6394,0.0,3.5776,3.6469,3.6175,3.6015,3.6678,3.7333,3.769,3.769,3.7648,3.7338,3.6554,3.6492,3.6197,3.5464,3.5415,3.5419,3.5382,3.538,3.5455,3.56,3.5678,3.5646,3.5582,3.5636,3.5619,3.5481,3.5531,3.5462,3.5424,3.547,3.5515,3.5515,3.5577,3.5622,3.5622,3.5622,3.5622,3.5622,3.5622,3.5622,3.5622,3.5622,3.5622,3.5622,3.5622,3.5622,3.5622,3.5622,3.5941,3.635,3.635,3.6684,3.7152,3.7152,3.7135,3.719,3.719,3.7506,3.7644,3.6836,3.6404,3.5776,3.4229,3.3817,3.3807,3.3807,3.3807,3.3807,3.3807,3.3762,3.3734,3.3734,3.3734,3.3762,3.3788,3.3807,3.3807,3.3807,3.3807,3.3807,3.3807,3.3807,3.3807,3.3807,3.3128,3.2687,3.2614,3.1237,3.0356,3.021,2.9846,2.9643,2.9643,2.9643,2.9643,2.9643,2.9643,2.9551,2.9372,2.9551,2.9551,1.9951,2.1919,0.0,0.0,2.9248,3.1569,3.2591,3.3505,3.4195,3.4195,3.4961,3.5658,3.5798,3.6669,3.7364,3.7566,3.7168,3.6859,3.6859,3.6352,3.591,3.5797,3.5718,3.5458,3.4741,3.4696,3.4475,3.3969,3.3924,3.397,3.3999,3.4616,3.4638,3.3989,3.4594,3.4631,3.4078,3.4062,3.4048,3.4053,3.4544,3.4847,3.483,3.5362,3.5622,3.5622,3.5622,3.5622,3.5622,3.5622,3.5622,3.5622,3.5622,3.5622,3.5622,3.5622,3.5622,3.5622,3.5622,3.5667,3.5783,3.5783,3.6139,3.6563,3.6563,3.6882,3.719,3.719,3.7285,3.7127,3.6291,3.5616,3.4965,3.4339,3.3978,3.3807,3.3807,3.3807,3.3807,3.3807,3.355,3.3332,3.3332,3.3332,3.3437,3.3734,3.3807,3.3807,3.3807,3.3807,3.3807,3.3807,3.3807,3.3807,3.3807,3.3642,3.3275,3.2651,3.2284,3.1531,3.0246,2.9517,2.916,2.916,2.916,2.916,2.916,2.916,2.9115,2.9089,2.9138,2.9246,2.0179,0.0,0.0,2.7989,0.0,3.128,3.1911,3.2322,3.2551,3.2551,3.3617,3.4607,3.4607,3.5243,3.5729,3.5729,3.5369,3.5141,3.5141,3.4753,3.4547,3.4547,3.4547,3.4397,3.4038,3.4008,3.3724,3.308,3.3021,3.2886,3.2572,3.294,3.3005,3.2566,3.2931,3.3131,3.3093,3.3145,3.3287,3.3582,3.3937,3.4137,3.4137,3.5161,3.5622,3.5622,3.5622,3.5622,3.5622,3.5622,3.5622,3.5622,3.5622,3.5622,3.5622,3.5622,3.5622,3.5622,3.5622,3.5622,3.5622,3.5622,3.5783,3.6028,3.6028,3.6207,3.644,3.644,3.6603,3.6698,3.6239,3.5729,3.5297,3.5116,3.4096,3.3225,3.3447,3.3332,3.3196,3.3196,3.2996,3.284,3.284,3.284,3.2952,3.3166,3.3196,3.3196,3.3196,3.3196,3.3196,3.3196,3.339,3.3522,3.3522,3.368,3.3623,3.3201,3.2816,3.2228,3.1384,3.0577,2.9787,2.9012,2.8994,2.8994,2.8994,2.8994,2.8994,2.8994,2.8994,2.9067,1.9993,0.0,2.6324,2.9273,3.0266,0.0,3.1225,3.1392,3.1482,3.1482,3.2482,3.332,3.332,3.3425,3.3499,3.3499,3.3499,3.3499,3.3499,3.3499,3.3499,3.3499,3.3499,3.344,3.3335,3.332,3.3051,3.2392,3.2347,3.2108,3.1497,3.1482,3.1482,3.1482,3.1482,3.1796,3.2382,3.2437,3.268,3.3235,3.3391,3.3495,3.3649,3.4752,3.5316,3.5407,3.556,3.5622,3.5622,3.5622,3.5622,3.5622,3.5622,3.5622,3.5622,3.5622,3.5622,3.5622,3.5622,3.5622,3.5622,3.5622,3.5622,3.5622,3.5622,3.5622,3.5622,3.5622,3.5941,3.6266,3.6266,3.5971,3.5671,3.5746,3.4198,3.2788,3.3167,3.2941,3.2643,3.2502,3.2451,3.2384,3.2384,3.2384,3.2417,3.2484,3.2484,3.2484,3.2484,3.2484,3.2484,3.2484,3.2858,3.3075,3.3075,3.339,3.3606,3.3707,3.3058,3.2664,3.2588,3.1953,3.0925,2.9457,2.9292,2.9122,2.8994,2.8994,2.8994,2.8994,2.8994,2.8994,0.0,0.0,2.5434,0.0,2.9229,3.0522,0.0,0.0,3.1482,0.0,3.2123,3.2647,3.2647,3.311,3.3499,3.3499,3.3499,3.3499,3.3499,3.3499,3.3499,3.3499,3.3499,3.3275,3.2706,3.2647,3.2377,3.1661,3.1601,3.1571,3.1482,3.1482,3.1482,3.1482,3.1482,3.1539,3.164,3.164,3.1682,3.1796,3.2422,3.3039,3.3582,3.3786,3.4186,3.4783,3.5362,3.5622,3.5622,3.5622,3.5622,3.5622,3.5622,3.5622,3.5622,3.5622,3.5622,3.5622,3.5622,3.5622,3.5622,3.5622,3.5622,3.5622,3.5622,3.5622,3.5622,3.5622,3.5667,3.5694,3.5694,3.5222,3.4797,3.5192,3.4266,3.3311,3.3512,3.3509,3.3262,3.2608,3.2161,3.188,3.188,3.188,3.2022,3.2451,3.2484,3.2484,3.2484,3.2484,3.2484,3.2484,3.255,3.2583,3.2583,3.2648,3.284,3.3243,3.3183,3.2964,3.2606,3.2504,3.2008,3.1091,3.0393,2.9714,2.8994,2.8994,2.8994,2.8994,2.8994,2.8994,1.9427,2.1939,2.4359,0.0,2.8459,2.9039,2.9662,0.0,3.0221,3.0136,3.0362,3.0672,3.1187,3.1886,3.2199,3.1808,3.2079,3.2392,3.2392,3.2392,3.2392,3.2392,3.2392,3.2273,3.1988,3.1958,3.1839,3.1497,3.1482,3.1482,3.1482,3.1482,3.1482,3.1482,3.1482,3.1482,3.1482,3.1482,3.1482,3.1524,3.1853,3.216,3.2461,3.2826,3.3391,3.4037,3.435,3.4496,3.4496,3.4496,3.4496,3.4496,3.4496,3.4496,3.4496,3.4894,3.5052,3.5098,3.547,3.5622,3.5622,3.5622,3.5622,3.5622,3.5622,3.5622,3.5622,3.5622,3.5622,3.5622,3.5622,3.5368,3.5159,3.536,3.5035,3.455,3.4186,3.3766,3.3287,3.2527,3.1912,3.147,3.147,3.147,3.1545,3.175,3.175,3.175,3.175,3.175,3.175,3.175,3.1968,3.2092,3.2092,3.235,3.2583,3.2777,3.2809,3.2729,3.2571,3.2553,3.2175,3.1366,3.0597,3.0026,2.9677,2.9237,2.8994,2.8994,2.8994,2.8994,0.0,0.0,2.2582,2.6174,2.7111,2.7378,0.0,0.0,2.8898,0.0,2.8907,2.8948,2.9538,3.0329,3.0718,3.0329,3.0777,3.1278,3.1467,3.1482,3.1482,3.1482,3.1482,3.1482,3.1482,3.1482,3.1482,3.1482,3.1482,3.1482,3.1482,3.1482,3.1482,3.1482,3.1482,3.1482,3.1482,3.1482,3.1482,3.1482,3.1482,3.1482,3.1524,3.2064,3.2571,3.3077,3.3427,3.3582,3.3582,3.3582,3.3582,3.3582,3.3582,3.3582,3.3633,3.4186,3.4333,3.4431,3.4911,3.5207,3.5316,3.5161,3.5316,3.5577,3.5407,3.547,3.5622,3.5622,3.5622,3.5622,3.5622,3.5622,3.5622,3.5622,3.5622,3.5419,3.4658,3.3914,3.3186,3.2425,3.185,3.141,3.1224,3.119,3.119,3.119,3.119,3.119,3.119,3.119,3.119,3.119,3.147,3.166,3.166,3.1986,3.2213,3.2316,3.2316,3.2384,3.2484,3.2484,3.2201,3.1618,3.0854,3.0352,3.0045,2.9442,2.9106,2.8994,2.8994,2.8994,0.0,1.839,0.0,2.2686,2.4622,0.0,0.0,0.0,2.7893,2.9058,2.8707,2.814,2.7879,2.8556,2.938,3.0147,3.0329,3.0644,3.1409,3.1482,3.1482,3.1482,3.1482,3.1482,3.1482,3.1482,3.1482,3.1482,3.1482,3.1482,3.1482,3.1482,3.1482,3.1482,3.1482,3.1482,3.1482,3.1482,3.1482,3.1482,3.1482,3.1482,3.1482,3.1539,3.1582,3.1682,3.3024,3.3582,3.3582,3.3582,3.3582,3.3582,3.3582,3.3582,3.3582,3.3633,3.3633,3.3633,3.3684,3.4137,3.4528,3.3887,3.4544,3.547,3.483,3.5098,3.5622,3.5622,3.5622,3.5622,3.5622,3.5622,3.5622,3.5622,3.5622,3.5419,3.4658,3.3914,3.3186,3.2425,3.2297,3.2002,3.1309,3.119,3.119,3.119,3.119,3.119,3.119,3.119,3.119,3.119,3.123,3.123,3.123,3.1252,3.1411,3.1825,3.1861,3.2039,3.2484,3.2484,3.2466,3.2464,3.165,3.0731,2.962,2.9584,2.937,2.8994,2.8994,2.8994,0.0,0.0,0.0,2.1492,2.293,2.403,2.5243,2.5735,2.6092,2.6385,2.6219,2.596,2.5858,2.7544,2.8939,2.8684,2.9129,2.9566,2.9827,2.9889,3.0072,3.0644,3.0718,3.0896,3.1467,3.1482,3.1482,3.1482,3.1482,3.1482,3.1482,3.1482,3.1482,3.1482,3.1482,3.1482,3.1482,3.1482,3.1482,3.1482,3.1482,3.1482,3.1482,3.1482,3.1482,3.1524,3.2048,3.2256,3.2256,3.2256,3.2256,3.2256,3.2256,3.2256,3.2312,3.2772,3.2933,3.3039,3.3443,3.3735,3.3937,3.3684,3.3937,3.4301,3.4037,3.4447,3.4941,3.4941,3.5253,3.5622,3.5622,3.5622,3.5622,3.5622,3.5622,3.5537,3.5267,3.4641,3.4032,3.3744,3.3322,3.2763,3.2019,3.1901,3.1732,3.1258,3.119,3.119,3.119,3.119,3.119,3.119,3.119,3.119,3.119,3.119,3.1252,3.1411,3.1411,3.1487,3.1657,3.1657,3.1657,3.1657,3.1382,3.1063,3.0688,2.9703,2.9137,2.899,2.8724,2.8615,1.4833,0.0,0.0,0.0,0.0,2.1575,2.3603,0.0,2.3864,2.4509,2.4429,2.4381,2.4757,2.6335,2.7531,2.7471,2.8048,2.8684,2.8939,2.9002,2.9192,2.9766,2.9889,3.0072,3.0584,3.0896,3.1087,3.1087,3.1351,0.0,3.1482,3.1482,3.1482,3.1482,3.1482,3.1482,3.1482,3.1482,3.1482,3.1482,3.1482,3.1482,3.1482,3.1482,3.1482,3.1482,3.1482,3.1482,3.1482,3.1482,3.1482,3.1482,3.1482,3.1482,3.1582,3.2064,3.2216,3.2272,3.2718,3.3077,3.3235,3.2971,3.3219,3.3531,3.3339,3.3735,3.4284,3.4284,3.4592,3.4911,3.4911,3.4911,3.5005,3.5207,3.5253,3.5316,3.556,3.5233,3.4793,3.4539,3.41,3.3541,3.278,3.2662,3.2493,3.2002,3.1715,3.1562,3.1562,3.1343,3.119,3.119,3.119,3.119,3.119,3.119,3.119,3.119,3.119,3.119,3.119,3.119,3.119,3.119,3.119,3.121,3.1255,3.0079,2.9343,2.8983,2.8727,2.8586,0.0,0.0,0.0,0.0,0.0,0.0,2.2566,0.0,2.124,2.3617,2.3537,2.3315,2.4506,2.4745,2.5191,2.6579,2.7236,2.7933,2.8757,2.8884,2.8898,2.8911,2.8911,2.8975,2.9002,2.9766,3.0269,3.0269,3.1029,3.1467,3.1467,3.1467,3.1467,3.1467,3.1467,3.1467,3.1467,3.1467,3.1467,3.1409,3.1467,3.1467,3.1467,3.1482,3.1482,3.1482,3.1482,3.1482,3.1482,3.1482,3.1482,3.1482,3.1482,3.1482,3.1482,3.1482,3.1482,3.1482,3.1482,3.1951,3.2437,3.1739,3.2407,3.3443,3.2734,3.3039,3.3582,3.3582,3.3582,3.3582,3.3582,3.3582,3.3786,3.4431,3.4576,3.4736,3.5424,3.5577,3.5357,3.4675,3.4523,3.4303,3.3558,3.344,3.344,3.3406,3.278,3.2307,3.2313,3.1664,3.1207,3.119,3.119,3.119,3.119,3.119,3.119,3.119,3.119,3.119,3.119,3.119,3.119,3.119,3.119,3.119,3.119,3.081,3.0054,2.9041,2.9006,2.9036,1.3334,0.0,0.0,0.0,0.0,0.0,0.0,0.0,1.9816,2.1412,2.1172,2.1066,2.2196,2.3062,2.3714,2.4086,2.5001,2.5703,2.5949,2.5936,2.6335,2.737,2.7488,2.7904,2.8898,2.9192,2.938,0.0,3.0133,3.0644,3.0644,3.0644,3.0644,3.0644,3.0644,3.0644,3.0644,3.0644,3.0329,2.969,3.0329,3.0644,3.0644,3.1219,3.1482,3.1482,3.1482,3.1482,3.1482,3.1482,3.1482,3.1482,3.1482,3.1482,3.1482,3.1482,3.1482,3.1482,3.1482,3.164,3.1796,3.1582,3.1781,3.2048,3.1838,3.2327,3.2895,3.2895,3.3251,3.3582,3.3582,3.3582,3.3633,3.3836,3.3887,3.4087,3.4736,3.4894,3.4985,3.5245,3.5318,3.5064,3.432,3.4201,3.4015,3.3491,3.3237,3.2899,3.2381,3.2104,3.1782,3.1258,3.119,3.119,3.119,3.119,3.119,3.119,3.119,3.119,3.119,3.119,3.119,3.119,3.119,3.119,3.119,3.0544,3.0097,2.9778,2.9487,2.9537,0.0,0.0,0.0,0.0,0.0,0.0,1.9222,1.8857,1.8549,0.0,1.9879,1.9748,2.0627,2.1506,2.2184,2.241,2.3201,2.4017,2.472,2.482,2.5114,2.5936,2.6026,2.6348,2.7163,2.7786,2.8125,2.8125,2.9115,2.9766,2.9766,2.9766,2.9766,2.9766,2.9766,2.9766,2.9766,2.9766,2.9504,2.9002,2.9504,2.9766,2.9766,3.0644,3.1029,3.1029,3.1351,3.1482,3.1482,3.1482,3.1482,3.1482,3.1482,3.1482,3.1482,3.1482,3.1482,3.1482,3.1482,3.1482,3.1482,3.1482,3.1482,3.1482,3.1482,3.1796,3.212,3.212,3.2407,3.2718,3.2718,3.2718,3.2826,3.3093,3.3198,3.3391,3.4037,3.4186,3.4431,3.5424,3.5622,3.547,3.503,3.4962,3.481,3.4387,3.4066,3.3694,3.3254,3.2703,3.2121,3.1698,3.1376,3.119,3.119,3.119,3.119,3.119,3.119,3.119,3.119,3.119,3.119,3.119,3.119,3.119,3.119,3.0768,3.0395,3.0091,2.9858,2.9868,1.5831,1.6261,0.0,0.0,1.7302,0.0,1.9531,1.8522,1.7472,0.0,1.893,1.8769,1.9409,2.0012,2.0577,2.1129,2.1732,2.2723,2.4393,2.4632,2.4657,2.472,2.4732,2.4757,2.4808,2.5936,2.6658,2.6658,2.794,2.8697,2.8766,2.8779,2.8807,2.8862,2.8876,2.8876,2.8876,2.8876,2.8812,2.8748,2.8812,2.8876,2.8876,2.9766,3.0147,3.0208,3.1029,3.1351,3.1351,3.1467,3.1482,3.1482,3.1482,3.1482,3.1482,3.1482,3.1482,3.1482,3.1482,3.1482,3.1482,3.1482,3.1482,3.1482,3.1482,3.1482,3.1482,3.1482,3.1482,3.1482,3.1482,3.1482,3.1697,3.2327,3.2492,3.268,3.3339,3.3495,3.3836,3.5115,3.5424,3.547,3.547,3.547,3.547,3.5379,3.4807,3.4381,3.4314,3.3152,3.2277,3.2208,3.1618,3.1196,3.119,3.119,3.119,3.119,3.119,3.119,3.119,3.119,3.119,3.119,3.119,3.119,3.119,3.119,3.0869,3.0226,3.0226,3.0226,1.5729,1.65,1.7543,1.6814,0.0,0.0,1.6893,1.6982,1.7232,0.0,1.6071,1.6132,1.7589,1.8304,1.8869,1.9422,2.0338,2.1568,2.3226,2.3403,2.364,2.4104,2.4167,2.4343,2.4782,2.5037,2.5217,2.5217,2.6109,2.685,2.7267,2.7293,2.7506,2.7907,2.792,2.792,2.792,2.792,2.7604,2.6973,2.767,2.792,2.7986,2.8876,2.9254,2.9317,3.0147,3.0524,3.0584,3.1219,3.1482,3.1482,3.1482,3.1482,3.1482,3.1482,3.1482,3.1482,3.1482,3.1482,3.1482,3.1482,3.1482,3.1482,3.1482,3.1482,3.1482,3.1482,3.1482,3.1482,3.1482,3.1482,3.1539,3.1682,3.1682,3.1894,3.2641,3.2803,3.3039,3.3836,3.4447,3.48,3.48,3.48,3.4592,3.4087,3.3874,3.3582,3.2983,3.266,3.2187,3.1539,3.1394,3.1249,3.1202,3.119,3.119,3.119,3.119,3.119,3.119,3.119,3.119,3.119,3.119,3.119,3.119,3.119,3.1123,3.0987,3.0987,3.0987,1.6978,1.752,1.8385,1.8043,0.0,0.0,0.0,1.7274,1.6901,1.6944,1.6061,1.5718,1.7124,1.7375,1.7639,1.848,1.9309,2.0225,2.1317,2.1958,2.2422,2.2711,2.2749,2.2962,2.3514,2.3828,2.4217,2.4782,2.518,2.5537,2.582,2.609,2.6361,2.6644,2.694,2.7095,2.7095,2.7095,2.6905,2.6533,2.6905,2.7095,2.7095,2.7986,2.8363,2.8427,2.9254,2.9628,2.969,3.0072,3.0269,3.0329,3.1161,3.1482,3.1482,3.1482,3.1482,3.1482,3.1482,3.1482,3.1482,3.1482,3.1482,3.1482,3.1482,3.1482,3.1482,3.1482,3.1482,3.1482,3.1482,3.1482,3.1482,3.1482,3.1482,3.1582,3.1951,3.2064,3.2272,3.2986,3.3391,3.3684,3.4037,3.4087,3.3987,3.3633,3.3582,3.347,3.3118,3.2732,3.2351,3.1916,3.1251,3.0863,3.0826,3.0507,3.0435,3.074,3.0477,3.0559,3.119,3.0918,3.0878,3.119,3.119,3.119,3.119,3.119,3.119,3.119,3.119,3.119,0.0,0.0,0.0,0.0,0.0,1.875,0.0,0.0,0.0,1.7463,1.6491,0.0,0.0,0.0,0.0,0.0,0.0,0.0,0.0,2.0049,0.0,2.1129,2.1267,2.1506,2.1945,2.2297,2.3012,2.4243,2.4142,2.4205,2.4644,2.5159,2.5485,2.5598,2.6163,2.6533,2.6533,2.6533,2.6533,2.6533,2.6533,2.6533,2.6521,2.7162,2.7484,2.755,2.8363,2.8748,2.8748,2.8939,2.9002,2.9129,3.0644,3.1161,3.1087,3.1409,3.1409,3.1278,3.1467,3.1482,3.1482,3.1482,3.1482,3.1482,3.1482,3.1482,3.1482,3.1482,3.1482,3.1482,3.1482,3.1482,3.1482,3.1482,3.1482,3.1482,3.1482,3.1482,3.1697,3.2272,3.2382,3.2586,3.3287,3.3391,3.3391,3.3235,3.3182,3.3182,3.3182,3.2708,3.2313,3.2273,3.1291,3.0545,3.0432,2.9888,2.973,3.0081,2.9673,2.9892,3.0975,3.0658,3.0699,3.119,3.119,3.119,3.119,3.119,3.119,3.119,3.119,3.119,0.0,0.0,0.0,0.0,1.8933,0.0,0.0,0.0,1.7686,1.5696,0.0,0.0,0.0,0.0,0.0,0.0,0.0,0.0,1.6961,1.7451,1.838,1.9823,2.0451,2.0832,2.0907,2.0439,2.0853,2.2472,2.1694,2.2008,2.3991,2.4607,2.5121,2.5573,2.6163,2.6533,2.6533,2.6533,2.6533,2.6533,2.6533,2.6533,2.6533,2.6589,2.6658,2.6658,2.7484,2.7855,2.792,2.8684,2.9002,2.9129,3.0072,2.995,2.9442,3.097,3.1029,3.0524,3.1219,3.1482,3.1482,3.1482,3.1482,3.1482,3.1482,3.1482,3.1482,3.1482,3.1482,3.1482,3.1482,3.1482,3.1482,3.1482,3.1482,3.1482,3.1482,3.1482,3.1524,3.1582,3.164,3.1853,3.2586,3.2695,3.2477,3.1853,3.1739,3.1739,3.1739,3.1679,3.1602,3.1526,3.1362,3.1045,3.0464,3.0336,3.0062,2.9544,2.9451,2.9717,3.0377,3.0838,3.1151,3.119,3.119,3.119,3.119,3.119,3.119,3.119,3.119,3.119,0.0,0.0,0.0,0.0,0.0,0.0,1.6762,0.0,1.7136,0.0,0.0,0.0,0.0,0.0,0.0,0.0,1.5831,0.0,0.0,0.0,1.666,0.0,0.0,0.0,1.9648,1.9773,2.01,2.0803,2.0426,2.0865,2.246,2.3364,2.4243,2.5121,2.5674,2.6126,2.6533,2.6533,2.6533,2.6533,2.6533,2.6533,2.6533,2.6533,2.6533,2.6521,2.685,2.6973,2.704,2.7417,2.7537,2.7604,2.8492,2.8876,2.9066,2.9766,2.9827,2.9566,2.995,3.0072,3.0072,3.0072,3.0389,3.0777,3.0777,3.0777,3.0896,3.1351,3.1482,3.1482,3.1482,3.1482,3.1482,3.1482,3.1482,3.1482,3.1482,3.1482,3.1482,3.1482,3.1482,3.1582,3.191,3.1951,3.1853,3.1539,3.1482,3.1482,3.1482,3.1482,3.1462,3.1485,3.1091,3.0769,3.0468,2.9781,2.936,2.9437,2.9402,2.9361,2.9271,3.0166,3.0699,3.0699,3.0699,3.0838,3.119,3.0838,3.0878,3.119,3.119,3.119,1.7494,0.0,0.0,0.0,0.0,0.0,0.0,0.0,0.0,0.0,0.0,0.0,0.0,0.0,0.0,0.0,0.0,1.5255,0.0,1.4777,0.0,0.0,0.0,0.0,0.0,1.8731,1.8932,1.9547,1.9158,1.9597,2.1179,2.2309,2.3427,2.4556,2.5247,2.5875,2.6521,2.6533,2.6533,2.6533,2.6533,2.6533,2.6533,2.6533,2.6533,2.6533,2.6533,2.6533,2.6533,2.6533,2.6533,2.6589,2.7162,2.7736,2.8363,2.8812,2.8876,2.8684,2.8939,2.9002,2.9002,2.9002,2.9442,2.995,2.995,2.995,3.0072,3.0644,3.097,3.1161,3.1161,3.1351,3.1482,3.1482,3.1482,3.1482,3.1482,3.1482,3.1482,3.1482,3.1482,3.1482,3.1482,3.1482,3.1482,3.1482,3.1482,3.1482,3.1482,3.1482,3.1482,3.1482,3.1091,3.0717,3.0522,2.9654,2.9162,2.9281,2.9202,2.8966,2.8511,2.9496,3.0038,3.0038,3.0038,3.0351,3.0958,3.0518,3.0617,3.119,3.119,3.119,0.0,0.0,0.0,1.6397,0.0,0.0,0.0,0.0,1.7134,0.0,0.0,0.0,0.0,0.0,0.0,0.0,0.0,0.0,0.0,0.0,0.0,0.0,0.0,0.0,0.0,1.6773,1.6722,0.0,1.7505,1.7815,2.0605,2.1732,2.2862,2.3991,2.5046,2.5875,2.6521,2.6533,2.6533,2.6533,2.6533,2.6533,2.6533,2.6533,2.6533,2.6533,2.6533,2.6533,2.6533,2.6533,2.6533,2.6533,2.6521,2.6589,2.6782,2.8427,2.8492,2.7855,2.8684,2.9002,2.9002,2.9002,2.9002,2.9066,2.9066,2.9066,2.9066,2.9066,2.969,3.0329,3.0329,3.0896,3.1482,3.1482,3.1482,3.1482,3.1482,3.1482,3.1482,3.1482,3.1482,3.1482,3.1482,3.1482,3.1482,3.1482,3.1482,3.1482,3.1482,3.1482,3.1482,3.1482,3.1452,3.1225,3.0567,3.0462,2.9909,2.8734,2.8572,2.8511,2.8511,2.9104,2.9406,2.9406,2.9406,2.9717,3.0351,3.0293,3.0617,3.119,3.119,3.119,0.0,0.0,1.9422,1.7229,0.0,0.0,0.0,0.0,0.0,0.0,0.0,0.0,0.0,0.0,0.0,0.0,0.0,0.0,0.0,0.0,0.0,0.0,0.0,0.0,0.0,0.0,0.0,1.6798,1.6986,0.0,1.9497,2.0966,2.2272,2.3389,2.4506,2.5347,2.5887,2.6264,2.6533,2.6533,2.6533,2.6533,2.6533,2.6533,2.6533,2.6533,2.6533,2.6533,2.6533,2.6533,2.6533,2.6533,2.6533,2.6533,2.6589,2.7162,2.7162,2.6973,2.7229,2.767,2.8051,2.755,2.7736,2.8117,2.8117,2.8117,2.8247,2.8812,2.9192,2.9442,2.9442,2.9628,3.0011,3.0584,3.0703,3.0837,3.1409,3.1482,3.1482,3.1482,3.1482,3.1482,3.1482,3.1482,3.1482,3.1482,3.1482,3.1482,3.1482,3.1482,3.1482,3.1482,3.1482,3.1377,3.121,3.0776,2.9953,2.8682,2.8574,2.8379,2.7925,2.8496,2.8779,2.8779,2.8779,2.9088,2.9717,2.9316,2.9406,3.0038,3.0038,3.0435,1.7249,1.8064,0.0,1.7852,1.7491,0.0,1.5652,0.0,1.626,0.0,0.0,0.0,0.0,0.0,0.0,0.0,0.0,0.0,0.0,1.4135,0.0,0.0,0.0,0.0,0.0,0.0,1.553,1.5957,1.612,0.0,0.0,2.01,2.1493,2.2799,2.413,2.5071,2.5586,2.6163,2.6533,2.6533,2.6533,2.6533,2.6533,2.6533,2.6533,2.6533,2.6533,2.6533,2.6533,2.6533,2.6533,2.6533,2.6533,2.6533,2.6533,2.6533,2.6533,2.6533,2.6533,2.685,2.7162,2.6658,2.685,2.7297,2.7297,2.7297,2.7417,2.792,2.8298,2.8556,2.8556,2.9002,2.9504,2.9766,3.0072,3.045,3.097,3.1087,3.1161,3.1409,3.1482,3.1482,3.1482,3.1482,3.1482,3.1482,3.1482,3.1482,3.1482,3.1482,3.1482,3.1482,3.1482,3.1482,3.1482,3.0911,3.0148,2.9325,2.9071,2.8637,2.7964,2.8323,2.8449,2.8189,2.8189,2.8463,2.9088,2.8701,2.8826,2.9406,2.9406,2.9935]},{"header":{"parameterUnit":"m.s-1","parameterCategory":1,"la1":30.6,"la2":29.2853,"lo1":-89.7004,"lo2":-87.6739,"dy":0.0162,"dx":0.0183,"nx":112,"ny":82,"refTime":"2024-09-02T00:00:00:Z","depth":0,"parameterNumber":3,"parameterNumberName":"V-component_of_WINDS"},"data":[0.0,0.0,0.0,0.0,0.0,0.0,0.0,0.0,0.0,0.0,0.0,0.0,0.0,0.0,0.0,0.0,0.0,0.0,0.0,0.0,0.0,0.0,0.0,0.0,0.0,0.0,0.0,0.0,0.0,0.0,0.0,0.0,0.0,0.0,0.0,0.0,0.0,0.0,0.0,0.0,0.0,0.0,0.0,0.0,0.0,0.0,0.0,0.0,0.0,0.0,0.0,0.0,0.0,0.0,0.0,0.0,0.0,0.0,0.0,0.0,0.0,0.0,0.0,0.0,0.0,0.0,0.0,0.0,0.0,0.0,0.0,0.0,0.0,0.0,0.0,0.0,0.0,0.0,0.0,0.0,0.0,0.0,0.0,0.0,0.0,0.0,0.0,0.0,0.0,0.0,-0.3876,-0.4578,-0.4565,-0.4379,-0.4154,-0.179,-0.0264,-0.0,0.0,0.0,0.0,0.0,0.0,0.0,0.0,0.0,0.0,0.0,0.0,0.0,0.0,0.0,0.0,0.0,0.0,0.0,0.0,0.0,0.0,0.0,0.0,0.0,0.0,0.0,0.0,0.0,0.0,0.0,0.0,0.0,0.0,0.0,0.0,0.0,0.0,0.0,0.0,0.0,0.0,0.0,0.0,0.0,0.0,0.0,0.0,0.0,0.0,0.0,0.0,0.0,0.0,0.0,0.0,0.0,0.0,0.0,0.0,0.0,0.0,0.0,0.0,0.0,0.0,0.0,0.0,0.0,0.0,0.0,0.0,0.0,0.0,0.0,0.0,0.0,0.0,0.0,0.0,0.0,0.0,0.0,0.0,0.0,0.0,0.0,0.0,0.0,0.0,0.0,0.0,0.0,0.0,0.0,0.0,0.0,0.0,0.0,0.0,0.0,0.0,0.0,0.0,0.0,-0.3835,-0.4485,-0.4535,-0.3962,-0.2679,-0.212,-0.1317,-0.0091,0.0,0.0,0.0,0.0,0.0,0.0,0.0,0.0,0.0,0.0,0.0,0.0,0.0,0.0,0.0,0.0,0.0,0.0,0.0,0.0,0.0,0.0,0.0,0.0,0.0,0.0,0.0,0.0,0.0,0.0,0.0,0.0,0.0,0.0,0.0,0.0,0.0,0.0,0.0,0.0,0.0,0.0,0.0,0.0,0.0,0.0,0.0,0.0,0.0,0.0,0.0,0.0,0.0,0.0,0.0,0.0,0.0,0.0,0.0,0.0,0.0,0.0,0.0,0.0,0.0,0.0,0.0,0.0,0.0,0.0,0.0,0.0,0.0,0.0,0.0,0.0,0.0,0.0,0.0,0.0,0.0,0.0,0.0,0.0,0.0,0.0,0.0,0.0,0.0,0.0,0.0,0.0,0.0,0.0,0.0,0.0,0.0,0.0,0.0,0.0,0.0,0.0,0.0,-0.3765,-0.4133,-0.449,-0.4522,-0.4193,-0.3524,-0.2683,-0.1583,-0.0091,-0.0577,0.0,0.0,0.0,0.0,0.0,0.0,0.0,0.0,0.0,0.0,0.0,0.0,0.0,0.0,0.0,0.0,0.0,0.0,0.0,0.0,0.0,0.0,0.0,0.0,0.0,0.0,0.0,0.0,0.0,0.0,0.0,0.0,0.0,0.0,0.0,0.0,0.0,0.0,0.0,0.0,0.0,0.0,0.0,0.0,0.0,0.0,0.0,0.0,0.0,0.0,0.0,0.0,0.0,0.0,0.0,0.0,0.0,0.0,0.0,0.0,0.0,0.0,0.0,0.0,0.0,0.0,0.0,0.0,0.0,0.0,0.0,0.0,0.0,0.0,0.0,0.0,0.0,0.0,0.0,0.0,0.0,0.0,0.0,0.0,0.0,0.0,0.0,0.0,0.0,0.0,0.0,0.0,0.0,0.0,0.0,0.0,0.0,0.0,0.0,0.0,0.0,0.0,-0.4274,-0.4393,-0.4464,-0.4525,-0.448,-0.449,-0.309,-0.171,-0.0407,-0.0848,0.0,0.0,0.0,0.0,0.0,0.0,0.0,0.0,0.0,0.0,0.0,0.0,0.0,0.0,0.0,0.0,0.0,0.0,0.0,0.0,0.0,0.0,0.0,0.0,0.0,0.0,0.0,0.0,0.0,0.0,0.0,0.0,0.0,0.0,0.0,0.0,0.0,0.0,0.0,0.0,0.0,0.0,0.0,0.0,0.0,0.0,0.0,0.0,0.0,0.0,0.0,0.0,0.0,0.0,0.0,0.0,0.0,0.0,0.0,0.0,0.0,0.0,0.0,0.0,0.0,0.0,0.0,0.0,0.0,0.0,0.0,0.0,0.0,0.0,0.0,0.0,0.0,0.0,0.0,0.0,0.0,0.0,0.0,0.0,0.0,0.0,0.0,0.0,0.0,0.0,0.0,0.0,0.0,0.0,0.0,0.0,0.0,0.0,0.0,0.0,0.0,0.0,-0.414,-0.4267,-0.4498,-0.4519,-0.4522,-0.448,-0.3211,-0.2052,-0.1256,-0.1706,0.0,0.0,0.0,0.0,0.0,0.0,0.0,0.0,0.0,0.0,0.0,0.0,0.0,0.0,0.0,0.0,0.0,0.0,0.0,0.0,0.0,0.0,0.0,0.0,0.0,0.0,0.0,0.0,0.0,0.0,0.0,0.0,0.0,0.0,0.0,0.0,0.0,0.0,0.0,0.0,0.0,0.0,0.0,0.0,0.0,0.0,0.0,0.0,0.0,0.0,0.0,0.0,0.0,0.0,0.0,0.0,0.0,0.0,0.0,0.0,0.0,0.0,0.0,0.0,0.0,0.0,0.0,0.0,0.0,0.0,0.0,0.0,0.0,0.0,0.0,0.0,0.0,0.0,0.0,0.0,0.0,0.0,0.0,0.0,0.0,0.0,0.0,0.0,0.0,0.0,0.0,0.0,0.0,0.0,0.0,0.0,0.0,0.0,0.0,0.0,0.0,0.0,-0.3969,-0.409,0.0,-0.4519,-0.4522,-0.4477,-0.3912,-0.3068,-0.1953,0.0,0.0,0.0,0.0,0.0,0.0,0.0,0.0,0.0,0.0,0.0,0.0,0.0,0.0,0.0,0.0,0.0,0.0,0.0,0.0,0.0,0.0,0.0,0.0,0.0,0.0,0.0,0.0,0.0,0.0,0.0,0.0,0.0,0.0,0.0,0.0,0.0,0.0,0.0,0.0,0.0,0.0,0.0,0.0,0.0,0.0,0.0,0.0,0.0,0.0,0.0,0.0,0.0,0.0,0.0,0.0,0.0,0.0,0.0,0.0,0.0,0.0,0.0,0.0,0.0,0.0,0.0,0.0,0.0,0.0,0.0,0.0,0.0,0.0,0.0,0.0,0.0,0.0,0.0,0.0,0.0,0.0,0.0,0.0,0.0,0.0,0.0,0.0,0.0,0.0,0.0,0.0,0.0,0.0,0.0,0.0,0.0,0.0,0.0,0.0,0.0,0.0,-0.3947,-0.3995,-0.4121,0.0,-0.4519,-0.4522,-0.4473,-0.4253,-0.3656,-0.2629,0.0,0.0,0.0,0.0,0.0,0.0,0.0,0.0,0.0,0.0,0.0,0.0,0.0,0.0,0.0,0.0,0.0,0.0,0.0,0.0,0.0,0.0,0.0,0.0,0.0,0.0,0.0,0.0,0.0,0.0,0.0,0.0,0.0,0.0,0.0,0.0,0.0,0.0,0.0,0.0,0.0,0.0,0.0,0.0,0.0,0.0,0.0,0.0,0.0,0.0,0.0,0.0,0.0,0.0,0.0,0.0,0.0,0.0,0.0,0.0,0.0,0.0,0.0,0.0,0.0,0.0,0.0,0.0,0.0,0.0,0.0,0.0,0.0,0.0,0.0,0.0,0.0,0.0,0.0,0.0,0.0,0.0,0.0,0.0,0.0,0.0,0.0,0.0,0.0,0.0,0.0,0.0,0.0,0.0,0.0,0.0,0.0,0.0,0.0,0.0,0.0,0.0,-0.4,-0.4289,-0.4515,-0.4519,-0.4519,-0.4519,-0.4519,-0.405,-0.3666,0.0,0.0,0.0,0.0,0.0,0.0,0.0,0.0,0.0,0.0,0.0,0.0,0.0,0.0,0.0,0.0,0.0,0.0,0.0,0.0,0.0,0.0,0.0,0.0,0.0,0.0,0.0,0.0,0.0,0.0,0.0,0.0,0.0,0.0,0.0,0.0,0.0,0.0,0.0,0.0,0.0,0.0,0.0,0.0,0.0,0.0,0.0,0.0,0.0,0.0,0.0,0.0,0.0,0.0,0.0,0.0,0.0,0.0,0.0,0.0,0.0,0.0,0.0,0.0,0.0,0.0,0.0,0.0,0.0,0.0,0.0,0.0,0.0,0.0,0.0,0.0,0.0,0.0,0.0,0.0,0.0,0.0,0.0,0.0,0.0,0.0,0.0,0.0,0.0,0.0,0.0,0.0,0.0,0.0,0.0,0.0,0.0,0.0,0.0,0.0,0.0,0.0,0.0,-0.3982,-0.4193,-0.4351,-0.4508,-0.4519,-0.4519,-0.4519,-0.4148,-0.3734,-0.3222,0.0,0.0,0.0,0.0,0.0,0.0,0.0,0.0,0.0,0.0,0.0,0.0,0.0,0.0,0.0,0.0,0.0,0.0,0.0,0.0,0.0,0.0,0.0,0.0,0.0,0.0,0.0,0.0,0.0,0.0,0.0,0.0,0.0,0.0,0.0,0.0,0.0,0.0,0.0,0.0,0.0,0.0,0.0,0.0,0.0,0.0,0.0,0.0,0.0,0.0,0.0,0.0,0.0,0.0,0.0,0.0,0.0,0.0,0.0,0.0,0.0,0.0,0.0,0.0,0.0,0.0,0.0,0.0,0.0,0.0,0.0,0.0,0.0,0.0,0.0,0.0,0.0,0.0,0.0,0.0,0.0,0.0,0.0,0.0,0.0,0.0,0.0,0.0,0.0,0.0,0.0,0.0,0.0,0.0,0.0,0.0,0.0,0.0,0.0,0.0,0.0,0.0,-0.3973,-0.4105,-0.4304,-0.4501,-0.4519,-0.4519,-0.4519,-0.4189,-0.3741,-0.3206,0.0,0.0,0.0,0.0,0.0,0.0,0.0,0.0,0.0,0.0,0.0,0.0,0.0,0.0,0.0,0.0,0.0,0.0,0.0,0.0,0.0,0.0,0.0,0.0,0.0,0.0,0.0,0.0,0.0,0.0,0.0,0.0,0.0,0.0,0.0,0.0,0.0,0.0,0.0,0.0,0.0,0.0,0.0,0.0,0.0,0.0,0.0,0.0,0.0,0.0,0.0,0.0,0.0,0.0,0.0,0.0,0.0,0.0,0.0,0.0,0.0,0.0,0.0,0.0,0.0,0.0,0.0,0.0,0.0,0.0,0.0,0.0,0.0,0.0,0.0,0.0,0.0,0.0,0.0,0.0,0.0,0.0,0.0,0.0,0.0,0.0,0.0,0.0,0.0,0.0,0.0,0.0,0.0,0.0,0.0,0.0,0.0,0.0,0.0,0.0,0.0,0.0,-0.3995,-0.4101,-0.4287,-0.4501,-0.4519,-0.4519,-0.4519,-0.4189,-0.3788,-0.3356,0.0,0.0,0.0,0.0,0.0,0.0,0.0,0.0,0.0,0.0,0.0,0.0,0.0,0.0,0.0,0.0,0.0,0.0,0.0,0.0,0.0,0.0,0.0,0.0,0.0,0.0,0.0,0.0,0.0,0.0,0.0,0.0,0.0,0.0,0.0,0.0,0.0,0.0,0.0,0.0,0.0,0.0,0.0,0.0,0.0,0.0,0.0,0.0,0.0,0.0,0.0,0.0,0.0,0.0,0.0,0.0,0.0,0.0,0.0,0.0,-0.1449,0.0,0.0,0.0,0.0,0.0,0.0,0.0,0.0,0.0,0.0,0.0,0.0,0.0,0.0,0.0,0.0,0.0,0.0,0.0,0.0,0.0,0.0,0.0,0.0,0.0,0.0,0.0,0.0,0.0,0.0,0.0,0.0,0.0,0.0,0.0,0.0,0.0,0.0,0.0,0.0,0.0,-0.4235,-0.416,-0.4168,-0.4488,-0.4519,-0.4519,-0.4519,-0.4189,-0.388,-0.3551,-0.3149,0.0,0.0,0.0,0.0,0.0,0.0,0.0,0.0,0.0,0.0,0.0,0.0,0.0,0.0,0.0,0.0,0.0,0.0,0.0,0.0,0.0,0.0,0.0,0.0,0.0,0.0,0.0,0.0,0.0,0.0,0.0,0.0,0.0,0.0,0.0,0.0,0.0,0.0,0.0,0.0,0.0,0.0,0.0,0.0,0.0,0.0,0.0,0.0,0.0,0.0,0.0,0.0,0.0,0.0,0.0,0.0,0.0,0.0,0.0,0.0,-0.1265,0.0,0.0,0.0,0.0,0.0,0.0,0.0,0.0,0.0,0.0,0.0,0.0,0.0,0.0,0.0,0.0,0.0,0.0,0.0,0.0,0.0,0.0,0.0,0.0,0.0,0.0,0.0,0.0,0.0,0.0,0.0,0.0,0.0,0.0,0.0,0.0,0.0,0.0,0.0,0.0,-0.4338,-0.4221,-0.4216,-0.4494,-0.4519,-0.4519,-0.4519,-0.4256,-0.4002,-0.37,-0.3413,0.0,0.0,0.0,0.0,0.0,0.0,0.0,0.0,0.0,0.0,0.0,0.0,0.0,0.0,0.0,0.0,0.0,0.0,0.0,0.0,0.0,0.0,0.0,0.0,0.0,0.0,0.0,0.0,0.0,0.0,0.0,0.0,0.0,0.0,0.0,0.0,0.0,0.0,0.0,0.0,0.0,0.0,0.0,0.0,0.0,0.0,0.0,0.0,0.0,0.0,0.0,0.0,0.0,-0.2231,-0.2218,-0.2209,-0.1412,-0.0691,-0.0061,-0.1567,-0.1405,0.0,0.0,0.0,0.0,0.0,0.0,0.0,0.0,0.0,0.0,0.0,0.0,0.0,0.0,0.0,0.0,0.0,0.0,0.0,0.0,0.0,0.0,0.0,0.0,0.0,0.0,-0.4211,-0.4228,-0.334,0.0,0.0,0.0,0.0,0.0,0.0,0.0,0.0,0.0,0.0,0.0,-0.4491,-0.4334,-0.4304,-0.4501,-0.4519,-0.4519,-0.4519,-0.4331,-0.4076,-0.3849,-0.369,-0.3371,0.0,0.0,0.0,0.0,0.0,0.0,0.0,0.0,0.0,0.0,0.0,0.0,0.0,0.0,0.0,0.0,0.0,0.0,0.0,0.0,0.0,0.0,0.0,0.0,0.0,0.0,0.0,0.0,0.0,0.0,0.0,0.0,0.0,0.0,0.0,0.0,0.0,0.0,0.0,0.0,0.0,0.0,0.0,0.0,0.0,0.0,0.0,-0.2965,-0.337,-0.1211,-0.025,-0.0379,-0.0331,-0.0335,-0.033,-0.0197,-0.0133,-0.0,-0.0272,0.0,0.0,0.0,0.0,0.0,0.0,0.0,0.0,0.0,0.0,0.0,0.0,0.0,0.0,0.0,0.0,0.0,0.0,0.0,0.0,0.0,0.0,0.0,0.0,0.0,-0.429,-0.4185,-0.4326,-0.4431,0.0,-0.3778,-0.3567,-0.3741,-0.3477,0.0,0.0,0.0,0.0,0.0,0.0,0.0,-0.5108,-0.4622,-0.4304,-0.4501,-0.4519,-0.4519,-0.4519,-0.4331,-0.4123,-0.3999,-0.376,-0.3581,-0.349,-0.2122,0.0,0.0,0.0,0.0,0.0,0.0,0.0,0.0,0.0,0.0,0.0,0.0,0.0,0.0,0.0,0.0,0.0,0.0,0.0,0.0,0.0,0.0,0.0,0.0,0.0,0.0,0.0,0.0,0.0,0.0,0.0,0.0,0.0,0.0,0.0,0.0,0.0,0.0,0.0,0.0,0.0,0.0,0.0,-0.2606,-0.167,-0.1313,-0.1565,-0.0536,0.0,0.0,0.0,0.0,0.0,0.0,0.0,0.0,0.0,0.0,0.0,0.0,0.0,0.0,0.0,0.0,0.0,0.0,-0.3293,-0.4086,-0.3834,-0.377,-0.3686,-0.2815,0.0,0.0,0.0,0.0,0.0,0.0,0.0,0.0,0.0,0.0,-0.4345,-0.4365,-0.4416,-0.4498,-0.4382,-0.422,-0.4034,0.0,-0.3701,-0.3526,-0.3398,0.0,0.0,0.0,0.0,-0.4384,-0.4918,-0.4639,-0.4392,-0.4512,-0.4519,-0.4519,-0.4519,-0.4406,-0.4304,-0.4107,-0.3944,-0.3743,-0.3616,-0.2946,-0.2493,0.0,0.0,0.0,0.0,0.0,0.0,0.0,0.0,0.0,0.0,0.0,0.0,0.0,0.0,0.0,0.0,0.0,0.0,0.0,0.0,0.0,0.0,0.0,0.0,0.0,0.0,0.0,0.0,0.0,0.0,0.0,0.0,0.0,0.0,0.0,0.0,0.0,0.0,0.0,-0.1022,-0.1649,-0.2184,-0.2682,-0.0939,0.0,0.0,0.0,0.0,0.0,0.0,0.0,0.0,0.0,0.0,0.0,0.0,0.0,0.0,0.0,0.0,0.0,0.0,0.0,-0.0174,-0.1495,-0.3161,-0.4768,-0.4931,-0.474,-0.4305,-0.3178,-0.2867,-0.315,-0.3735,0.0,0.0,0.0,0.0,-0.4134,-0.4308,-0.4365,-0.4381,-0.4504,-0.4577,-0.4567,-0.4525,-0.4519,-0.4405,0.0,-0.391,-0.3791,-0.3345,0.0,0.0,0.0,0.0,-0.4426,-0.4745,-0.4616,-0.4519,-0.4519,-0.4519,-0.4519,-0.4519,-0.4519,-0.4402,-0.4204,-0.4053,-0.3904,-0.3646,-0.361,-0.3369,-0.2863,0.0,0.0,0.0,0.0,0.0,0.0,0.0,0.0,0.0,0.0,0.0,0.0,0.0,0.0,0.0,0.0,0.0,0.0,0.0,0.0,0.0,0.0,0.0,0.0,0.0,0.0,0.0,0.0,0.0,0.0,0.0,0.0,0.0,0.0,0.0,-0.0111,-0.2237,-0.2475,-0.0191,-0.0135,-0.0139,-0.0209,-0.0072,0.0,0.0,0.0,0.0,0.0,0.0,0.0,0.0,0.0,0.0,0.0,0.0,0.0,0.0,0.0,0.0,0.0,0.0,0.0,-0.0,-0.0124,-0.2337,-0.5333,-0.5348,-0.4962,-0.4507,-0.4436,-0.4766,-0.5169,-0.4829,-0.4876,0.0,0.0,-0.4745,-0.4867,-0.488,-0.4884,-0.485,-0.4711,-0.4677,-0.464,-0.4549,-0.4519,-0.4416,0.0,-0.4174,-0.4226,-0.4322,0.0,-0.4541,-0.5111,-0.4888,-0.4749,-0.5027,-0.4735,-0.4519,-0.4519,-0.4519,-0.4519,-0.4519,-0.4519,-0.4402,-0.4204,-0.4053,-0.3948,-0.3788,-0.3687,-0.3501,-0.3277,-0.2569,0.0,0.0,0.0,0.0,0.0,0.0,0.0,0.0,0.0,0.0,0.0,0.0,0.0,0.0,0.0,0.0,0.0,0.0,0.0,0.0,0.0,0.0,0.0,0.0,0.0,0.0,0.0,0.0,0.0,0.0,0.0,0.0,0.0,0.0,0.0,-0.0789,-0.0877,-0.0068,0.0,0.0,0.0,0.0,0.0,0.0,0.0,0.0,0.0,0.0,0.0,0.0,0.0,0.0,0.0,0.0,0.0,0.0,0.0,0.0,0.0,0.0,0.0,0.0,0.0,-0.1564,-0.3694,-0.3689,-0.3535,-0.3353,-0.3658,-0.4412,-0.5175,-0.491,-0.4906,-0.4966,-0.484,-0.4877,-0.4918,-0.4918,-0.4918,-0.4904,-0.485,-0.484,-0.4796,-0.4643,-0.4609,-0.4565,-0.4416,-0.4385,-0.4343,-0.4189,-0.43,-0.4466,-0.445,-0.4499,-0.4584,-0.4696,-0.459,-0.4519,-0.4519,-0.4519,-0.4519,-0.4519,-0.4519,-0.4402,-0.4204,-0.4053,-0.3951,-0.3799,-0.3653,-0.3444,-0.3169,-0.2852,-0.2467,0.0,0.0,0.0,0.0,0.0,0.0,0.0,0.0,0.0,0.0,0.0,0.0,0.0,0.0,0.0,0.0,0.0,0.0,0.0,0.0,0.0,0.0,0.0,0.0,0.0,0.0,0.0,0.0,0.0,0.0,0.0,0.0,0.0,0.0,0.0,0.0,0.0,0.0,0.0,0.0,0.0,0.0,0.0,0.0,0.0,0.0,0.0,0.0,0.0,0.0,0.0,0.0,0.0,0.0,0.0,0.0,0.0,-0.0149,-0.1556,-0.2143,-0.1918,-0.0511,-0.0791,-0.1769,-0.1823,-0.1776,-0.1847,-0.2107,-0.3549,-0.5161,-0.5084,-0.5077,-0.5074,-0.5074,-0.507,-0.5067,-0.5067,-0.5067,-0.5057,-0.5003,-0.4989,-0.4948,-0.4799,-0.4728,-0.466,-0.4558,-0.4553,-0.4453,-0.4202,-0.4331,-0.445,-0.4199,-0.4338,-0.4519,-0.4519,-0.4519,-0.4519,-0.4519,-0.4519,-0.4519,-0.4519,-0.4419,-0.4351,-0.42,-0.4056,-0.3877,-0.3727,-0.3578,-0.3358,-0.3056,-0.2933,-0.2627,-0.2053,0.0,0.0,0.0,0.0,0.0,0.0,0.0,0.0,0.0,0.0,0.0,0.0,0.0,0.0,0.0,0.0,0.0,0.0,0.0,0.0,0.0,0.0,0.0,0.0,0.0,0.0,0.0,0.0,0.0,0.0,0.0,0.0,0.0,0.0,0.0,0.0,0.0,0.0,0.0,0.0,0.0,0.0,0.0,0.0,0.0,0.0,0.0,0.0,0.0,0.0,0.0,0.0,0.0,0.0,0.0,0.0,-0.0392,-0.4538,-0.6197,-0.5783,-0.1696,-0.0146,0.0,0.0,0.0,0.0,0.0,-0.2354,-0.5212,-0.5269,-0.5322,-0.5376,-0.5379,-0.5369,-0.5428,-0.5428,-0.5428,-0.5325,-0.5172,-0.5138,-0.5098,-0.4955,-0.4809,-0.4701,-0.4694,-0.4572,-0.4522,-0.4519,-0.4519,-0.4519,-0.4519,-0.4519,0.0,-0.4519,-0.4519,-0.4519,-0.4519,-0.4519,-0.4519,-0.4519,-0.4334,-0.42,-0.4187,-0.3961,-0.3734,-0.3585,-0.3393,-0.3175,-0.292,-0.2758,-0.2478,-0.2032,0.0,0.0,0.0,0.0,0.0,0.0,0.0,0.0,0.0,0.0,0.0,0.0,0.0,0.0,0.0,0.0,0.0,0.0,0.0,0.0,0.0,0.0,0.0,0.0,0.0,0.0,0.0,0.0,0.0,0.0,0.0,0.0,0.0,0.0,0.0,0.0,0.0,0.0,0.0,0.0,0.0,0.0,0.0,0.0,0.0,0.0,0.0,0.0,0.0,0.0,0.0,0.0,0.0,0.0,0.0,0.0,-0.0078,-0.1248,-0.3589,-0.6193,-0.4972,-0.2667,0.0,0.0,0.0,0.0,0.0,-0.0702,-0.1727,-0.3038,-0.3743,-0.4287,-0.5173,-0.5369,-0.5428,-0.5428,-0.5428,-0.5418,-0.5308,-0.5298,-0.5257,-0.5104,-0.504,-0.4945,-0.4731,-0.4657,-0.4592,-0.4536,-0.4519,-0.4519,-0.4519,-0.4519,0.0,-0.4519,-0.4519,-0.4519,-0.4519,-0.4519,-0.4519,-0.4519,-0.4426,-0.4311,-0.4094,-0.4005,-0.3843,-0.3592,-0.3541,-0.3375,-0.3066,-0.2809,-0.2645,0.0,0.0,0.0,0.0,0.0,0.0,0.0,0.0,0.0,0.0,0.0,0.0,0.0,0.0,0.0,0.0,0.0,0.0,0.0,0.0,0.0,0.0,0.0,0.0,0.0,0.0,0.0,0.0,0.0,0.0,0.0,0.0,0.0,0.0,0.0,0.0,0.0,0.0,0.0,0.0,0.0,0.0,0.0,0.0,0.0,0.0,0.0,0.0,0.0,0.0,0.0,0.0,0.0,0.0,0.0,0.0,0.0,0.0,0.0,0.0,0.0,0.0,-0.3591,0.0,0.0,0.0,0.0,0.0,0.0,-0.0213,-0.1278,-0.1825,-0.2556,-0.4807,-0.5406,-0.5379,-0.5386,-0.5432,-0.5428,-0.5428,-0.5428,-0.5338,-0.5247,-0.5176,-0.5081,-0.4908,-0.4775,0.0,-0.4572,-0.456,-0.4519,-0.4519,-0.4519,-0.4519,-0.4519,-0.4519,-0.4519,-0.4519,-0.4519,-0.4519,-0.4519,-0.4406,0.0,0.0,0.0,-0.3792,-0.3493,-0.3422,0.0,0.0,0.0,0.0,0.0,0.0,0.0,0.0,-0.2544,-0.2726,0.0,0.0,0.0,0.0,0.0,0.0,0.0,0.0,0.0,0.0,0.0,0.0,0.0,0.0,0.0,0.0,0.0,0.0,0.0,0.0,0.0,0.0,0.0,0.0,0.0,0.0,0.0,0.0,0.0,0.0,0.0,0.0,0.0,0.0,0.0,0.0,0.0,0.0,0.0,0.0,0.0,0.0,0.0,0.0,0.0,0.0,0.0,0.0,0.0,0.0,0.0,0.0,0.0,0.0,-0.047,-0.4171,-0.3224,0.0,0.0,0.0,0.0,0.0,0.0,0.0,0.0,0.0,-0.0651,-0.3902,-0.4923,-0.5152,-0.5373,-0.5386,-0.5432,-0.5432,-0.5432,-0.5432,-0.5428,-0.5254,-0.5152,-0.5135,-0.4908,-0.4711,-0.4694,-0.4565,-0.4519,-0.4519,-0.4519,-0.4519,-0.4519,-0.4519,-0.4519,-0.4519,0.0,0.0,-0.4519,-0.4345,-0.4214,-0.4197,-0.3978,-0.37,-0.3393,-0.3252,-0.3215,-0.3195,-0.3195,-0.3195,-0.3195,-0.3289,-0.3409,-0.3458,-0.3021,-0.3002,0.0,0.0,0.0,0.0,0.0,0.0,0.0,0.0,0.0,0.0,0.0,0.0,0.0,0.0,0.0,0.0,0.0,0.0,0.0,0.0,0.0,0.0,0.0,0.0,0.0,0.0,0.0,0.0,0.0,0.0,0.0,0.0,0.0,0.0,0.0,0.0,0.0,0.0,0.0,0.0,0.0,0.0,0.0,0.0,0.0,0.0,0.0,0.0,0.0,0.0,0.0,0.0,0.0,0.0,-0.0078,-0.0942,-0.0707,0.0,0.0,0.0,0.0,0.0,0.0,0.0,0.0,0.0,0.0,-0.0867,-0.2128,-0.3557,-0.5017,-0.5413,-0.5389,-0.5389,-0.5389,-0.5386,-0.5376,-0.5352,-0.5291,-0.5155,-0.4992,-0.4836,-0.4711,-0.4565,-0.4519,-0.4519,-0.4519,-0.4519,-0.4519,-0.4519,-0.4519,-0.4519,-0.4519,-0.4519,-0.4519,-0.4436,-0.4372,-0.4204,-0.4026,-0.3948,-0.3845,-0.386,-0.3788,-0.3663,-0.3663,-0.3663,-0.3663,-0.369,-0.3771,-0.3883,-0.3558,-0.3514,0.0,0.0,0.0,0.0,0.0,0.0,0.0,0.0,0.0,0.0,0.0,0.3928,0.2075,0.0,0.0,0.0,0.0,0.0,0.0,0.0,0.0,0.0,0.0,0.0,0.0,0.0,0.0,0.0,0.0,0.0,0.0,0.0,0.0,0.0,0.0,0.0,0.0,0.0,0.0,0.0,0.0,0.0,0.0,0.0,0.0,0.0,0.0,0.0,0.0,0.0,0.0,0.0,0.0,0.0,0.0,0.0,0.0,0.0,0.0,0.0,0.0,0.0,0.0,0.0,0.0,0.0,0.0,0.0,-0.0648,-0.1556,-0.2481,-0.3389,-0.4028,-0.4028,-0.4028,-0.4028,-0.4023,-0.477,-0.5362,-0.5277,-0.5216,-0.5088,-0.4935,-0.4673,-0.4498,-0.4473,-0.4519,-0.4519,-0.4519,-0.4519,-0.4519,-0.4519,-0.4519,-0.4519,-0.4519,-0.4519,-0.4402,-0.4204,-0.4123,-0.405,-0.4022,-0.4019,-0.3985,-0.3907,-0.3907,-0.3907,-0.3907,-0.3907,-0.3985,-0.408,-0.3982,-0.3951,0.0,0.0,0.0,0.0,0.0,0.0,0.0,0.0,0.4535,0.4833,0.5274,0.5066,0.3314,0.1764,0.0716,0.0738,0.0335,0.0,0.0,0.0,0.0,0.0,0.0,0.0,0.0,0.0,0.0,0.0,0.0,0.0,0.0,0.0,0.0,0.0,0.0,0.0,0.0,0.0,0.0,0.0,0.0,0.0,0.0,0.0,0.0,0.0,0.0,0.0,0.0,0.0,0.0,0.0,0.0,0.0,0.0,0.0,0.0,0.0,0.0,0.0,0.0,0.0,0.0,0.0,0.0,0.0,0.0,0.0,0.0,0.0,0.0,-0.1085,-0.2158,-0.2147,-0.2144,-0.2143,-0.2142,-0.3353,-0.4439,-0.4779,-0.4879,-0.4849,-0.4635,-0.462,-0.4578,-0.4531,-0.4536,-0.4519,-0.4519,-0.4519,-0.4519,-0.4519,-0.4519,-0.4519,-0.4519,-0.4519,-0.4412,-0.4244,-0.4237,-0.4236,-0.4111,-0.4107,-0.4107,-0.4107,-0.4107,-0.4107,-0.4107,-0.4107,-0.4168,-0.4237,-0.4237,-0.4237,0.3975,0.3972,0.4066,0.4467,0.4463,0.4632,0.0,0.0,0.546,0.5551,0.5901,0.6153,0.5924,0.4428,0.3192,0.3161,0.1378,0.0,0.0,0.0,0.0,0.0,0.0,0.0,0.0,0.0,0.0,0.0,0.0,0.0,0.0,0.0,0.0,0.0,0.0,0.0,0.0,0.0,0.0,0.0,0.0,0.0,0.0,0.0,0.0,0.0,0.0,0.0,0.0,0.0,0.0,0.0,0.0,0.0,0.0,0.0,0.0,0.0,0.0,0.0,0.0,0.0,0.0,0.0,0.0,0.0,0.0,0.0,0.0,0.0,0.0,-0.0142,-0.0278,-0.0271,-0.0269,-0.0269,-0.0335,-0.0469,-0.1071,-0.2678,-0.3015,-0.3025,-0.2959,-0.4018,-0.4803,-0.4691,-0.4551,-0.4519,-0.4519,-0.4519,-0.4519,-0.4519,-0.4519,-0.4519,-0.4519,-0.4519,-0.4512,-0.4494,-0.444,-0.4484,-0.4467,-0.4467,-0.4467,-0.4467,-0.4467,-0.4467,-0.4467,-0.4467,-0.4477,-0.444,-0.444,-0.444,0.4649,0.4667,0.4755,0.0,0.523,0.5362,0.583,0.5959,0.604,0.6177,0.6408,0.6599,0.6585,0.606,0.5626,0.0,0.4773,0.3629,0.2319,0.1946,0.1846,0.1846,0.1826,0.2442,0.3946,0.4137,0.3592,0.2237,0.0806,0.0,0.0,0.0,0.0,0.0,0.0,0.0,0.0,0.0,0.0,0.0,0.0,0.0,0.0,0.0,0.0,0.0,0.0,0.0,0.0,0.0,0.0,0.0,0.0,0.0,0.0,0.0,0.0,0.0,0.0,0.0,0.0,0.0,0.0,0.0,0.0,0.0,0.0,0.0,0.0,0.0,0.0,0.0,0.0,0.0,0.0,0.0,0.0,0.0,-0.0202,-0.1008,-0.1132,-0.1453,-0.2507,-0.3944,-0.4618,-0.3663,-0.4098,-0.4512,-0.4473,-0.4519,-0.4519,-0.4519,-0.4519,-0.4519,-0.4519,-0.4519,-0.4519,-0.4519,-0.4519,-0.4519,-0.4519,-0.4519,-0.4519,-0.4519,-0.4519,-0.4519,-0.4519,-0.4519,-0.4519,-0.4519,-0.4519,-0.4519,0.5167,0.5162,0.0,0.5637,0.585,0.6027,0.6179,0.6332,0.6474,0.658,0.6807,0.6903,0.6917,0.7004,0.7078,0.7088,0.7094,0.6548,0.4825,0.4303,0.4074,0.3988,0.3996,0.4775,0.6851,0.7064,0.6352,0.4736,0.2949,0.1698,0.0983,0.0985,0.0986,0.0986,0.0986,0.0986,0.0986,0.0359,0.0,0.0,0.0,0.0719,0.1979,0.1977,0.1616,0.0986,0.0986,0.0628,0.0,0.0,0.0,0.0,0.0,0.0,0.0,0.0,0.0,0.0,0.0,0.0,0.0,0.0,0.0,0.0,0.0,0.0,0.0,0.0,0.0,0.0,0.0,0.0,0.0,0.0,0.0,0.0,0.0,0.0,0.0,0.0,0.0,-0.0404,-0.1747,-0.3249,-0.4053,-0.3292,-0.395,-0.4481,-0.4495,-0.4497,-0.4473,-0.4473,-0.4473,-0.4473,-0.4473,-0.4525,-0.4525,-0.4525,-0.4522,-0.4519,-0.4522,-0.4519,-0.4519,-0.4519,-0.4519,-0.4519,-0.4519,-0.4519,-0.4519,-0.4519,-0.4519,-0.4519,0.0,0.0,0.5647,0.5942,0.6234,0.6491,0.6647,0.68,0.6826,0.684,0.695,0.7051,0.7074,0.7064,0.7143,0.7143,0.7071,0.7084,0.6992,0.6796,0.6538,0.627,0.6235,0.6373,0.6764,0.6976,0.7048,0.6999,0.692,0.5916,0.3571,0.3481,0.3481,0.3481,0.3481,0.3481,0.3481,0.1161,0.0,0.0,0.0,0.243,0.6895,0.6873,0.5662,0.3481,0.3481,0.2142,0.0,0.0,0.0,0.0,0.0,0.0,0.0,0.0,0.0,0.0,0.0,0.0,0.0,0.0,0.0,0.0,0.0,0.0,0.0,0.0,0.0,0.0,0.0,0.0,0.0,0.0,0.0,0.0,0.0,0.0,0.0,0.0,0.0,-0.0,-0.0067,-0.1551,-0.3143,-0.4296,-0.4487,-0.453,-0.4497,-0.4472,-0.4494,-0.4494,-0.4494,-0.4494,-0.4494,-0.4484,-0.4484,-0.4494,-0.4473,-0.4522,-0.4477,-0.4522,-0.4519,-0.4519,-0.4519,-0.4519,-0.4519,-0.4519,-0.4519,-0.4519,-0.4519,-0.4519,0.5487,0.0,0.6105,0.64,0.6627,0.6814,0.6959,0.7034,0.7044,0.6867,0.6883,0.6939,0.6746,0.6783,0.6848,0.6848,0.6939,0.6957,0.7051,0.6944,0.6771,0.6681,0.6638,0.0,0.6833,0.0,0.0,0.7058,0.7081,0.6726,0.5997,0.5913,0.5916,0.5916,0.5916,0.5916,0.5916,0.5104,0.3935,0.241,0.2412,0.3221,0.4844,0.6385,0.6653,0.5916,0.5916,0.5466,0.4476,0.1341,0.0,0.0,0.0,0.0,0.0,0.0,0.0,0.0,0.0,0.0,0.0,0.0,0.0,0.0,0.0,0.0,0.0,0.0,0.0,0.0,0.0,0.0,0.0,0.0,0.0,0.0,0.0,0.0,0.0,0.0,0.0,0.0,0.0,-0.0472,-0.1069,-0.1426,-0.2348,-0.2951,-0.2967,-0.2983,-0.2961,-0.2961,-0.2961,-0.2961,-0.2961,-0.2959,-0.3411,-0.4438,-0.3522,-0.3405,-0.4435,-0.4487,-0.4484,-0.4484,-0.4484,-0.448,-0.4473,-0.4473,-0.4525,-0.4519,-0.4519,-0.4519,0.5844,0.6105,0.641,0.6709,0.6895,0.7027,0.7119,0.7102,0.7024,0.6878,0.6763,0.663,0.6434,0.6386,0.6451,0.6664,0.6736,0.6854,0.7105,0.7017,0.6929,0.6929,0.6844,0.682,0.0,0.0,0.0,0.7132,0.7064,0.7098,0.7241,0.7251,0.7192,0.7245,0.7245,0.7245,0.7245,0.7198,0.6323,0.483,0.483,0.4828,0.4914,0.6456,0.7091,0.7084,0.7084,0.7088,0.6824,0.3755,0.1519,0.0089,0.0985,0.0801,0.0,0.0,0.0943,0.2009,0.0484,0.0,0.0,0.0,0.0,0.0,0.0,0.0,0.0,0.0,0.0,0.0,0.0,0.0,0.0,0.0,0.0,0.0,0.0,0.0,0.0,0.0,0.0,0.0,0.0,0.0,0.0,0.0,-0.081,-0.1434,-0.143,-0.1407,-0.1396,-0.1396,-0.1396,-0.1396,-0.1396,-0.1395,-0.1843,-0.2856,-0.2458,-0.24,-0.2852,-0.3416,-0.3697,-0.3697,-0.3697,-0.3694,-0.3688,-0.4255,-0.448,-0.4473,-0.4525,-0.4525,0.6201,0.6285,0.6586,0.6868,0.7048,0.7146,0.7132,0.7017,0.6953,0.6781,0.6593,0.6384,0.6283,0.0,0.6064,0.6573,0.6563,0.6637,0.7078,0.7031,0.6953,0.0,0.0,0.0,0.0,0.0,0.0,0.7163,0.0,0.7221,0.7373,0.7383,0.7451,0.7594,0.76,0.76,0.76,0.728,0.7148,0.7111,0.7104,0.7094,0.7084,0.7084,0.7071,0.7139,0.7139,0.7064,0.7084,0.7084,0.4469,0.0536,0.2767,0.2236,0.0358,0.0263,0.2741,0.556,0.1643,0.0244,0.0162,0.0,0.0,0.0,0.0,0.0,0.0,0.0,0.0,0.0,0.0,0.0,0.0,0.0,0.0,0.0,0.0,0.0,0.0,0.0,0.0,0.0,0.0,0.0,0.0,0.0,0.0,0.0,0.0,0.0,0.0,0.0,0.0,0.0,0.0,0.0,0.0,0.0,-0.134,-0.1451,-0.0056,-0.1338,-0.2063,-0.2063,-0.2063,-0.2063,-0.2063,-0.353,-0.4324,-0.4383,-0.4425,-0.4477,0.6527,0.6831,0.7132,0.7095,0.72,0.7431,0.7974,0.7866,0.778,0.803,0.789,0.7446,0.6412,0.6448,0.0,0.6232,0.6451,0.0,0.7092,0.7207,0.0,0.7258,0.0,0.7428,0.7428,0.7461,0.0,0.0,0.7377,0.738,0.7533,0.7543,0.756,0.7597,0.76,0.76,0.76,0.7451,0.736,0.7326,0.721,0.7064,0.7061,0.7061,0.7058,0.7139,0.7139,0.7143,0.7061,0.7078,0.6361,0.5188,0.4018,0.4293,0.5109,0.3285,0.3236,0.403,0.4538,0.3662,0.205,0.0471,0.0,0.0,0.0,0.0,0.0,0.0,0.0,0.0,0.0,0.0,0.0,0.0,0.0,0.0,0.0,0.0,0.0,0.0,0.0,0.0,0.0,0.0,0.0,0.0,0.0,0.0,0.0,0.0,0.0,0.0,0.0,0.0,0.0,0.0,0.0,0.0,-0.0336,-0.0392,-0.0,-0.0336,-0.056,-0.056,-0.056,-0.0559,-0.0558,-0.0949,-0.173,-0.2792,-0.3178,-0.3796,0.7,0.7609,0.8242,0.8072,0.8403,0.8836,0.88,0.8551,0.8228,0.7971,0.7798,0.0,0.6044,0.615,0.0,0.0,0.0,0.0,0.6987,0.7234,0.737,0.0,0.756,0.0,0.7604,0.7655,0.7692,0.0,0.7556,0.7536,0.7685,0.7692,0.7723,0.779,0.7794,0.776,0.7692,0.7607,0.7499,0.737,0.7282,0.7207,0.7139,0.7139,0.7139,0.7139,0.0,0.7139,0.7143,0.7064,0.7078,0.6992,0.5628,0.5905,0.692,0.5638,0.491,0.478,0.6002,0.5546,0.4297,0.3129,0.1487,0.0157,0.1096,0.2038,0.2592,0.1645,0.1331,0.1175,0.0235,0.0,0.0,0.0,0.0,0.0,0.0,0.0,0.0,0.0,0.0,0.0,0.0,0.0,0.0,0.0,0.0,0.0,0.0,0.0,0.0,0.0,0.0,0.0,0.0,0.0,0.0,0.0,0.0,0.0,0.0,0.0,0.0,0.0,0.0,0.0,0.0,0.0,-0.0447,-0.1229,-0.1561,-0.2679,0.791,0.8643,0.9692,0.9474,1.0004,1.0379,0.9667,0.9055,0.8473,0.753,0.0,0.6879,0.5626,0.5686,0.5835,0.5627,0.0,0.624,0.6844,0.7183,0.738,0.74,0.7662,0.7794,0.7672,0.777,0.7841,0.7841,0.7729,0.7712,0.7834,0.7841,0.7902,0.8035,0.8038,0.7977,0.7841,0.7801,0.7665,0.7431,0.737,0.7282,0.717,0.7149,0.7139,0.7139,0.7139,0.7139,0.7139,0.7139,0.7064,0.7078,0.7061,0.7071,0.7091,0.7064,0.688,0.6642,0.6622,0.6425,0.6264,0.6288,0.3839,0.1095,0.2655,0.4631,0.5918,0.407,0.3517,0.3125,0.133,0.0392,0.0,0.0,0.0,0.0,0.0,0.0,0.0,0.0,0.0,0.0,0.0,0.0,0.0,0.0,0.0,0.0,0.0,0.0,0.0,0.0,0.0,0.0,0.0,0.0,0.0,0.0,0.0,0.0,0.0,0.0,0.0,0.0,0.0,0.0,0.0,0.0,0.0,0.0,0.0,-0.1398,1.0382,1.0847,1.1268,1.0865,1.0736,1.0707,1.0434,0.973,0.0,0.0,0.8473,0.7719,0.6312,0.6251,0.6254,0.5691,0.5837,0.624,0.6844,0.7183,0.7417,0.0,0.0,0.0,0.0,0.0,0.0,0.0,0.7977,0.7974,0.7997,0.7997,0.8011,0.8038,0.8038,0.8028,0.8001,0.7756,0.7672,0.7729,0.7356,0.7234,0.7326,0.72,0.7139,0.7139,0.7139,0.0,0.7139,0.7139,0.7143,0.7058,0.7143,0.7143,0.7048,0.7014,0.6858,0.6688,0.6559,0.6403,0.6264,0.6278,0.5802,0.4932,0.3515,0.4623,0.622,0.5817,0.5733,0.5655,0.5338,0.2584,0.0,0.0,0.0,0.0,0.0,0.0,0.0,0.0,0.0,0.0,0.0,0.0,0.0,0.0,0.0,0.0,0.0,0.0,0.0,0.0,0.0,0.0,0.0,0.0,0.0,0.0,0.0,0.0,0.0,0.0,0.0,0.0,0.0,0.0,0.0,0.0,0.0,0.0,0.0,-0.0279,1.1204,1.1822,1.2308,1.2169,1.2088,1.191,1.1181,0.0,0.0,0.0,0.8337,0.765,0.6013,0.6127,0.0,0.52,0.5386,0.5895,0.6495,0.6905,0.0,0.8474,0.8813,0.9312,0.0,0.9998,0.9801,0.9118,0.9019,0.8726,0.8038,0.8038,0.8038,0.8038,0.8038,0.8038,0.8038,0.7899,0.7787,0.7699,0.7482,0.7336,0.7248,0.7173,0.7139,0.7139,0.7139,0.7139,0.7139,0.7139,0.7139,0.7139,0.7139,0.7139,0.7122,0.6983,0.6831,0.6678,0.6525,0.638,0.6264,0.6268,0.6274,0.6116,0.5082,0.5482,0.6285,0.6281,0.6278,0.6278,0.6285,0.4779,0.2737,0.0548,0.0,0.0,0.0,0.0,0.0,0.0,0.0,0.0,0.0,0.0,0.0,0.0,0.0,0.0,0.0,0.0,0.0,0.0,0.0,0.0,0.0,0.0,0.0,0.0,0.0,0.0,0.0,0.0,0.0,0.0,0.0,0.0,0.0,0.0,0.0,0.0,0.0,0.0,1.2097,1.2706,1.3375,1.3315,1.325,1.2899,1.1697,1.0474,0.0,0.0,0.7775,0.7301,0.5891,0.0,0.5912,0.0,0.5078,0.5498,0.6166,0.6887,0.7865,0.0,1.0053,0.0,1.1755,1.1945,0.0,1.0485,1.0386,0.9702,0.8038,0.8038,0.8038,0.8038,0.8038,0.8038,0.8038,0.8007,0.7875,0.7645,0.758,0.7424,0.7187,0.7156,0.7139,0.7139,0.7139,0.7139,0.7139,0.7139,0.7139,0.7139,0.7139,0.7139,0.7122,0.6983,0.6831,0.6678,0.6525,0.638,0.6338,0.6338,0.6268,0.6274,0.6264,0.6268,0.6274,0.6264,0.6338,0.6264,0.6271,0.6278,0.5249,0.1017,0.0,0.0,0.0,0.0,0.0,0.0,0.0,0.0,0.0,0.0,0.0,0.0,0.0,0.0,0.0,0.0,0.0,0.0,0.0,0.0,0.0,0.0,0.0,0.0,0.0,0.0,0.0,0.0,0.0,0.0,0.0,0.0,0.0,0.0,0.0,0.0,0.0,0.0,1.4122,1.4484,1.4711,1.4447,1.3791,1.2899,1.1697,0.0,0.0,0.8068,0.7443,0.698,0.6731,0.6091,0.562,0.5806,0.5343,0.5264,0.6139,0.769,0.8892,0.9451,0.0,0.0,1.1848,1.1945,0.0,1.175,1.1755,1.0681,0.8137,0.8038,0.8038,0.8038,0.8038,0.8038,0.8038,0.7899,0.7818,0.7787,0.7519,0.7377,0.7346,0.7204,0.7139,0.7139,0.7139,0.7139,0.0,0.7139,0.7139,0.7139,0.7139,0.7139,0.7122,0.6983,0.6831,0.6678,0.6525,0.638,0.6338,0.6338,0.6338,0.6264,0.6338,0.6338,0.6264,0.6338,0.6338,0.6338,0.6264,0.6271,0.5249,0.1017,0.0,0.0,0.0,0.0,0.0,0.0,0.0,0.0,0.0,0.0,0.0,0.0,0.0,0.0,0.0,0.0,0.0,0.0,0.0,0.0,0.0,0.0,0.0,0.0,0.0,0.0,0.0,0.0,0.0,0.0,0.0,0.0,0.0,0.0,0.0,0.0,0.0,0.0,1.4028,1.4349,1.4409,1.4289,1.3454,1.2398,1.1396,0.0,0.8778,0.8028,0.7404,0.6933,0.6728,0.6344,0.5964,0.5621,0.5278,0.5166,0.5545,0.682,0.8316,1.011,1.1515,0.0,0.0,0.0,1.3884,1.3199,1.2334,1.1463,1.0386,0.9608,0.8825,0.8038,0.8038,0.8038,0.8038,0.798,0.7902,0.7811,0.7604,0.7461,0.7366,0.721,0.7139,0.7139,0.7139,0.7139,0.0,0.7139,0.7139,0.7139,0.7139,0.7139,0.7122,0.6983,0.6831,0.6678,0.6525,0.638,0.6338,0.6338,0.6338,0.6338,0.6338,0.6338,0.6338,0.6338,0.6338,0.6338,0.6338,0.6271,0.5643,0.3124,0.2188,0.186,0.1874,0.0882,0.0,0.0,0.0,0.0,0.0,0.0,0.0741,0.2898,0.1414,0.0404,0.1476,0.2555,0.2412,0.0264,0.0,0.0,0.0,0.0,0.0,0.0,0.0,0.0,0.0,0.0,0.0,0.0,0.0,0.0,0.0,0.0,0.0,0.0,0.0,0.0,1.3414,1.3754,1.3911,1.4145,1.3299,1.2198,0.0,1.013,0.8786,0.8029,0.7404,0.6986,0.6873,0.6645,0.6346,0.5928,0.5684,0.5614,0.5864,0.6981,0.8596,0.0,0.0,1.358,0.0,1.5678,1.5439,1.4555,1.359,1.2915,1.2528,1.1648,1.0578,0.9213,0.9114,0.9114,0.9114,0.9114,0.9127,0.8952,0.8463,0.8113,0.7905,0.7434,0.7183,0.7139,0.7139,0.7139,0.0,0.7139,0.7139,0.7139,0.7139,0.7139,0.7129,0.7027,0.6868,0.6685,0.6576,0.6417,0.6338,0.6338,0.6338,0.6338,0.6338,0.6338,0.6338,0.6338,0.6338,0.6338,0.6338,0.6271,0.6038,0.5082,0.4455,0.4042,0.4027,0.2905,0.1673,0.0913,0.0826,0.0814,0.0808,0.0807,0.168,0.4244,0.2893,0.1882,0.2611,0.4306,0.4448,0.1876,0.066,0.0,0.0,0.0,0.0,0.0,0.0,0.0,0.0,0.0,0.0,0.0,0.0,0.0,0.0,0.0,0.0,0.0,0.0,0.0,1.2674,1.2986,1.3444,1.4358,1.3528,1.2476,1.239,1.0846,0.9099,0.8085,0.7404,0.7114,0.7408,0.7013,0.6731,0.7203,0.6865,0.6837,0.758,0.9023,0.0,0.0,0.0,1.3798,1.4476,1.5317,1.5825,1.5825,1.5737,0.0,1.3974,1.3878,1.3199,1.1945,1.1848,1.1848,1.1848,1.1848,1.1834,1.1606,1.0378,0.9614,0.9255,0.8,0.7285,0.7139,0.7139,0.7139,0.0,0.7139,0.7139,0.7139,0.7139,0.7139,0.7139,0.7139,0.6953,0.6702,0.6698,0.6508,0.6338,0.6338,0.6338,0.6338,0.6338,0.6338,0.6338,0.6338,0.6338,0.6338,0.6338,0.6271,0.6278,0.6278,0.6285,0.6257,0.627,0.6238,0.5532,0.3104,0.2649,0.2697,0.269,0.2678,0.2678,0.2744,0.4233,0.4709,0.2947,0.43,0.5396,0.5326,0.2143,0.0,0.0,0.0,0.0,0.0,0.0,0.0,0.0,0.0,0.0,0.0,0.0,0.0,0.0,0.0,0.0,0.0,0.0,0.0,1.1605,1.2289,1.2798,1.3036,1.2856,1.2259,1.1216,1.0151,0.9082,0.7847,0.7295,0.7114,0.7453,0.7163,0.7101,0.7806,0.7626,0.746,0.7825,0.0,0.0,1.1395,1.3632,1.5211,0.0,0.0,1.5832,1.5832,1.5832,1.5635,1.5242,1.5242,1.4172,1.1945,1.1945,1.1945,1.1945,1.1945,1.191,1.1839,1.1301,1.0988,1.0625,1.0116,0.9766,0.9483,0.8711,0.8364,0.8277,0.7401,0.7139,0.7139,0.7139,0.7139,0.7139,0.7139,0.7021,0.6925,0.7556,0.7612,0.7556,0.8124,0.7859,0.7326,0.7326,0.6872,0.6338,0.6338,0.6338,0.6338,0.6338,0.6264,0.6268,0.6268,0.6271,0.6335,0.6294,0.6284,0.6105,0.5329,0.4951,0.4785,0.4588,0.4565,0.4535,0.4576,0.5046,0.5186,0.4622,0.5036,0.5382,0.5382,0.4361,0.2669,0.0199,0.0,0.0,0.0,0.0,0.0,0.0,0.0,0.0,0.0,0.0,0.0,0.0,0.0,0.0,0.0,0.0,0.0,1.0725,1.1545,1.2131,1.2838,1.2703,1.211,1.1098,1.0058,0.902,0.776,0.7228,0.7074,0.7261,0.7547,0.7786,0.8067,0.8336,0.8587,0.0,0.0,0.0,1.2298,0.0,0.0,0.0,1.5698,1.5832,1.5832,1.5832,1.5832,1.5832,1.5832,1.5051,1.3403,1.3397,1.3397,1.3397,1.3397,1.3397,1.3397,1.2756,1.2371,1.2145,1.1449,1.1038,1.0732,0.9868,0.9579,0.0,0.8707,0.8185,0.7841,0.8273,0.8185,0.7837,0.8273,0.8336,0.8336,0.88,0.8824,0.8737,0.9309,0.8985,0.8389,0.8389,0.7403,0.6338,0.6338,0.6338,0.6338,0.6338,0.6338,0.6338,0.6338,0.6338,0.6338,0.6338,0.627,0.6266,0.6207,0.605,0.5778,0.5504,0.5467,0.5483,0.5396,0.5379,0.5376,0.5428,0.5369,0.5372,0.5372,0.5376,0.4495,0.2209,0.0785,0.0,0.0,0.1281,0.2022,0.204,0.1395,0.1045,0.1045,0.1045,0.0697,0.0,0.0,0.0,0.0,0.0,0.0,0.0,1.0853,1.146,1.3293,1.2893,1.2,1.1688,1.0454,0.0,0.779,0.7301,0.7118,0.7159,0.8135,0.8749,0.8222,0.9112,0.0,0.0,1.0755,0.0,0.0,1.4269,0.0,1.4997,1.5511,1.5832,1.5832,1.5832,1.5832,1.5832,1.5832,1.5832,1.5832,1.5832,1.5832,1.5832,1.5832,1.5832,1.5825,1.4561,1.3939,1.3788,1.2216,1.1525,0.0,1.0881,1.0697,1.0697,1.0611,1.0009,0.9148,1.0183,0.9923,0.9148,1.0178,1.0564,1.046,1.0528,1.0253,0.9823,0.9812,0.9663,0.9418,0.9327,0.7944,0.6412,0.6412,0.6338,0.6338,0.6338,0.6338,0.6338,0.6338,0.6338,0.6338,0.6338,0.6338,0.6217,0.6074,0.6047,0.5956,0.5671,0.5613,0.5552,0.5466,0.5435,0.5428,0.5428,0.5428,0.5428,0.5428,0.5372,0.5376,0.5376,0.229,0.0322,0.0193,0.3337,0.5236,0.5417,0.3766,0.2891,0.2891,0.2891,0.2029,0.0184,0.0185,0.0185,0.0185,0.0185,0.0124,0.9919,0.0,1.0278,1.1361,1.1664,1.1507,0.0,1.0187,0.9512,0.8112,0.0,0.8383,0.855,0.8915,0.9422,1.0074,0.0,0.0,1.0823,0.0,0.0,1.483,1.5304,1.5551,1.5618,1.5752,1.5832,1.5832,1.5832,1.5832,1.5832,1.5832,1.5832,1.5832,1.5832,1.5832,1.5832,1.5832,1.5832,1.5832,1.5534,1.5194,1.5008,1.4443,1.3976,1.3611,1.2445,1.1895,1.1809,1.095,1.0438,1.0269,1.0524,1.0438,1.0269,1.0524,1.0575,1.0675,1.1344,1.1453,1.1409,1.1227,1.1209,1.0965,0.9912,0.8585,0.748,0.748,0.6872,0.6338,0.6338,0.6338,0.6338,0.6338,0.6338,0.6338,0.6338,0.6338,0.6251,0.6213,0.6207,0.6146,0.5959,0.583,0.5701,0.5559,0.5437,0.5428,0.5428,0.5428,0.5428,0.5428,0.5428,0.5432,0.5432,0.4607,0.3558,0.2184,0.2872,0.3979,0.5344,0.502,0.4765,0.4765,0.4765,0.3888,0.209,0.2092,0.2092,0.2092,0.2092,0.1308,0.9848,1.0344,1.0674,1.1583,1.1846,1.1663,1.0873,0.0,0.0,0.0,0.0,0.8911,0.8768,0.9428,0.0,0.0,1.0965,0.0,0.0,0.0,1.4429,1.5471,1.6195,1.6662,0.0,1.6662,1.6662,1.6662,1.6662,1.6386,1.5832,1.6386,1.6386,1.5825,1.5832,1.5832,1.5832,1.5832,1.5832,1.5832,1.5832,1.5745,1.5578,1.5157,1.4877,1.4696,1.3557,1.3118,1.3118,1.2431,1.1906,1.1472,1.1997,1.1906,1.1472,1.1992,1.2174,1.2237,1.2782,1.2819,1.2663,1.2481,1.2399,1.2282,1.1496,1.0406,0.9274,0.8641,0.7783,0.7022,0.7022,0.6644,0.6338,0.6338,0.6338,0.6338,0.6338,0.6338,0.6338,0.6338,0.6338,0.621,0.6057,0.5962,0.5854,0.5708,0.5559,0.5467,0.5467,0.5406,0.5428,0.5428,0.5428,0.5428,0.5428,0.5372,0.5005,0.4001,0.3931,0.4367,0.535,0.5407,0.5403,0.5403,0.541,0.4887,0.3911,0.3913,0.3916,0.3916,0.3916,0.3427,1.0001,1.1008,1.1761,1.2434,1.2402,1.2059,1.1547,0.0,0.0,0.0,0.0,0.0,0.0,1.0197,0.0,0.0,0.0,0.0,1.3441,1.4496,1.5328,1.6007,1.7225,0.0,1.7956,1.7956,1.7956,1.7956,1.7956,1.7498,1.6379,1.7404,1.7498,1.6379,1.6379,1.6379,1.6379,1.6015,1.5832,1.5832,1.5832,1.5805,1.5745,1.5211,1.4937,1.4863,0.0,0.0,1.4088,1.4088,1.347,1.2681,1.373,1.347,1.2674,1.373,1.4088,1.4088,1.4088,1.3921,1.3667,1.3427,1.3347,1.3333,1.3293,1.2457,1.1331,1.0188,0.8941,0.8012,0.8012,0.7403,0.6795,0.6795,0.6644,0.6567,0.6718,0.649,0.6338,0.649,0.6412,0.622,0.6088,0.6044,0.5986,0.5857,0.5711,0.5613,0.5593,0.5477,0.5456,0.5428,0.5428,0.5428,0.5428,0.5428,0.5432,0.5376,0.5376,0.5376,0.5376,0.5432,0.5428,0.5428,0.5372,0.5376,0.5376,0.5386,0.5389,0.5389,0.5389,0.5389,1.0556,1.1723,1.2425,1.1475,1.1728,1.2083,1.1649,0.0,0.0,0.0,0.0,0.0,0.0,1.2596,1.3083,0.0,0.0,1.4441,0.0,0.0,1.7842,1.7416,0.0,1.9222,1.9222,1.9222,1.9222,1.9222,1.9222,1.9131,1.8948,1.9131,1.9131,1.8948,1.8948,1.8948,1.8948,1.6842,1.5832,1.5832,1.5832,1.5698,1.5451,1.5117,1.483,1.4569,0.0,1.4088,1.4088,1.4088,1.3997,1.3822,1.4004,1.3997,1.3822,1.4004,1.4088,1.4088,1.4088,1.4055,1.4015,1.3968,1.3955,1.3901,1.3654,1.3378,1.3065,1.2441,1.0737,0.9069,0.9069,0.8917,0.8841,0.8841,0.8161,0.7783,0.8694,0.748,0.6567,0.7403,0.6868,0.6254,0.623,0.6115,0.602,0.5996,0.5867,0.5725,0.5606,0.5569,0.5504,0.5442,0.5428,0.5428,0.5428,0.5428,0.5428,0.5428,0.5432,0.5432,0.5432,0.5428,0.5428,0.5428,0.5428,0.5432,0.5432,0.5432,0.5432,0.5432,0.5432,0.5372,0.999,1.1172,1.208,1.1719,1.2394,1.3145,1.2715,0.0,0.0,0.0,0.0,0.0,0.0,0.0,1.4492,1.5069,0.0,1.7113,1.7419,1.83,1.8822,0.0,0.0,2.0486,2.0486,2.0486,2.0486,2.0486,2.0486,2.0215,1.9488,2.0124,2.0215,1.9497,1.9497,1.9497,1.9497,1.8395,1.7755,1.7755,1.7574,1.7318,1.7153,1.6132,1.5489,1.5333,0.0,1.4088,1.4088,1.4088,1.4088,1.4088,1.4088,1.4088,1.4088,1.4088,1.4088,1.4088,1.4088,1.4088,1.4088,1.4088,1.4088,1.4062,1.3928,1.3768,1.3587,1.3307,1.1793,1.0291,1.0154,0.9744,0.9296,0.9296,0.8917,0.877,0.9226,0.8542,0.8084,0.8542,0.8237,0.7936,0.7936,0.7858,0.7576,0.7052,0.683,0.6477,0.5906,0.5688,0.5562,0.5494,0.541,0.5428,0.5428,0.5428,0.5428,0.5428,0.5428,0.5428,0.5428,0.5428,0.5428,0.5428,0.5428,0.5428,0.5428,0.5428,0.5428,0.5428,0.5428,0.5432,0.9641,1.0732,1.1734,1.2246,0.0,1.3984,1.3955,0.0,0.0,0.0,0.0,0.0,0.0,1.4748,0.0,1.7234,1.8485,1.9226,1.9136,1.9643,1.9995,1.9909,2.1025,2.1747,2.1747,2.1747,2.1747,2.1747,2.1747,2.1302,2.0404,2.1212,2.1302,2.0404,2.0314,2.0314,2.0314,2.0314,2.0,1.9364,1.8994,1.8773,1.8504,1.7095,1.6476,1.6308,1.5329,1.4741,1.4489,1.4489,1.4334,1.4088,1.4088,1.4088,1.4088,1.4088,1.4088,1.4088,1.4088,1.4088,1.4088,1.4088,1.4088,1.4088,1.4088,1.3928,1.3734,1.3579,1.2696,1.1617,1.1332,1.0617,0.9976,0.9976,0.9825,0.975,0.997,0.9599,0.9372,0.9599,0.9448,0.9296,0.9296,0.9296,0.9069,0.8237,0.8032,0.762,0.6841,0.6508,0.6244,0.6004,0.5783,0.562,0.5425,0.5428,0.5428,0.5428,0.5428,0.5428,0.5428,0.5428,0.5428,0.5428,0.5428,0.5428,0.5428,0.5428,0.5428,0.5428,0.5428,0.5428,1.0478,1.1182,1.1812,1.2617,1.3203,0.0,1.501,1.4951,0.0,1.6201,0.0,0.0,0.0,1.6631,1.7442,1.9324,1.9934,2.0183,2.053,0.0,2.2366,2.1293,2.2217,2.296,2.296,2.296,2.296,2.296,2.296,2.296,2.2862,2.295,2.296,2.2862,2.2862,2.2862,2.2862,2.2862,2.1493,1.8912,1.8888,1.8526,1.7877,1.7744,1.7531,1.7212,1.7107,1.6519,1.5621,1.5621,1.4977,1.4088,1.4088,1.4088,1.4088,1.4088,1.4088,1.4088,1.4088,1.4088,1.4088,1.4088,1.4088,1.4088,1.4088,1.4075,1.4001,1.3721,1.3333,1.3021,1.2716,1.2355,1.2077,1.2077,1.1391,1.0938,1.1848,1.0645,0.9599,1.049,0.997,0.9296,0.9296,0.9296,0.9301,0.9226,0.921,0.912,0.8915,0.8608,0.8041,0.7104,0.6772,0.6268,0.5491,0.5428,0.5428,0.5428,0.5428,0.5428,0.5428,0.5428,0.5428,0.5428,0.5428,0.5428,0.5428,0.5428,0.5428,0.5428,0.5428,0.5428,0.9453,1.0625,1.1822,1.2656,1.3594,0.0,0.0,1.5713,1.6289,1.7314,1.7529,0.0,0.0,0.0,1.9259,2.0518,2.1034,2.1493,2.2072,2.2766,2.296,2.2492,2.2862,2.3135,2.3135,2.3135,2.3135,2.3135,2.3135,2.3135,2.3135,2.3135,2.3135,2.3135,2.3135,2.3135,2.3135,2.3135,2.2351,2.0817,2.0817,2.0429,1.9888,1.8966,1.8449,1.831,1.7585,1.709,1.6683,1.6683,1.6445,1.6124,1.6124,1.5311,1.425,1.5636,1.5228,1.4166,1.4894,1.465,1.4088,1.4088,1.4088,1.4088,1.4088,1.4088,1.4062,1.3948,1.3581,1.314,1.2903,1.2525,1.2305,1.2305,1.1996,1.1842,1.2224,1.17,1.1248,1.1694,1.1397,1.1174,1.1174,1.1174,1.095,1.034,1.0265,1.0013,0.9329,0.9046,0.8729,0.8364,0.7971,0.7631,0.7301,0.7122,0.6985,0.6985,0.6013,0.5428,0.5428,0.5428,0.5428,0.5428,0.5428,0.5428,0.5428,0.5428,0.5428,0.5428,0.5428,0.5428,0.9278,1.0617,1.2063,1.2871,0.0,0.0,1.6045,1.6602,1.7334,1.874,1.8809,0.0,0.0,0.0,0.0,0.0,2.1709,2.2334,2.3037,2.3135,2.3222,2.3551,2.3637,2.38,2.4145,2.4135,2.4059,2.3627,2.3637,2.3464,2.3135,2.3135,2.3135,2.3135,2.3135,2.3076,2.2939,2.2939,2.2519,2.168,2.168,2.1455,2.1016,1.9976,1.952,1.9441,1.8709,1.8141,1.7827,1.7827,1.7585,1.7342,1.7342,1.6363,1.5311,1.6772,1.637,1.5228,1.5951,1.5462,1.4573,1.4573,1.4412,1.4088,1.4088,1.4088,1.4088,1.4088,1.3728,1.3273,1.2973,1.2599,1.2305,1.2305,1.2305,1.2305,1.2305,1.2305,1.2305,1.2305,1.2305,1.2305,1.2305,1.2305,1.207,1.1391,1.1236,1.1019,1.0351,1.0058,0.9802,0.9437,0.8857,0.8528,0.8528,0.8256,0.8128,0.8128,0.6955,0.6079,0.5815,0.5557,0.5428,0.5428,0.5428,0.5428,0.5428,0.5428,0.5557,0.5818,0.5557,0.5557,1.0348,1.1389,1.2663,0.0,0.0,0.0,1.7617,1.7695,1.8135,2.0703,0.0,2.0059,2.0575,0.0,0.0,2.1094,2.1953,2.2656,2.3076,2.3135,2.3551,2.4702,2.4787,2.5294,2.6389,2.6483,2.6058,2.4872,2.4787,2.4296,2.3222,2.3135,2.3135,2.3135,2.3135,2.293,2.251,2.251,2.208,2.123,2.123,2.0996,2.0566,2.0566,2.0566,2.0566,2.0566,2.0001,1.9036,1.9036,1.831,1.7334,1.7342,1.7334,1.7342,1.7334,1.7334,1.7342,1.7334,1.6601,1.5696,1.5696,1.4977,1.4088,1.4088,1.4088,1.4088,1.4088,1.3874,1.3574,1.3287,1.2759,1.2305,1.2305,1.2305,1.2305,1.2305,1.2305,1.2305,1.2305,1.2305,1.2305,1.2305,1.2305,1.2305,1.2305,1.2305,1.2305,1.2305,1.2051,1.1475,1.0281,0.9324,0.8829,0.8829,0.8554,0.8425,0.842,0.8149,0.7637,0.6719,0.5881,0.5428,0.5428,0.5428,0.5428,0.5428,0.5428,0.5881,0.6719,0.5815,0.5881,0.9822,1.1249,0.0,1.449,0.0,0.0,0.0,1.9063,0.0,0.0,2.2391,2.2371,2.2273,0.0,0.0,2.165,2.2784,2.3876,2.4235,2.4967,2.5641,2.5975,2.5975,2.6141,2.6483,2.6483,2.6389,2.6058,2.5975,2.5891,2.5473,2.4713,2.4152,2.3844,2.3103,2.249,2.207,2.207,2.1787,2.123,2.123,2.0996,2.0566,2.0566,2.0566,2.0566,2.0566,2.0401,2.0167,2.0167,1.952,1.855,1.9353,1.8709,1.7496,1.9027,1.863,1.7423,1.823,1.7738,1.6846,1.6846,1.6116,1.522,1.522,1.4734,1.4088,1.4088,1.3874,1.3574,1.3287,1.2913,1.2559,1.2351,1.2305,1.2305,1.2305,1.2305,1.2305,1.2305,1.2305,1.2305,1.2305,1.2305,1.2305,1.2305,1.2305,1.2305,1.2305,1.2225,1.2065,1.1682,1.1274,1.1012,1.1012,1.0685,1.0448,1.0255,0.9573,0.8723,0.7637,0.7377,0.7246,0.7246,0.7246,0.7246,0.7246,0.7246,0.7377,0.7632,0.7377,0.7051,1.0557,1.2173,0.0,1.6028,1.7807,1.9467,2.0984,0.0,0.0,0.0,0.0,2.4187,2.4089,2.3621,0.0,2.3452,2.4424,2.5233,2.5419,2.6058,2.6637,2.7035,2.7128,2.729,2.7799,2.7799,2.7544,2.6841,2.6829,2.6496,2.5889,2.5137,2.468,2.4492,2.3761,2.2992,2.2241,2.2241,2.1789,2.0967,2.0967,2.083,2.0566,2.0566,2.0566,2.0566,2.0566,2.0566,2.0566,2.0566,2.0245,1.9678,2.0323,1.9756,1.8789,2.0079,1.9756,1.8709,1.9432,1.8877,1.7989,1.7989,1.7253,1.6355,1.6355,1.5876,1.5387,1.5387,1.4925,1.4384,1.4083,1.3461,1.2826,1.2405,1.2305,1.2305,1.2305,1.2305,1.2305,1.2305,1.2305,1.2305,1.2305,1.2305,1.2305,1.2305,1.2305,1.2305,1.2305,1.2305,1.2305,1.2305,1.2144,1.2044,1.2044,1.177,1.153,1.1349,1.0648,0.991,0.9213,0.8398,0.8027,0.8027,0.8027,0.8027,0.8027,0.8027,0.8156,0.8484,0.8156,0.7897,1.196,0.0,0.0,1.7798,1.9147,0.0,2.31,2.3635,2.3748,2.3748,0.0,2.5519,2.5893,2.5566,2.5453,2.5801,2.6262,2.6637,2.6637,2.673,2.7128,2.8176,2.8255,2.8664,2.9626,2.9716,2.9068,2.7519,2.7394,2.6717,2.516,2.4982,2.4959,2.4915,2.4837,2.4138,2.2822,2.2745,2.2159,2.0867,2.0789,2.0712,2.0712,2.0644,2.0566,2.0566,2.0566,2.0566,2.0566,2.0566,2.0566,2.0566,2.0566,2.0566,2.0566,2.0566,2.0566,2.0566,2.0566,1.9923,1.9125,1.9125,1.839,1.7423,1.7423,1.7415,1.7342,1.7342,1.6601,1.5786,1.5541,1.4432,1.3287,1.2628,1.2392,1.2305,1.2305,1.2305,1.2305,1.2305,1.2372,1.2445,1.2445,1.2445,1.2372,1.2298,1.2305,1.2305,1.2305,1.2305,1.2305,1.2305,1.2305,1.2305,1.2305,1.2058,1.1897,1.187,1.1369,1.1049,1.0995,0.9196,0.8221,0.8221,0.8221,0.8221,0.8221,0.8221,0.8613,0.9402,0.8613,0.8613,1.1577,1.3498,0.0,0.0,2.125,2.3467,2.4448,2.502,2.5303,2.5303,2.6107,2.687,2.6976,2.652,2.6285,2.6304,2.7128,2.7775,2.7775,2.853,2.9209,2.9378,2.9443,2.9359,2.9151,2.9114,2.88,2.8002,2.7965,2.7755,2.7409,2.6562,2.5983,2.5612,2.4789,2.4024,2.3312,2.3301,2.3183,2.2861,2.2113,2.1669,2.1659,2.0934,2.0566,2.0566,2.0566,2.0566,2.0566,2.0566,2.0566,2.0566,2.0566,2.0566,2.0566,2.0566,2.0566,2.0566,2.0566,2.0489,2.0245,2.0245,1.952,1.863,1.863,1.7989,1.7342,1.7342,1.709,1.692,1.6635,1.6044,1.5294,1.4224,1.3128,1.2305,1.2305,1.2305,1.2305,1.2305,1.2879,1.3382,1.3382,1.3382,1.3171,1.2445,1.2305,1.2305,1.2305,1.2305,1.2305,1.2305,1.2305,1.2305,1.2305,1.2245,1.2111,1.1884,1.175,1.1476,1.1009,1.038,1.004,1.004,1.004,1.004,1.004,1.004,1.0168,1.0301,1.0104,0.9786,1.165,0.0,0.0,2.0523,0.0,2.4993,2.5611,2.5942,2.6125,2.6125,2.6981,2.7651,2.7651,2.7411,2.7293,2.7293,2.7758,2.8078,2.8078,2.8648,2.8988,2.8988,2.8988,2.8863,2.8561,2.8536,2.8298,2.7758,2.7708,2.7595,2.7331,2.6793,2.6371,2.6137,2.5613,2.4966,2.4264,2.4192,2.3963,2.3514,2.2999,2.2702,2.2702,2.1231,2.0566,2.0566,2.0566,2.0566,2.0566,2.0566,2.0566,2.0566,2.0566,2.0566,2.0566,2.0566,2.0566,2.0566,2.0566,2.0566,2.0566,2.0566,2.0245,1.9766,1.9766,1.9353,1.8868,1.8868,1.855,1.8098,1.7969,1.7234,1.6365,1.5726,1.4649,1.3593,1.3091,1.3382,1.3665,1.3665,1.4091,1.445,1.445,1.445,1.4243,1.3738,1.3665,1.3665,1.3665,1.3665,1.3665,1.3665,1.3237,1.2952,1.2952,1.2592,1.2238,1.2084,1.1944,1.173,1.1423,1.1129,1.0842,1.0631,1.0624,1.0624,1.0624,1.0624,1.0624,1.0624,1.0624,1.0364,1.166,0.0,1.8008,2.236,2.4509,0.0,2.6201,2.6458,2.6533,2.6533,2.7256,2.7959,2.7959,2.8047,2.8109,2.8109,2.8109,2.8109,2.8109,2.8109,2.8109,2.8109,2.8109,2.8059,2.7971,2.7959,2.7733,2.718,2.7143,2.6942,2.6546,2.6533,2.6533,2.6533,2.6533,2.6094,2.53,2.5229,2.485,2.4036,2.3818,2.3672,2.3452,2.1821,2.1011,2.0857,2.0634,2.0566,2.0566,2.0566,2.0566,2.0566,2.0566,2.0566,2.0566,2.0566,2.0566,2.0566,2.0566,2.0566,2.0566,2.0566,2.0566,2.0566,2.0566,2.0566,2.0566,2.0566,1.9923,1.9283,1.9283,1.8328,1.7398,1.7242,1.6495,1.5551,1.4336,1.4753,1.5309,1.5242,1.5305,1.5446,1.5446,1.5446,1.5376,1.5234,1.5234,1.5234,1.5234,1.5234,1.5234,1.5234,1.4458,1.3954,1.3954,1.3237,1.2732,1.2519,1.236,1.2131,1.1942,1.163,1.1256,1.0722,1.0661,1.0672,1.0624,1.0624,1.0624,1.0624,1.0624,1.0624,0.0,0.0,1.8821,0.0,2.4417,2.5611,0.0,0.0,2.6533,0.0,2.6954,2.7394,2.7394,2.7783,2.8109,2.8109,2.8109,2.8109,2.8109,2.8109,2.8109,2.8109,2.8109,2.7921,2.7444,2.7394,2.7168,2.6684,2.6634,2.6609,2.6533,2.6533,2.6533,2.6533,2.6533,2.6465,2.6314,2.6314,2.6233,2.6094,2.5217,2.4337,2.3514,2.322,2.2627,2.1735,2.0934,2.0566,2.0566,2.0566,2.0566,2.0566,2.0566,2.0566,2.0566,2.0566,2.0566,2.0566,2.0566,2.0566,2.0566,2.0566,2.0566,2.0566,2.0566,2.0566,2.0566,2.0566,2.0489,2.0401,2.0401,1.9928,1.9288,1.8515,1.8508,1.818,1.5984,1.5625,1.5599,1.5292,1.586,1.6419,1.6419,1.6419,1.614,1.5305,1.5234,1.5234,1.5234,1.5234,1.5234,1.5234,1.5092,1.5021,1.5021,1.4879,1.445,1.36,1.3491,1.2985,1.1948,1.183,1.165,1.1316,1.1062,1.0815,1.0624,1.0624,1.0624,1.0624,1.0624,1.0624,1.2436,1.5078,1.8107,0.0,2.3356,2.4583,2.6013,0.0,2.6973,2.7736,2.8067,2.8106,2.7592,2.7354,2.7379,2.7773,2.7519,2.718,2.718,2.718,2.718,2.718,2.718,2.708,2.6841,2.6816,2.6716,2.6546,2.6533,2.6533,2.6533,2.6533,2.6533,2.6533,2.6533,2.6533,2.6533,2.6533,2.6533,2.6452,2.6025,2.5581,2.5134,2.4624,2.3818,2.285,2.2414,2.2188,2.2188,2.2188,2.2188,2.2188,2.2188,2.2188,2.2188,2.1593,2.1375,2.1298,2.0789,2.0566,2.0566,2.0566,2.0566,2.0566,2.0566,2.0566,2.0566,2.0566,2.0566,2.0566,2.0566,2.042,2.0197,1.9802,1.9822,1.9647,1.8369,1.7954,1.7606,1.7204,1.7237,1.7354,1.7354,1.7354,1.7217,1.6793,1.6793,1.6793,1.6793,1.6793,1.6793,1.6793,1.6289,1.6,1.6,1.5517,1.5021,1.4593,1.4522,1.4316,1.3742,1.3734,1.3575,1.3233,1.1745,1.0929,1.0802,1.0641,1.0624,1.0624,1.0624,1.0624,0.0,0.0,1.6634,2.0175,2.1856,2.328,0.0,0.0,2.6831,0.0,2.8656,2.8697,2.84,2.767,2.7297,2.767,2.7229,2.6714,2.6521,2.6533,2.6533,2.6533,2.6533,2.6533,2.6533,2.6533,2.6533,2.6533,2.6533,2.6533,2.6533,2.6533,2.6533,2.6533,2.6533,2.6533,2.6533,2.6533,2.6533,2.6533,2.6533,2.6533,2.6452,2.5734,2.4992,2.4253,2.3734,2.3514,2.3514,2.3514,2.3514,2.3514,2.3514,2.3514,2.3441,2.2627,2.2403,2.2253,2.1603,2.1155,2.1011,2.1231,2.1011,2.0644,2.0857,2.0789,2.0566,2.0566,2.0566,2.0566,2.0566,2.0566,2.0566,2.0566,2.0566,2.0449,2.001,1.958,1.916,1.8721,1.8389,1.8135,1.8027,1.8008,1.8008,1.8008,1.8008,1.8008,1.8008,1.8008,1.8008,1.8008,1.7354,1.6922,1.6922,1.6298,1.5799,1.5587,1.5587,1.5446,1.5234,1.5234,1.5101,1.4828,1.2938,1.1727,1.1383,1.1155,1.0882,1.0624,1.0624,1.0624,0.0,1.33,0.0,1.7724,2.0027,0.0,0.0,0.0,2.5559,2.6744,2.7602,2.851,2.9897,2.9442,2.862,2.7868,2.767,2.7351,2.6589,2.6533,2.6533,2.6533,2.6533,2.6533,2.6533,2.6533,2.6533,2.6533,2.6533,2.6533,2.6533,2.6533,2.6533,2.6533,2.6533,2.6533,2.6533,2.6533,2.6533,2.6533,2.6533,2.6533,2.6533,2.6465,2.6383,2.6233,2.4325,2.3514,2.3514,2.3514,2.3514,2.3514,2.3514,2.3514,2.3514,2.3441,2.3441,2.3441,2.3368,2.2702,2.2103,2.3073,2.2113,2.0789,2.1659,2.1298,2.0566,2.0566,2.0566,2.0566,2.0566,2.0566,2.0566,2.0566,2.0566,2.0449,2.001,1.958,1.916,1.8721,1.8553,1.8477,1.8076,1.8008,1.8008,1.8008,1.8008,1.8008,1.8008,1.8008,1.8008,1.8008,1.794,1.794,1.794,1.7862,1.7501,1.6567,1.6498,1.6149,1.5234,1.5234,1.5226,1.5138,1.4759,1.3763,1.2345,1.233,1.1717,1.0624,1.0624,1.0624,0.0,0.0,0.0,1.6491,1.8485,2.0433,2.2431,2.4209,2.5752,2.7085,2.824,2.9214,2.9746,2.9408,2.9066,2.9317,2.8876,2.8427,2.8182,2.8117,2.792,2.7351,2.7297,2.7095,2.6521,2.6533,2.6533,2.6533,2.6533,2.6533,2.6533,2.6533,2.6533,2.6533,2.6533,2.6533,2.6533,2.6533,2.6533,2.6533,2.6533,2.6533,2.6533,2.6533,2.6533,2.6452,2.5721,2.5429,2.5429,2.5429,2.5429,2.5429,2.5429,2.5429,2.5358,2.4696,2.448,2.4337,2.3745,2.3294,2.2999,2.3368,2.2999,2.2489,2.285,2.2264,2.1517,2.1517,2.1078,2.0566,2.0566,2.0566,2.0566,2.0566,2.0566,2.0518,2.0361,2.0,1.9648,1.9482,1.9238,1.8916,1.8486,1.8418,1.832,1.8047,1.8008,1.8008,1.8008,1.8008,1.8008,1.8008,1.8008,1.8008,1.8008,1.8008,1.7862,1.7501,1.7501,1.7364,1.701,1.701,1.701,1.701,1.6862,1.5828,1.3905,1.338,1.2973,1.253,1.1751,1.1344,1.0483,0.0,0.0,0.0,0.0,1.8346,2.1159,0.0,2.4497,2.6283,2.7856,2.9056,2.9505,2.9377,2.9394,2.9849,2.9685,2.9317,2.9066,2.9002,2.8812,2.8247,2.8117,2.792,2.7417,2.7095,2.6905,2.6905,2.6658,0.0,2.6533,2.6533,2.6533,2.6533,2.6533,2.6533,2.6533,2.6533,2.6533,2.6533,2.6533,2.6533,2.6533,2.6533,2.6533,2.6533,2.6533,2.6533,2.6533,2.6533,2.6533,2.6533,2.6533,2.6533,2.6383,2.5734,2.5511,2.5441,2.4767,2.4253,2.4036,2.4397,2.4024,2.3588,2.3891,2.3294,2.2478,2.2478,2.2038,2.1603,2.1603,2.1603,2.1451,2.1155,2.1078,2.1011,2.0634,2.0342,2.0088,1.9941,1.9687,1.9365,1.8926,1.8857,1.876,1.8477,1.8311,1.8223,1.8223,1.8096,1.8008,1.8008,1.8008,1.8008,1.8008,1.8008,1.8008,1.8008,1.8008,1.8008,1.8008,1.8008,1.8008,1.8008,1.8008,1.73,1.5839,1.4915,1.4153,1.3592,1.279,1.243,0.0,0.0,0.0,0.0,0.0,0.0,1.9019,0.0,2.1709,2.4138,2.6141,2.791,2.9205,2.949,2.9495,2.9262,2.9853,2.9954,2.9136,2.901,2.9024,2.9038,2.9038,2.8975,2.9002,2.8247,2.7736,2.7736,2.6973,2.6521,2.6521,2.6521,2.6521,2.6521,2.6521,2.6521,2.6521,2.6521,2.6521,2.6589,2.6521,2.6521,2.6521,2.6533,2.6533,2.6533,2.6533,2.6533,2.6533,2.6533,2.6533,2.6533,2.6533,2.6533,2.6533,2.6533,2.6533,2.6533,2.6533,2.5873,2.5229,2.6164,2.5205,2.3745,2.4779,2.4337,2.3514,2.3514,2.3514,2.3514,2.3514,2.3514,2.322,2.2253,2.2027,2.1811,2.0867,2.0644,2.0517,2.0019,1.9932,1.9805,1.9375,1.9307,1.9307,1.9287,1.8926,1.8652,1.8562,1.8281,1.8018,1.8008,1.8008,1.8008,1.8008,1.8008,1.8008,1.8008,1.8008,1.8008,1.8008,1.8008,1.8008,1.8008,1.8008,1.8008,1.8008,1.6728,1.5313,1.3697,1.368,1.3617,1.0846,0.0,0.0,0.0,0.0,0.0,0.0,0.0,2.0342,2.2762,2.4036,2.5106,2.6452,2.7485,2.8136,2.8077,2.9015,2.9699,2.9459,2.9444,2.9377,2.9223,2.922,2.9148,2.9024,2.8812,2.862,0.0,2.7855,2.7351,2.7351,2.7351,2.7351,2.7351,2.7351,2.7351,2.7351,2.7351,2.767,2.8298,2.767,2.7351,2.7351,2.6782,2.6533,2.6533,2.6533,2.6533,2.6533,2.6533,2.6533,2.6533,2.6533,2.6533,2.6533,2.6533,2.6533,2.6533,2.6533,2.6314,2.6094,2.6383,2.6082,2.5721,2.6013,2.537,2.4564,2.4564,2.4047,2.3514,2.3514,2.3514,2.3441,2.3147,2.3073,2.2776,2.1811,2.1593,2.1334,2.0554,2.0391,2.0244,1.9814,1.9746,1.9639,1.9336,1.9189,1.8994,1.8601,1.8535,1.835,1.8047,1.8008,1.8008,1.8008,1.8008,1.8008,1.8008,1.8008,1.8008,1.8008,1.8008,1.8008,1.8008,1.8008,1.8008,1.8008,1.7369,1.6769,1.6337,1.5432,1.4646,0.0,0.0,0.0,0.0,0.0,0.0,1.6857,1.7894,1.9041,0.0,2.2469,2.3535,2.4582,2.563,2.6437,2.6707,2.7649,2.8622,2.946,2.9579,2.9535,2.9444,2.9417,2.9391,2.9256,2.9153,2.9125,2.9125,2.8611,2.8247,2.8247,2.8247,2.8247,2.8247,2.8247,2.8247,2.8247,2.8247,2.8492,2.9002,2.8492,2.8247,2.8247,2.7351,2.6973,2.6973,2.6658,2.6533,2.6533,2.6533,2.6533,2.6533,2.6533,2.6533,2.6533,2.6533,2.6533,2.6533,2.6533,2.6533,2.6533,2.6533,2.6533,2.6533,2.6533,2.6094,2.5664,2.5664,2.5205,2.4767,2.4767,2.4767,2.4624,2.4264,2.412,2.3818,2.285,2.2627,2.2253,2.0867,2.0566,2.0478,2.0225,2.0185,2.0098,1.9853,1.9668,1.9453,1.9199,1.8786,1.8545,1.8301,1.8115,1.8008,1.8008,1.8008,1.8008,1.8008,1.8008,1.8008,1.8008,1.8008,1.8008,1.8008,1.8008,1.8008,1.8008,1.7764,1.7549,1.7373,1.6636,1.6048,1.3762,1.4011,0.0,0.0,1.4777,0.0,1.6829,1.7424,1.7935,0.0,2.1116,2.2368,2.3131,2.3849,2.4522,2.5181,2.5899,2.7081,2.9071,2.9355,2.9385,2.946,2.9475,2.9505,2.9564,2.9444,2.9348,2.9348,2.9059,2.8948,2.9018,2.9032,2.9059,2.9115,2.9129,2.9129,2.9129,2.9129,2.9192,2.9254,2.9192,2.9129,2.9129,2.8247,2.7868,2.7802,2.6973,2.6658,2.6658,2.6521,2.6533,2.6533,2.6533,2.6533,2.6533,2.6533,2.6533,2.6533,2.6533,2.6533,2.6533,2.6533,2.6533,2.6533,2.6533,2.6533,2.6533,2.6533,2.6533,2.6533,2.6533,2.6533,2.6245,2.537,2.5158,2.485,2.3891,2.3672,2.3147,2.1308,2.0867,2.0789,2.0789,2.0789,2.0789,2.0944,2.0605,2.0252,2.0212,1.9528,1.9013,1.8783,1.8439,1.8193,1.8008,1.8008,1.8008,1.8008,1.8008,1.8008,1.8008,1.8008,1.8008,1.8008,1.8008,1.8008,1.8008,1.8008,1.7822,1.7451,1.7451,1.7451,1.5593,1.6286,1.7315,1.6523,0.0,0.0,1.719,1.713,1.7459,0.0,1.8817,1.9226,2.0961,2.1814,2.2488,2.3146,2.4238,2.5704,2.7679,2.8015,2.8173,2.8727,2.8801,2.9011,2.9535,2.9575,2.9525,2.9525,2.8871,2.8667,2.924,2.9268,2.9497,3.0058,3.0072,3.0072,3.0072,3.0072,3.0389,3.1029,3.0329,3.0072,3.0011,2.9129,2.8748,2.8684,2.7868,2.7484,2.7417,2.6782,2.6533,2.6533,2.6533,2.6533,2.6533,2.6533,2.6533,2.6533,2.6533,2.6533,2.6533,2.6533,2.6533,2.6533,2.6533,2.6533,2.6533,2.6533,2.6533,2.6533,2.6533,2.6533,2.6465,2.6233,2.6233,2.5943,2.4933,2.4719,2.4337,2.3147,2.2264,2.1745,2.1745,2.1745,2.2038,2.2776,2.2848,2.2652,2.2352,2.2133,2.1507,1.9996,1.9713,1.9243,1.8105,1.8008,1.8008,1.8008,1.8008,1.8008,1.8008,1.8008,1.8008,1.8008,1.8008,1.8008,1.8008,1.8008,1.7969,1.7891,1.7891,1.7891,1.7353,1.7751,1.8627,1.8361,0.0,0.0,0.0,1.8045,1.7888,1.9067,1.8723,1.8732,2.0408,2.0707,2.1021,2.2024,2.3011,2.4103,2.5405,2.6168,2.6722,2.7066,2.7111,2.7365,2.8023,2.8397,2.8861,2.9535,2.9222,2.9119,2.9442,2.975,3.0059,3.0382,3.072,3.0896,3.0896,3.0896,3.1087,3.1482,3.1087,3.0896,3.0896,3.0011,2.9628,2.9566,2.8748,2.8363,2.8298,2.792,2.7736,2.767,2.685,2.6533,2.6533,2.6533,2.6533,2.6533,2.6533,2.6533,2.6533,2.6533,2.6533,2.6533,2.6533,2.6533,2.6533,2.6533,2.6533,2.6533,2.6533,2.6533,2.6533,2.6533,2.6533,2.6383,2.5873,2.5734,2.5441,2.4409,2.3818,2.3368,2.285,2.2776,2.2925,2.3441,2.3514,2.3436,2.3189,2.3026,2.2548,2.1629,2.1079,2.0428,1.9733,1.9435,1.911,1.8654,1.9044,1.8911,1.8008,1.8395,1.8462,1.8008,1.8008,1.8008,1.8008,1.8008,1.8008,1.8008,1.8008,1.8008,0.0,0.0,0.0,0.0,0.0,1.9417,0.0,0.0,0.0,1.931,1.8971,0.0,0.0,0.0,0.0,0.0,0.0,0.0,0.0,2.3894,0.0,2.5181,2.5345,2.563,2.6153,2.6572,2.7425,2.8891,2.8771,2.8846,2.937,2.9983,3.0372,3.0507,3.118,3.1482,3.1482,3.1482,3.1482,3.1482,3.1482,3.1482,3.1467,3.0837,3.0524,3.0464,2.9628,2.9254,2.9254,2.9066,2.9002,2.8876,2.7351,2.685,2.6905,2.6589,2.6589,2.6714,2.6521,2.6533,2.6533,2.6533,2.6533,2.6533,2.6533,2.6533,2.6533,2.6533,2.6533,2.6533,2.6533,2.6533,2.6533,2.6533,2.6533,2.6533,2.6533,2.6533,2.6245,2.5441,2.53,2.5004,2.3963,2.3818,2.3818,2.4036,2.4108,2.4108,2.4108,2.3764,2.3477,2.3233,2.2423,2.1788,2.1407,2.1025,2.0433,1.9628,2.0204,1.9879,1.8337,1.8787,1.8721,1.8008,1.8008,1.8008,1.8008,1.8008,1.8008,1.8008,1.8008,1.8008,0.0,0.0,0.0,0.0,2.2866,0.0,0.0,0.0,1.9132,1.8135,0.0,0.0,0.0,0.0,0.0,0.0,0.0,0.0,2.0213,2.0797,2.1904,2.3625,2.4373,2.4716,2.4806,2.4358,2.4852,2.6782,2.5854,2.6228,2.8592,2.9325,2.9939,3.0477,3.118,3.1482,3.1482,3.1482,3.1482,3.1482,3.1482,3.1482,3.1482,3.1409,3.1351,3.1351,3.0524,3.0133,3.0072,2.9317,2.9002,2.8876,2.792,2.8051,2.8556,2.704,2.6973,2.7484,2.6782,2.6533,2.6533,2.6533,2.6533,2.6533,2.6533,2.6533,2.6533,2.6533,2.6533,2.6533,2.6533,2.6533,2.6533,2.6533,2.6533,2.6533,2.6533,2.6533,2.6452,2.6383,2.6314,2.6025,2.5004,2.4862,2.5146,2.6025,2.6164,2.6164,2.6164,2.6114,2.5591,2.43,2.4065,2.3288,2.153,2.134,2.105,2.0495,2.0526,2.0139,1.9166,1.8529,1.8076,1.8008,1.8008,1.8008,1.8008,1.8008,1.8008,1.8008,1.8008,1.8008,0.0,0.0,0.0,0.0,0.0,0.0,2.1455,0.0,1.9626,0.0,0.0,0.0,0.0,0.0,0.0,0.0,1.8867,0.0,0.0,0.0,1.9854,0.0,0.0,0.0,2.3415,2.3565,2.3954,2.4792,2.4343,2.4866,2.6767,2.7844,2.8891,2.9939,3.0597,3.1135,3.1482,3.1482,3.1482,3.1482,3.1482,3.1482,3.1482,3.1482,3.1482,3.1467,3.1161,3.1029,3.097,3.0584,3.045,3.0389,2.9504,2.9129,2.8939,2.8247,2.8182,2.8427,2.8051,2.792,2.792,2.792,2.7604,2.7229,2.7229,2.7229,2.7095,2.6658,2.6533,2.6533,2.6533,2.6533,2.6533,2.6533,2.6533,2.6533,2.6533,2.6533,2.6533,2.6533,2.6533,2.6383,2.5955,2.5873,2.6025,2.6465,2.6533,2.6533,2.6533,2.6533,2.6283,2.561,2.529,2.4695,2.3911,2.3268,2.2631,2.1882,2.1069,2.0655,2.0782,1.9497,1.8721,1.8721,1.8721,1.8529,1.8008,1.8529,1.8462,1.8008,1.8008,1.8008,2.6059,0.0,0.0,0.0,0.0,0.0,0.0,0.0,0.0,0.0,0.0,0.0,0.0,0.0,0.0,0.0,0.0,1.81,0.0,1.7533,0.0,0.0,0.0,0.0,0.0,2.2323,2.2562,2.3295,2.2832,2.3355,2.5241,2.6587,2.7919,2.9265,3.0088,3.0836,3.1467,3.1482,3.1482,3.1482,3.1482,3.1482,3.1482,3.1482,3.1482,3.1482,3.1482,3.1482,3.1482,3.1482,3.1482,3.1409,3.0837,3.0269,2.9628,2.9192,2.9129,2.9317,2.9066,2.9002,2.9002,2.9002,2.8556,2.8051,2.8051,2.8051,2.792,2.7351,2.704,2.685,2.685,2.6658,2.6533,2.6533,2.6533,2.6533,2.6533,2.6533,2.6533,2.6533,2.6533,2.6533,2.6533,2.6533,2.6533,2.6533,2.6533,2.6533,2.6533,2.6533,2.6533,2.6533,2.6088,2.5774,2.5611,2.4883,2.4039,2.3083,2.1707,2.1239,2.1877,2.0462,1.9694,1.9694,1.9694,1.9243,1.8327,1.8977,1.8854,1.8008,1.8008,1.8008,0.0,0.0,0.0,2.7289,0.0,0.0,0.0,0.0,2.1734,0.0,0.0,0.0,0.0,0.0,0.0,0.0,0.0,0.0,0.0,0.0,0.0,0.0,0.0,0.0,0.0,1.9989,1.9929,0.0,2.0955,2.1231,2.4448,2.5899,2.7245,2.8592,2.9849,3.0836,3.1467,3.1482,3.1482,3.1482,3.1482,3.1482,3.1482,3.1482,3.1482,3.1482,3.1482,3.1482,3.1482,3.1482,3.1482,3.1482,3.1467,3.1409,3.1219,2.9566,2.9504,3.0133,2.9317,2.9002,2.9002,2.9002,2.9002,2.8939,2.8939,2.8939,2.8939,2.8939,2.8298,2.767,2.767,2.7095,2.6533,2.6533,2.6533,2.6533,2.6533,2.6533,2.6533,2.6533,2.6533,2.6533,2.6533,2.6533,2.6533,2.6533,2.6533,2.6533,2.6533,2.6533,2.6533,2.6533,2.6508,2.6201,2.5649,2.5561,2.5096,2.4004,2.2625,2.1877,2.1877,2.1049,2.059,2.059,2.059,2.0139,1.9243,1.9299,1.8854,1.8008,1.8008,1.8008,0.0,0.0,3.185,2.9542,0.0,0.0,0.0,0.0,0.0,0.0,0.0,0.0,0.0,0.0,0.0,0.0,0.0,0.0,0.0,0.0,0.0,0.0,0.0,0.0,0.0,0.0,0.0,2.0019,2.0243,0.0,2.3236,2.4986,2.6542,2.7874,2.9205,3.0208,3.0851,3.13,3.1482,3.1482,3.1482,3.1482,3.1482,3.1482,3.1482,3.1482,3.1482,3.1482,3.1482,3.1482,3.1482,3.1482,3.1482,3.1482,3.1409,3.0837,3.0837,3.1029,3.0777,3.0329,2.995,3.0464,3.0269,2.9889,2.9889,2.9889,2.9766,2.9192,2.8812,2.8556,2.8556,2.8363,2.7986,2.7417,2.7284,2.7162,2.6589,2.6533,2.6533,2.6533,2.6533,2.6533,2.6533,2.6533,2.6533,2.6533,2.6533,2.6533,2.6533,2.6533,2.6533,2.6533,2.6533,2.6445,2.6189,2.5824,2.5134,2.4067,2.3555,2.3084,2.2714,2.1865,2.1491,2.1491,2.1491,2.1037,2.0139,2.0719,2.059,1.9694,1.9694,1.911,3.3671,3.3795,0.0,3.1077,2.9547,0.0,2.4927,0.0,2.3994,0.0,0.0,0.0,0.0,0.0,0.0,0.0,0.0,0.0,0.0,1.6771,0.0,0.0,0.0,0.0,0.0,0.0,1.8508,1.9016,1.9211,0.0,0.0,2.3954,2.5615,2.7171,2.8757,2.9879,3.0492,3.118,3.1482,3.1482,3.1482,3.1482,3.1482,3.1482,3.1482,3.1482,3.1482,3.1482,3.1482,3.1482,3.1482,3.1482,3.1482,3.1482,3.1482,3.1482,3.1482,3.1482,3.1482,3.1161,3.0837,3.1351,3.1161,3.0718,3.0718,3.0718,3.0584,3.0072,2.969,2.9442,2.9442,2.9002,2.8492,2.8247,2.792,2.7537,2.704,2.6905,2.685,2.6589,2.6533,2.6533,2.6533,2.6533,2.6533,2.6533,2.6533,2.6533,2.6533,2.6533,2.6533,2.6533,2.6533,2.6533,2.6533,2.5937,2.5297,2.4607,2.4393,2.4029,2.3464,2.2936,2.2528,2.2322,2.2322,2.1939,2.1037,2.1628,2.1428,2.059,2.059,1.9814]}]]